<?xml version="1.0" encoding="UTF-8" standalone="no" ?>
<gpx xmlns="http://www.topografix.com/GPX/1/1" xmlns:xsi="http://www.w3.org/2001/XMLSchema-instance" xsi:schemaLocation="http://www.topografix.com/GPX/1/1 http://www.topografix.com/GPX/1/1/gpx.xsd" version="1.1" creator="VisuGPX - https://www.visugpx.com">
  <metadata>
    <name>2023-10-12-46-cambayrac</name>
    <desc><![CDATA[Randonnée de 11km pour 250m de dénivelé positif. Une belle descente vers les gorges de Landore sur le sentier de l'institutrice, un dépaysement total dans un décor de mousse et lichen]]></desc>
  </metadata>
  <trk>
    <name><![CDATA[12/10/2023 cambayrac]]></name>
    <extensions>
      <line xmlns="http://www.topografix.com/GPX/gpx_style/0/2">
        <color>FF9D00</color>
      </line>
    </extensions>
    <trkseg>
      <trkpt lat="44.42662" lon="1.28521">
        <ele>322.1</ele>
        <time>2023-10-12T07:04:30Z</time>
      </trkpt>
      <trkpt lat="44.42662" lon="1.28519">
        <ele>272.3</ele>
        <time>2023-10-12T07:04:39Z</time>
      </trkpt>
      <trkpt lat="44.42662" lon="1.2852">
        <ele>272.4</ele>
        <time>2023-10-12T07:04:40Z</time>
      </trkpt>
      <trkpt lat="44.42664" lon="1.28523">
        <ele>272.2</ele>
        <time>2023-10-12T07:04:43Z</time>
      </trkpt>
      <trkpt lat="44.42666" lon="1.28533">
        <ele>269.9</ele>
        <time>2023-10-12T07:04:49Z</time>
      </trkpt>
      <trkpt lat="44.42667" lon="1.28535">
        <ele>269.7</ele>
        <time>2023-10-12T07:04:51Z</time>
      </trkpt>
      <trkpt lat="44.4267" lon="1.28536">
        <ele>270.9</ele>
        <time>2023-10-12T07:04:53Z</time>
      </trkpt>
      <trkpt lat="44.42671" lon="1.28539">
        <ele>271.2</ele>
        <time>2023-10-12T07:05:11Z</time>
      </trkpt>
      <trkpt lat="44.42672" lon="1.28541">
        <ele>271.1</ele>
        <time>2023-10-12T07:05:12Z</time>
      </trkpt>
      <trkpt lat="44.42673" lon="1.28549">
        <ele>272.3</ele>
        <time>2023-10-12T07:05:18Z</time>
      </trkpt>
      <trkpt lat="44.42672" lon="1.28566">
        <ele>267.4</ele>
        <time>2023-10-12T07:05:31Z</time>
      </trkpt>
      <trkpt lat="44.42672" lon="1.28567">
        <ele>267.5</ele>
        <time>2023-10-12T07:05:32Z</time>
      </trkpt>
      <trkpt lat="44.42671" lon="1.28566">
        <ele>265.9</ele>
        <time>2023-10-12T07:05:33Z</time>
      </trkpt>
      <trkpt lat="44.42674" lon="1.28568">
        <ele>265.9</ele>
        <time>2023-10-12T07:05:53Z</time>
      </trkpt>
      <trkpt lat="44.42678" lon="1.28568">
        <ele>268</ele>
        <time>2023-10-12T07:05:57Z</time>
      </trkpt>
      <trkpt lat="44.42681" lon="1.2857">
        <ele>268</ele>
        <time>2023-10-12T07:06:00Z</time>
      </trkpt>
      <trkpt lat="44.42686" lon="1.28571">
        <ele>267.9</ele>
        <time>2023-10-12T07:06:03Z</time>
      </trkpt>
      <trkpt lat="44.42687" lon="1.28571">
        <ele>267.7</ele>
        <time>2023-10-12T07:06:04Z</time>
      </trkpt>
      <trkpt lat="44.42694" lon="1.28571">
        <ele>268.3</ele>
        <time>2023-10-12T07:06:08Z</time>
      </trkpt>
      <trkpt lat="44.42701" lon="1.28568">
        <ele>268.5</ele>
        <time>2023-10-12T07:06:14Z</time>
      </trkpt>
      <trkpt lat="44.42705" lon="1.28569">
        <ele>269.9</ele>
        <time>2023-10-12T07:06:17Z</time>
      </trkpt>
      <trkpt lat="44.42707" lon="1.28569">
        <ele>270</ele>
        <time>2023-10-12T07:06:18Z</time>
      </trkpt>
      <trkpt lat="44.42714" lon="1.28568">
        <ele>271.3</ele>
        <time>2023-10-12T07:06:23Z</time>
      </trkpt>
      <trkpt lat="44.42718" lon="1.28569">
        <ele>273.1</ele>
        <time>2023-10-12T07:06:26Z</time>
      </trkpt>
      <trkpt lat="44.42721" lon="1.28566">
        <ele>274.4</ele>
        <time>2023-10-12T07:06:28Z</time>
      </trkpt>
      <trkpt lat="44.42723" lon="1.28565">
        <ele>273.9</ele>
        <time>2023-10-12T07:06:29Z</time>
      </trkpt>
      <trkpt lat="44.42731" lon="1.28557">
        <ele>271.4</ele>
        <time>2023-10-12T07:06:36Z</time>
      </trkpt>
      <trkpt lat="44.4274" lon="1.28553">
        <ele>270.5</ele>
        <time>2023-10-12T07:06:43Z</time>
      </trkpt>
      <trkpt lat="44.42741" lon="1.28553">
        <ele>270.4</ele>
        <time>2023-10-12T07:06:44Z</time>
      </trkpt>
      <trkpt lat="44.42755" lon="1.28551">
        <ele>268.6</ele>
        <time>2023-10-12T07:06:53Z</time>
      </trkpt>
      <trkpt lat="44.42756" lon="1.28551">
        <ele>268.3</ele>
        <time>2023-10-12T07:06:54Z</time>
      </trkpt>
      <trkpt lat="44.4276" lon="1.2855">
        <ele>268.7</ele>
        <time>2023-10-12T07:06:57Z</time>
      </trkpt>
      <trkpt lat="44.4277" lon="1.28553">
        <ele>268.5</ele>
        <time>2023-10-12T07:07:03Z</time>
      </trkpt>
      <trkpt lat="44.42771" lon="1.28554">
        <ele>269</ele>
        <time>2023-10-12T07:07:04Z</time>
      </trkpt>
      <trkpt lat="44.42781" lon="1.2856">
        <ele>266.5</ele>
        <time>2023-10-12T07:07:12Z</time>
      </trkpt>
      <trkpt lat="44.42785" lon="1.28561">
        <ele>266</ele>
        <time>2023-10-12T07:07:15Z</time>
      </trkpt>
      <trkpt lat="44.42786" lon="1.28562">
        <ele>265.4</ele>
        <time>2023-10-12T07:07:16Z</time>
      </trkpt>
      <trkpt lat="44.42793" lon="1.28564">
        <ele>265.6</ele>
        <time>2023-10-12T07:07:21Z</time>
      </trkpt>
      <trkpt lat="44.42799" lon="1.28568">
        <ele>265.8</ele>
        <time>2023-10-12T07:07:26Z</time>
      </trkpt>
      <trkpt lat="44.42801" lon="1.28569">
        <ele>265.4</ele>
        <time>2023-10-12T07:07:27Z</time>
      </trkpt>
      <trkpt lat="44.42805" lon="1.28572">
        <ele>266.7</ele>
        <time>2023-10-12T07:07:30Z</time>
      </trkpt>
      <trkpt lat="44.42813" lon="1.28575">
        <ele>267.3</ele>
        <time>2023-10-12T07:07:36Z</time>
      </trkpt>
      <trkpt lat="44.42814" lon="1.28576">
        <ele>266.8</ele>
        <time>2023-10-12T07:07:37Z</time>
      </trkpt>
      <trkpt lat="44.42817" lon="1.28574">
        <ele>266</ele>
        <time>2023-10-12T07:07:39Z</time>
      </trkpt>
      <trkpt lat="44.42815" lon="1.28574">
        <ele>264</ele>
        <time>2023-10-12T07:07:50Z</time>
      </trkpt>
      <trkpt lat="44.42825" lon="1.28579">
        <ele>266.1</ele>
        <time>2023-10-12T07:07:57Z</time>
      </trkpt>
      <trkpt lat="44.42826" lon="1.28579">
        <ele>266.7</ele>
        <time>2023-10-12T07:07:58Z</time>
      </trkpt>
      <trkpt lat="44.42836" lon="1.28582">
        <ele>266.1</ele>
        <time>2023-10-12T07:08:06Z</time>
      </trkpt>
      <trkpt lat="44.42844" lon="1.28582">
        <ele>267.8</ele>
        <time>2023-10-12T07:08:12Z</time>
      </trkpt>
      <trkpt lat="44.42846" lon="1.28583">
        <ele>267.9</ele>
        <time>2023-10-12T07:08:13Z</time>
      </trkpt>
      <trkpt lat="44.42852" lon="1.28584">
        <ele>267.6</ele>
        <time>2023-10-12T07:08:18Z</time>
      </trkpt>
      <trkpt lat="44.42853" lon="1.28583">
        <ele>268.5</ele>
        <time>2023-10-12T07:08:19Z</time>
      </trkpt>
      <trkpt lat="44.42856" lon="1.28582">
        <ele>267.2</ele>
        <time>2023-10-12T07:08:21Z</time>
      </trkpt>
      <trkpt lat="44.42863" lon="1.28586">
        <ele>267.5</ele>
        <time>2023-10-12T07:08:26Z</time>
      </trkpt>
      <trkpt lat="44.42864" lon="1.28586">
        <ele>267.8</ele>
        <time>2023-10-12T07:08:27Z</time>
      </trkpt>
      <trkpt lat="44.42868" lon="1.28587">
        <ele>268.6</ele>
        <time>2023-10-12T07:08:30Z</time>
      </trkpt>
      <trkpt lat="44.4287" lon="1.28588">
        <ele>268.4</ele>
        <time>2023-10-12T07:08:31Z</time>
      </trkpt>
      <trkpt lat="44.42873" lon="1.28596">
        <ele>267.6</ele>
        <time>2023-10-12T07:08:36Z</time>
      </trkpt>
      <trkpt lat="44.42874" lon="1.28598">
        <ele>266.8</ele>
        <time>2023-10-12T07:08:37Z</time>
      </trkpt>
      <trkpt lat="44.42875" lon="1.28615">
        <ele>268.2</ele>
        <time>2023-10-12T07:08:46Z</time>
      </trkpt>
      <trkpt lat="44.42878" lon="1.28622">
        <ele>265.1</ele>
        <time>2023-10-12T07:08:51Z</time>
      </trkpt>
      <trkpt lat="44.42878" lon="1.28623">
        <ele>265.6</ele>
        <time>2023-10-12T07:08:52Z</time>
      </trkpt>
      <trkpt lat="44.42882" lon="1.28633">
        <ele>265.5</ele>
        <time>2023-10-12T07:09:00Z</time>
      </trkpt>
      <trkpt lat="44.42888" lon="1.28643">
        <ele>266.4</ele>
        <time>2023-10-12T07:09:10Z</time>
      </trkpt>
      <trkpt lat="44.42888" lon="1.28644">
        <ele>265.2</ele>
        <time>2023-10-12T07:09:11Z</time>
      </trkpt>
      <trkpt lat="44.42897" lon="1.28663">
        <ele>263.7</ele>
        <time>2023-10-12T07:09:28Z</time>
      </trkpt>
      <trkpt lat="44.42898" lon="1.28664">
        <ele>263.8</ele>
        <time>2023-10-12T07:09:29Z</time>
      </trkpt>
      <trkpt lat="44.42897" lon="1.28662">
        <ele>259.3</ele>
        <time>2023-10-12T07:09:30Z</time>
      </trkpt>
      <trkpt lat="44.42898" lon="1.28665">
        <ele>259.2</ele>
        <time>2023-10-12T07:09:33Z</time>
      </trkpt>
      <trkpt lat="44.42908" lon="1.2868">
        <ele>260.5</ele>
        <time>2023-10-12T07:09:46Z</time>
      </trkpt>
      <trkpt lat="44.42909" lon="1.28681">
        <ele>260.5</ele>
        <time>2023-10-12T07:09:47Z</time>
      </trkpt>
      <trkpt lat="44.42921" lon="1.28697">
        <ele>260.3</ele>
        <time>2023-10-12T07:10:02Z</time>
      </trkpt>
      <trkpt lat="44.42921" lon="1.28698">
        <ele>260</ele>
        <time>2023-10-12T07:10:03Z</time>
      </trkpt>
      <trkpt lat="44.42923" lon="1.28701">
        <ele>259.8</ele>
        <time>2023-10-12T07:10:06Z</time>
      </trkpt>
      <trkpt lat="44.4293" lon="1.28707">
        <ele>261.9</ele>
        <time>2023-10-12T07:10:14Z</time>
      </trkpt>
      <trkpt lat="44.42935" lon="1.28708">
        <ele>260.7</ele>
        <time>2023-10-12T07:10:19Z</time>
      </trkpt>
      <trkpt lat="44.42936" lon="1.28709">
        <ele>260.4</ele>
        <time>2023-10-12T07:10:20Z</time>
      </trkpt>
      <trkpt lat="44.42945" lon="1.28711">
        <ele>261.1</ele>
        <time>2023-10-12T07:10:29Z</time>
      </trkpt>
      <trkpt lat="44.42946" lon="1.28709">
        <ele>262.1</ele>
        <time>2023-10-12T07:10:30Z</time>
      </trkpt>
      <trkpt lat="44.4295" lon="1.2871">
        <ele>260.8</ele>
        <time>2023-10-12T07:10:39Z</time>
      </trkpt>
      <trkpt lat="44.42951" lon="1.2871">
        <ele>261.1</ele>
        <time>2023-10-12T07:10:40Z</time>
      </trkpt>
      <trkpt lat="44.42954" lon="1.28712">
        <ele>260.1</ele>
        <time>2023-10-12T07:10:45Z</time>
      </trkpt>
      <trkpt lat="44.42969" lon="1.28713">
        <ele>257.7</ele>
        <time>2023-10-12T07:10:59Z</time>
      </trkpt>
      <trkpt lat="44.4297" lon="1.28713">
        <ele>257.7</ele>
        <time>2023-10-12T07:11:00Z</time>
      </trkpt>
      <trkpt lat="44.42977" lon="1.28711">
        <ele>256.9</ele>
        <time>2023-10-12T07:11:05Z</time>
      </trkpt>
      <trkpt lat="44.42988" lon="1.28704">
        <ele>257.6</ele>
        <time>2023-10-12T07:11:15Z</time>
      </trkpt>
      <trkpt lat="44.4299" lon="1.28704">
        <ele>258.6</ele>
        <time>2023-10-12T07:11:16Z</time>
      </trkpt>
      <trkpt lat="44.42993" lon="1.28703">
        <ele>259.4</ele>
        <time>2023-10-12T07:11:19Z</time>
      </trkpt>
      <trkpt lat="44.42995" lon="1.28702">
        <ele>258.4</ele>
        <time>2023-10-12T07:11:21Z</time>
      </trkpt>
      <trkpt lat="44.42995" lon="1.287">
        <ele>260.1</ele>
        <time>2023-10-12T07:11:29Z</time>
      </trkpt>
      <trkpt lat="44.42999" lon="1.28704">
        <ele>258.8</ele>
        <time>2023-10-12T07:11:39Z</time>
      </trkpt>
      <trkpt lat="44.43004" lon="1.28705">
        <ele>257.7</ele>
        <time>2023-10-12T07:11:43Z</time>
      </trkpt>
      <trkpt lat="44.43004" lon="1.28706">
        <ele>257</ele>
        <time>2023-10-12T07:11:44Z</time>
      </trkpt>
      <trkpt lat="44.4302" lon="1.2871">
        <ele>255.3</ele>
        <time>2023-10-12T07:11:54Z</time>
      </trkpt>
      <trkpt lat="44.43022" lon="1.2871">
        <ele>255.1</ele>
        <time>2023-10-12T07:11:55Z</time>
      </trkpt>
      <trkpt lat="44.43037" lon="1.28715">
        <ele>259.1</ele>
        <time>2023-10-12T07:12:04Z</time>
      </trkpt>
      <trkpt lat="44.43038" lon="1.28715">
        <ele>259.3</ele>
        <time>2023-10-12T07:12:05Z</time>
      </trkpt>
      <trkpt lat="44.43042" lon="1.28716">
        <ele>259.6</ele>
        <time>2023-10-12T07:12:07Z</time>
      </trkpt>
      <trkpt lat="44.43048" lon="1.28723">
        <ele>260.4</ele>
        <time>2023-10-12T07:12:13Z</time>
      </trkpt>
      <trkpt lat="44.43053" lon="1.28727">
        <ele>257.3</ele>
        <time>2023-10-12T07:12:17Z</time>
      </trkpt>
      <trkpt lat="44.43054" lon="1.28728">
        <ele>256.1</ele>
        <time>2023-10-12T07:12:18Z</time>
      </trkpt>
      <trkpt lat="44.43065" lon="1.28738">
        <ele>253.6</ele>
        <time>2023-10-12T07:12:27Z</time>
      </trkpt>
      <trkpt lat="44.43067" lon="1.28739">
        <ele>254.2</ele>
        <time>2023-10-12T07:12:28Z</time>
      </trkpt>
      <trkpt lat="44.43078" lon="1.2875">
        <ele>254.5</ele>
        <time>2023-10-12T07:12:39Z</time>
      </trkpt>
      <trkpt lat="44.43081" lon="1.28751">
        <ele>253.8</ele>
        <time>2023-10-12T07:12:42Z</time>
      </trkpt>
      <trkpt lat="44.43082" lon="1.28751">
        <ele>253.9</ele>
        <time>2023-10-12T07:12:43Z</time>
      </trkpt>
      <trkpt lat="44.43082" lon="1.28752">
        <ele>253.7</ele>
        <time>2023-10-12T07:12:44Z</time>
      </trkpt>
      <trkpt lat="44.43081" lon="1.28755">
        <ele>252.9</ele>
        <time>2023-10-12T07:12:50Z</time>
      </trkpt>
      <trkpt lat="44.43077" lon="1.28759">
        <ele>253.9</ele>
        <time>2023-10-12T07:13:19Z</time>
      </trkpt>
      <trkpt lat="44.43076" lon="1.28762">
        <ele>252.7</ele>
        <time>2023-10-12T07:13:24Z</time>
      </trkpt>
      <trkpt lat="44.43075" lon="1.28773">
        <ele>251</ele>
        <time>2023-10-12T07:13:35Z</time>
      </trkpt>
      <trkpt lat="44.43075" lon="1.28774">
        <ele>250.7</ele>
        <time>2023-10-12T07:13:36Z</time>
      </trkpt>
      <trkpt lat="44.43072" lon="1.28796">
        <ele>249.8</ele>
        <time>2023-10-12T07:14:00Z</time>
      </trkpt>
      <trkpt lat="44.43072" lon="1.28797">
        <ele>249.4</ele>
        <time>2023-10-12T07:14:01Z</time>
      </trkpt>
      <trkpt lat="44.43073" lon="1.28803">
        <ele>251.6</ele>
        <time>2023-10-12T07:14:08Z</time>
      </trkpt>
      <trkpt lat="44.43072" lon="1.2881">
        <ele>251</ele>
        <time>2023-10-12T07:14:14Z</time>
      </trkpt>
      <trkpt lat="44.43073" lon="1.28822">
        <ele>250</ele>
        <time>2023-10-12T07:14:24Z</time>
      </trkpt>
      <trkpt lat="44.43073" lon="1.28823">
        <ele>250.1</ele>
        <time>2023-10-12T07:14:25Z</time>
      </trkpt>
      <trkpt lat="44.43074" lon="1.28826">
        <ele>248.8</ele>
        <time>2023-10-12T07:14:32Z</time>
      </trkpt>
      <trkpt lat="44.4308" lon="1.28846">
        <ele>248</ele>
        <time>2023-10-12T07:14:54Z</time>
      </trkpt>
      <trkpt lat="44.4308" lon="1.28846">
        <ele>248.1</ele>
        <time>2023-10-12T07:14:55Z</time>
      </trkpt>
      <trkpt lat="44.43086" lon="1.2887">
        <ele>245</ele>
        <time>2023-10-12T07:15:20Z</time>
      </trkpt>
      <trkpt lat="44.43086" lon="1.2887">
        <ele>244.9</ele>
        <time>2023-10-12T07:15:21Z</time>
      </trkpt>
      <trkpt lat="44.43086" lon="1.28873">
        <ele>243.5</ele>
        <time>2023-10-12T07:15:26Z</time>
      </trkpt>
      <trkpt lat="44.43091" lon="1.28884">
        <ele>242.4</ele>
        <time>2023-10-12T07:15:41Z</time>
      </trkpt>
      <trkpt lat="44.43093" lon="1.28891">
        <ele>241.1</ele>
        <time>2023-10-12T07:15:49Z</time>
      </trkpt>
      <trkpt lat="44.43093" lon="1.28892">
        <ele>240</ele>
        <time>2023-10-12T07:15:50Z</time>
      </trkpt>
      <trkpt lat="44.43094" lon="1.28892">
        <ele>240.6</ele>
        <time>2023-10-12T07:15:51Z</time>
      </trkpt>
      <trkpt lat="44.43094" lon="1.28898">
        <ele>240.5</ele>
        <time>2023-10-12T07:16:00Z</time>
      </trkpt>
      <trkpt lat="44.43095" lon="1.289">
        <ele>239.4</ele>
        <time>2023-10-12T07:16:03Z</time>
      </trkpt>
      <trkpt lat="44.43098" lon="1.28914">
        <ele>235.1</ele>
        <time>2023-10-12T07:16:21Z</time>
      </trkpt>
      <trkpt lat="44.43098" lon="1.28914">
        <ele>235.1</ele>
        <time>2023-10-12T07:16:22Z</time>
      </trkpt>
      <trkpt lat="44.431" lon="1.28922">
        <ele>235.5</ele>
        <time>2023-10-12T07:16:37Z</time>
      </trkpt>
      <trkpt lat="44.431" lon="1.28925">
        <ele>233.8</ele>
        <time>2023-10-12T07:16:46Z</time>
      </trkpt>
      <trkpt lat="44.43104" lon="1.28937">
        <ele>240.3</ele>
        <time>2023-10-12T07:17:00Z</time>
      </trkpt>
      <trkpt lat="44.43104" lon="1.28938">
        <ele>241.5</ele>
        <time>2023-10-12T07:17:01Z</time>
      </trkpt>
      <trkpt lat="44.43106" lon="1.28941">
        <ele>240.8</ele>
        <time>2023-10-12T07:17:05Z</time>
      </trkpt>
      <trkpt lat="44.4311" lon="1.28943">
        <ele>238.5</ele>
        <time>2023-10-12T07:17:11Z</time>
      </trkpt>
      <trkpt lat="44.4311" lon="1.28947">
        <ele>236.9</ele>
        <time>2023-10-12T07:17:17Z</time>
      </trkpt>
      <trkpt lat="44.43108" lon="1.28948">
        <ele>235.7</ele>
        <time>2023-10-12T07:17:20Z</time>
      </trkpt>
      <trkpt lat="44.43104" lon="1.28946">
        <ele>233</ele>
        <time>2023-10-12T07:17:23Z</time>
      </trkpt>
      <trkpt lat="44.43102" lon="1.28945">
        <ele>232.9</ele>
        <time>2023-10-12T07:17:24Z</time>
      </trkpt>
      <trkpt lat="44.43098" lon="1.28941">
        <ele>230.7</ele>
        <time>2023-10-12T07:17:29Z</time>
      </trkpt>
      <trkpt lat="44.43098" lon="1.28937">
        <ele>228</ele>
        <time>2023-10-12T07:17:30Z</time>
      </trkpt>
      <trkpt lat="44.43096" lon="1.28936">
        <ele>227</ele>
        <time>2023-10-12T07:17:32Z</time>
      </trkpt>
      <trkpt lat="44.43094" lon="1.28935">
        <ele>226.6</ele>
        <time>2023-10-12T07:17:34Z</time>
      </trkpt>
      <trkpt lat="44.43089" lon="1.28935">
        <ele>226.3</ele>
        <time>2023-10-12T07:17:38Z</time>
      </trkpt>
      <trkpt lat="44.43088" lon="1.28935">
        <ele>226</ele>
        <time>2023-10-12T07:17:39Z</time>
      </trkpt>
      <trkpt lat="44.43085" lon="1.28934">
        <ele>227.5</ele>
        <time>2023-10-12T07:17:42Z</time>
      </trkpt>
      <trkpt lat="44.43083" lon="1.28932">
        <ele>227</ele>
        <time>2023-10-12T07:17:45Z</time>
      </trkpt>
      <trkpt lat="44.43075" lon="1.28919">
        <ele>226.9</ele>
        <time>2023-10-12T07:17:56Z</time>
      </trkpt>
      <trkpt lat="44.43075" lon="1.28918">
        <ele>227</ele>
        <time>2023-10-12T07:17:57Z</time>
      </trkpt>
      <trkpt lat="44.43071" lon="1.28913">
        <ele>227</ele>
        <time>2023-10-12T07:18:02Z</time>
      </trkpt>
      <trkpt lat="44.43068" lon="1.28905">
        <ele>227.5</ele>
        <time>2023-10-12T07:18:08Z</time>
      </trkpt>
      <trkpt lat="44.43066" lon="1.28903">
        <ele>225.6</ele>
        <time>2023-10-12T07:18:11Z</time>
      </trkpt>
      <trkpt lat="44.43063" lon="1.28902">
        <ele>225.8</ele>
        <time>2023-10-12T07:18:14Z</time>
      </trkpt>
      <trkpt lat="44.43062" lon="1.28902">
        <ele>225.7</ele>
        <time>2023-10-12T07:18:15Z</time>
      </trkpt>
      <trkpt lat="44.43058" lon="1.28902">
        <ele>225.1</ele>
        <time>2023-10-12T07:18:20Z</time>
      </trkpt>
      <trkpt lat="44.43051" lon="1.28906">
        <ele>224</ele>
        <time>2023-10-12T07:18:28Z</time>
      </trkpt>
      <trkpt lat="44.43046" lon="1.28906">
        <ele>221.8</ele>
        <time>2023-10-12T07:18:38Z</time>
      </trkpt>
      <trkpt lat="44.43045" lon="1.28906">
        <ele>221.7</ele>
        <time>2023-10-12T07:18:39Z</time>
      </trkpt>
      <trkpt lat="44.43038" lon="1.28908">
        <ele>220.4</ele>
        <time>2023-10-12T07:18:48Z</time>
      </trkpt>
      <trkpt lat="44.43028" lon="1.28904">
        <ele>219</ele>
        <time>2023-10-12T07:19:00Z</time>
      </trkpt>
      <trkpt lat="44.43028" lon="1.28904">
        <ele>219</ele>
        <time>2023-10-12T07:19:01Z</time>
      </trkpt>
      <trkpt lat="44.43025" lon="1.28902">
        <ele>219</ele>
        <time>2023-10-12T07:19:12Z</time>
      </trkpt>
      <trkpt lat="44.43019" lon="1.28905">
        <ele>219</ele>
        <time>2023-10-12T07:19:18Z</time>
      </trkpt>
      <trkpt lat="44.43012" lon="1.28908">
        <ele>217.7</ele>
        <time>2023-10-12T07:19:25Z</time>
      </trkpt>
      <trkpt lat="44.43011" lon="1.28909">
        <ele>218.1</ele>
        <time>2023-10-12T07:19:26Z</time>
      </trkpt>
      <trkpt lat="44.4301" lon="1.28913">
        <ele>218.1</ele>
        <time>2023-10-12T07:19:33Z</time>
      </trkpt>
      <trkpt lat="44.43002" lon="1.28918">
        <ele>217</ele>
        <time>2023-10-12T07:19:43Z</time>
      </trkpt>
      <trkpt lat="44.43" lon="1.28917">
        <ele>216.9</ele>
        <time>2023-10-12T07:19:45Z</time>
      </trkpt>
      <trkpt lat="44.42998" lon="1.28914">
        <ele>215.3</ele>
        <time>2023-10-12T07:19:48Z</time>
      </trkpt>
      <trkpt lat="44.42998" lon="1.28913">
        <ele>215.1</ele>
        <time>2023-10-12T07:19:49Z</time>
      </trkpt>
      <trkpt lat="44.42994" lon="1.28908">
        <ele>213.8</ele>
        <time>2023-10-12T07:19:54Z</time>
      </trkpt>
      <trkpt lat="44.42993" lon="1.28907">
        <ele>214</ele>
        <time>2023-10-12T07:19:56Z</time>
      </trkpt>
      <trkpt lat="44.42988" lon="1.28906">
        <ele>213.2</ele>
        <time>2023-10-12T07:20:03Z</time>
      </trkpt>
      <trkpt lat="44.42983" lon="1.28909">
        <ele>211.5</ele>
        <time>2023-10-12T07:20:13Z</time>
      </trkpt>
      <trkpt lat="44.42982" lon="1.28909">
        <ele>211.4</ele>
        <time>2023-10-12T07:20:14Z</time>
      </trkpt>
      <trkpt lat="44.42979" lon="1.28909">
        <ele>211.5</ele>
        <time>2023-10-12T07:20:17Z</time>
      </trkpt>
      <trkpt lat="44.42977" lon="1.28908">
        <ele>211.3</ele>
        <time>2023-10-12T07:20:19Z</time>
      </trkpt>
      <trkpt lat="44.4297" lon="1.289">
        <ele>212.3</ele>
        <time>2023-10-12T07:20:29Z</time>
      </trkpt>
      <trkpt lat="44.4297" lon="1.28896">
        <ele>212.7</ele>
        <time>2023-10-12T07:20:39Z</time>
      </trkpt>
      <trkpt lat="44.4297" lon="1.28895">
        <ele>212.3</ele>
        <time>2023-10-12T07:20:40Z</time>
      </trkpt>
      <trkpt lat="44.42966" lon="1.2889">
        <ele>216.5</ele>
        <time>2023-10-12T07:20:53Z</time>
      </trkpt>
      <trkpt lat="44.42962" lon="1.28888">
        <ele>217.3</ele>
        <time>2023-10-12T07:20:59Z</time>
      </trkpt>
      <trkpt lat="44.42958" lon="1.28888">
        <ele>221.3</ele>
        <time>2023-10-12T07:21:03Z</time>
      </trkpt>
      <trkpt lat="44.42956" lon="1.2889">
        <ele>221.3</ele>
        <time>2023-10-12T07:21:06Z</time>
      </trkpt>
      <trkpt lat="44.42955" lon="1.2889">
        <ele>222.7</ele>
        <time>2023-10-12T07:21:07Z</time>
      </trkpt>
      <trkpt lat="44.42944" lon="1.28878">
        <ele>220.9</ele>
        <time>2023-10-12T07:21:29Z</time>
      </trkpt>
      <trkpt lat="44.42948" lon="1.28877">
        <ele>221.7</ele>
        <time>2023-10-12T07:21:31Z</time>
      </trkpt>
      <trkpt lat="44.42947" lon="1.28877">
        <ele>221.6</ele>
        <time>2023-10-12T07:21:32Z</time>
      </trkpt>
      <trkpt lat="44.42944" lon="1.28872">
        <ele>224.7</ele>
        <time>2023-10-12T07:21:45Z</time>
      </trkpt>
      <trkpt lat="44.42942" lon="1.28871">
        <ele>223.7</ele>
        <time>2023-10-12T07:21:47Z</time>
      </trkpt>
      <trkpt lat="44.42939" lon="1.28871">
        <ele>223</ele>
        <time>2023-10-12T07:21:49Z</time>
      </trkpt>
      <trkpt lat="44.42933" lon="1.28873">
        <ele>223.5</ele>
        <time>2023-10-12T07:21:54Z</time>
      </trkpt>
      <trkpt lat="44.42932" lon="1.28873">
        <ele>223.8</ele>
        <time>2023-10-12T07:21:55Z</time>
      </trkpt>
      <trkpt lat="44.42926" lon="1.28872">
        <ele>224.2</ele>
        <time>2023-10-12T07:22:02Z</time>
      </trkpt>
      <trkpt lat="44.4292" lon="1.28876">
        <ele>227</ele>
        <time>2023-10-12T07:22:10Z</time>
      </trkpt>
      <trkpt lat="44.42918" lon="1.28879">
        <ele>227.1</ele>
        <time>2023-10-12T07:22:13Z</time>
      </trkpt>
      <trkpt lat="44.42915" lon="1.2888">
        <ele>226.6</ele>
        <time>2023-10-12T07:22:18Z</time>
      </trkpt>
      <trkpt lat="44.42914" lon="1.2888">
        <ele>226.4</ele>
        <time>2023-10-12T07:22:19Z</time>
      </trkpt>
      <trkpt lat="44.4291" lon="1.28884">
        <ele>225.4</ele>
        <time>2023-10-12T07:22:26Z</time>
      </trkpt>
      <trkpt lat="44.42908" lon="1.28884">
        <ele>224.9</ele>
        <time>2023-10-12T07:22:29Z</time>
      </trkpt>
      <trkpt lat="44.4291" lon="1.28881">
        <ele>224</ele>
        <time>2023-10-12T07:22:30Z</time>
      </trkpt>
      <trkpt lat="44.42904" lon="1.28886">
        <ele>223.9</ele>
        <time>2023-10-12T07:22:38Z</time>
      </trkpt>
      <trkpt lat="44.42903" lon="1.28886">
        <ele>223.6</ele>
        <time>2023-10-12T07:22:39Z</time>
      </trkpt>
      <trkpt lat="44.42898" lon="1.28888">
        <ele>222.9</ele>
        <time>2023-10-12T07:22:47Z</time>
      </trkpt>
      <trkpt lat="44.42893" lon="1.28896">
        <ele>226</ele>
        <time>2023-10-12T07:23:01Z</time>
      </trkpt>
      <trkpt lat="44.4289" lon="1.28897">
        <ele>225.7</ele>
        <time>2023-10-12T07:23:05Z</time>
      </trkpt>
      <trkpt lat="44.42889" lon="1.28897">
        <ele>225.7</ele>
        <time>2023-10-12T07:23:06Z</time>
      </trkpt>
      <trkpt lat="44.42884" lon="1.28893">
        <ele>223.6</ele>
        <time>2023-10-12T07:23:16Z</time>
      </trkpt>
      <trkpt lat="44.42881" lon="1.28893">
        <ele>222.3</ele>
        <time>2023-10-12T07:23:24Z</time>
      </trkpt>
      <trkpt lat="44.42877" lon="1.28894">
        <ele>220.9</ele>
        <time>2023-10-12T07:23:30Z</time>
      </trkpt>
      <trkpt lat="44.42872" lon="1.28898">
        <ele>220.5</ele>
        <time>2023-10-12T07:23:48Z</time>
      </trkpt>
      <trkpt lat="44.42871" lon="1.28898">
        <ele>220.4</ele>
        <time>2023-10-12T07:23:49Z</time>
      </trkpt>
      <trkpt lat="44.42866" lon="1.28904">
        <ele>218.5</ele>
        <time>2023-10-12T07:23:57Z</time>
      </trkpt>
      <trkpt lat="44.42864" lon="1.28905">
        <ele>218.8</ele>
        <time>2023-10-12T07:23:59Z</time>
      </trkpt>
      <trkpt lat="44.42859" lon="1.28903">
        <ele>218.3</ele>
        <time>2023-10-12T07:24:12Z</time>
      </trkpt>
      <trkpt lat="44.42856" lon="1.28905">
        <ele>217.5</ele>
        <time>2023-10-12T07:24:18Z</time>
      </trkpt>
      <trkpt lat="44.42856" lon="1.28905">
        <ele>217.1</ele>
        <time>2023-10-12T07:24:19Z</time>
      </trkpt>
      <trkpt lat="44.42853" lon="1.28905">
        <ele>217.5</ele>
        <time>2023-10-12T07:24:28Z</time>
      </trkpt>
      <trkpt lat="44.42849" lon="1.28903">
        <ele>215.6</ele>
        <time>2023-10-12T07:24:31Z</time>
      </trkpt>
      <trkpt lat="44.42847" lon="1.28905">
        <ele>216</ele>
        <time>2023-10-12T07:24:34Z</time>
      </trkpt>
      <trkpt lat="44.4284" lon="1.28906">
        <ele>216.7</ele>
        <time>2023-10-12T07:25:11Z</time>
      </trkpt>
      <trkpt lat="44.42839" lon="1.28906">
        <ele>217</ele>
        <time>2023-10-12T07:25:12Z</time>
      </trkpt>
      <trkpt lat="44.42836" lon="1.28906">
        <ele>217.5</ele>
        <time>2023-10-12T07:25:26Z</time>
      </trkpt>
      <trkpt lat="44.42833" lon="1.28908">
        <ele>219</ele>
        <time>2023-10-12T07:25:38Z</time>
      </trkpt>
      <trkpt lat="44.42827" lon="1.28906">
        <ele>215.1</ele>
        <time>2023-10-12T07:25:46Z</time>
      </trkpt>
      <trkpt lat="44.42828" lon="1.289">
        <ele>213.9</ele>
        <time>2023-10-12T07:25:49Z</time>
      </trkpt>
      <trkpt lat="44.42828" lon="1.28899">
        <ele>214.1</ele>
        <time>2023-10-12T07:25:50Z</time>
      </trkpt>
      <trkpt lat="44.42825" lon="1.28893">
        <ele>211.9</ele>
        <time>2023-10-12T07:25:56Z</time>
      </trkpt>
      <trkpt lat="44.42824" lon="1.28893">
        <ele>209.3</ele>
        <time>2023-10-12T07:25:59Z</time>
      </trkpt>
      <trkpt lat="44.42821" lon="1.28897">
        <ele>207.7</ele>
        <time>2023-10-12T07:26:01Z</time>
      </trkpt>
      <trkpt lat="44.42815" lon="1.28899">
        <ele>205.8</ele>
        <time>2023-10-12T07:26:09Z</time>
      </trkpt>
      <trkpt lat="44.42815" lon="1.28899">
        <ele>206.6</ele>
        <time>2023-10-12T07:26:10Z</time>
      </trkpt>
      <trkpt lat="44.42809" lon="1.28904">
        <ele>204.1</ele>
        <time>2023-10-12T07:26:19Z</time>
      </trkpt>
      <trkpt lat="44.42812" lon="1.28903">
        <ele>203.9</ele>
        <time>2023-10-12T07:26:20Z</time>
      </trkpt>
      <trkpt lat="44.4281" lon="1.28905">
        <ele>201.4</ele>
        <time>2023-10-12T07:26:27Z</time>
      </trkpt>
      <trkpt lat="44.42807" lon="1.28904">
        <ele>199.9</ele>
        <time>2023-10-12T07:26:29Z</time>
      </trkpt>
      <trkpt lat="44.428" lon="1.28902">
        <ele>201.2</ele>
        <time>2023-10-12T07:26:30Z</time>
      </trkpt>
      <trkpt lat="44.428" lon="1.28904">
        <ele>201.8</ele>
        <time>2023-10-12T07:26:31Z</time>
      </trkpt>
      <trkpt lat="44.42801" lon="1.28904">
        <ele>202.1</ele>
        <time>2023-10-12T07:26:32Z</time>
      </trkpt>
      <trkpt lat="44.42799" lon="1.28907">
        <ele>200.9</ele>
        <time>2023-10-12T07:27:15Z</time>
      </trkpt>
      <trkpt lat="44.42797" lon="1.28909">
        <ele>202.4</ele>
        <time>2023-10-12T07:27:16Z</time>
      </trkpt>
      <trkpt lat="44.42796" lon="1.28909">
        <ele>201.6</ele>
        <time>2023-10-12T07:27:29Z</time>
      </trkpt>
      <trkpt lat="44.42801" lon="1.28912">
        <ele>208.6</ele>
        <time>2023-10-12T07:27:30Z</time>
      </trkpt>
      <trkpt lat="44.42799" lon="1.28912">
        <ele>207.9</ele>
        <time>2023-10-12T07:27:32Z</time>
      </trkpt>
      <trkpt lat="44.42799" lon="1.28914">
        <ele>207.5</ele>
        <time>2023-10-12T07:27:43Z</time>
      </trkpt>
      <trkpt lat="44.42802" lon="1.28917">
        <ele>210.7</ele>
        <time>2023-10-12T07:27:46Z</time>
      </trkpt>
      <trkpt lat="44.42804" lon="1.28915">
        <ele>211.2</ele>
        <time>2023-10-12T07:27:47Z</time>
      </trkpt>
      <trkpt lat="44.42814" lon="1.28917">
        <ele>218.8</ele>
        <time>2023-10-12T07:27:56Z</time>
      </trkpt>
      <trkpt lat="44.42816" lon="1.2892">
        <ele>217.3</ele>
        <time>2023-10-12T07:28:00Z</time>
      </trkpt>
      <trkpt lat="44.42817" lon="1.28925">
        <ele>216.9</ele>
        <time>2023-10-12T07:28:04Z</time>
      </trkpt>
      <trkpt lat="44.42817" lon="1.28926">
        <ele>216.9</ele>
        <time>2023-10-12T07:28:05Z</time>
      </trkpt>
      <trkpt lat="44.42819" lon="1.28929">
        <ele>215.9</ele>
        <time>2023-10-12T07:28:09Z</time>
      </trkpt>
      <trkpt lat="44.42821" lon="1.2893">
        <ele>215.9</ele>
        <time>2023-10-12T07:28:12Z</time>
      </trkpt>
      <trkpt lat="44.4283" lon="1.28941">
        <ele>213.5</ele>
        <time>2023-10-12T07:28:26Z</time>
      </trkpt>
      <trkpt lat="44.42831" lon="1.28941">
        <ele>212.4</ele>
        <time>2023-10-12T07:28:27Z</time>
      </trkpt>
      <trkpt lat="44.42831" lon="1.28943">
        <ele>212.2</ele>
        <time>2023-10-12T07:28:29Z</time>
      </trkpt>
      <trkpt lat="44.42829" lon="1.28946">
        <ele>208.5</ele>
        <time>2023-10-12T07:28:30Z</time>
      </trkpt>
      <trkpt lat="44.42835" lon="1.28949">
        <ele>209.2</ele>
        <time>2023-10-12T07:28:37Z</time>
      </trkpt>
      <trkpt lat="44.42838" lon="1.28954">
        <ele>208.7</ele>
        <time>2023-10-12T07:28:43Z</time>
      </trkpt>
      <trkpt lat="44.42839" lon="1.28955">
        <ele>208.3</ele>
        <time>2023-10-12T07:28:44Z</time>
      </trkpt>
      <trkpt lat="44.42845" lon="1.28961">
        <ele>206.2</ele>
        <time>2023-10-12T07:28:53Z</time>
      </trkpt>
      <trkpt lat="44.42854" lon="1.28966">
        <ele>207.1</ele>
        <time>2023-10-12T07:29:02Z</time>
      </trkpt>
      <trkpt lat="44.42855" lon="1.28966">
        <ele>206.9</ele>
        <time>2023-10-12T07:29:03Z</time>
      </trkpt>
      <trkpt lat="44.42863" lon="1.28969">
        <ele>205.5</ele>
        <time>2023-10-12T07:29:12Z</time>
      </trkpt>
      <trkpt lat="44.42871" lon="1.28974">
        <ele>205.8</ele>
        <time>2023-10-12T07:29:22Z</time>
      </trkpt>
      <trkpt lat="44.42871" lon="1.28975">
        <ele>205.8</ele>
        <time>2023-10-12T07:29:23Z</time>
      </trkpt>
      <trkpt lat="44.42877" lon="1.28977">
        <ele>210</ele>
        <time>2023-10-12T07:29:28Z</time>
      </trkpt>
      <trkpt lat="44.4288" lon="1.28977">
        <ele>212.5</ele>
        <time>2023-10-12T07:29:30Z</time>
      </trkpt>
      <trkpt lat="44.42884" lon="1.2898">
        <ele>208.2</ele>
        <time>2023-10-12T07:29:35Z</time>
      </trkpt>
      <trkpt lat="44.42888" lon="1.28979">
        <ele>206</ele>
        <time>2023-10-12T07:29:38Z</time>
      </trkpt>
      <trkpt lat="44.42889" lon="1.28979">
        <ele>206.6</ele>
        <time>2023-10-12T07:29:39Z</time>
      </trkpt>
      <trkpt lat="44.42894" lon="1.28976">
        <ele>206.9</ele>
        <time>2023-10-12T07:29:46Z</time>
      </trkpt>
      <trkpt lat="44.42896" lon="1.28976">
        <ele>207.4</ele>
        <time>2023-10-12T07:29:48Z</time>
      </trkpt>
      <trkpt lat="44.42901" lon="1.28977">
        <ele>207.9</ele>
        <time>2023-10-12T07:29:52Z</time>
      </trkpt>
      <trkpt lat="44.42906" lon="1.28975">
        <ele>205.3</ele>
        <time>2023-10-12T07:29:59Z</time>
      </trkpt>
      <trkpt lat="44.42907" lon="1.28975">
        <ele>205.2</ele>
        <time>2023-10-12T07:30:00Z</time>
      </trkpt>
      <trkpt lat="44.42916" lon="1.28971">
        <ele>201.6</ele>
        <time>2023-10-12T07:30:12Z</time>
      </trkpt>
      <trkpt lat="44.42923" lon="1.28966">
        <ele>200.1</ele>
        <time>2023-10-12T07:30:21Z</time>
      </trkpt>
      <trkpt lat="44.42924" lon="1.28965">
        <ele>198.9</ele>
        <time>2023-10-12T07:30:22Z</time>
      </trkpt>
      <trkpt lat="44.42931" lon="1.28963">
        <ele>204.1</ele>
        <time>2023-10-12T07:30:29Z</time>
      </trkpt>
      <trkpt lat="44.42931" lon="1.28967">
        <ele>202</ele>
        <time>2023-10-12T07:30:31Z</time>
      </trkpt>
      <trkpt lat="44.42933" lon="1.28965">
        <ele>201.5</ele>
        <time>2023-10-12T07:30:33Z</time>
      </trkpt>
      <trkpt lat="44.42937" lon="1.28964">
        <ele>200.5</ele>
        <time>2023-10-12T07:30:37Z</time>
      </trkpt>
      <trkpt lat="44.42938" lon="1.28963">
        <ele>199.7</ele>
        <time>2023-10-12T07:30:38Z</time>
      </trkpt>
      <trkpt lat="44.42945" lon="1.28963">
        <ele>198.8</ele>
        <time>2023-10-12T07:30:46Z</time>
      </trkpt>
      <trkpt lat="44.42952" lon="1.28965">
        <ele>198.7</ele>
        <time>2023-10-12T07:30:51Z</time>
      </trkpt>
      <trkpt lat="44.42954" lon="1.28967">
        <ele>199.5</ele>
        <time>2023-10-12T07:30:55Z</time>
      </trkpt>
      <trkpt lat="44.42955" lon="1.28968">
        <ele>199.4</ele>
        <time>2023-10-12T07:30:56Z</time>
      </trkpt>
      <trkpt lat="44.42962" lon="1.28966">
        <ele>195.9</ele>
        <time>2023-10-12T07:31:06Z</time>
      </trkpt>
      <trkpt lat="44.42972" lon="1.28967">
        <ele>195.8</ele>
        <time>2023-10-12T07:31:17Z</time>
      </trkpt>
      <trkpt lat="44.42972" lon="1.28967">
        <ele>195.9</ele>
        <time>2023-10-12T07:31:18Z</time>
      </trkpt>
      <trkpt lat="44.42982" lon="1.28969">
        <ele>195.1</ele>
        <time>2023-10-12T07:31:30Z</time>
      </trkpt>
      <trkpt lat="44.42987" lon="1.28975">
        <ele>192.7</ele>
        <time>2023-10-12T07:31:36Z</time>
      </trkpt>
      <trkpt lat="44.42988" lon="1.28975">
        <ele>193.4</ele>
        <time>2023-10-12T07:31:37Z</time>
      </trkpt>
      <trkpt lat="44.42989" lon="1.28975">
        <ele>193.6</ele>
        <time>2023-10-12T07:31:38Z</time>
      </trkpt>
      <trkpt lat="44.43" lon="1.28979">
        <ele>195.5</ele>
        <time>2023-10-12T07:31:49Z</time>
      </trkpt>
      <trkpt lat="44.43006" lon="1.2898">
        <ele>197.6</ele>
        <time>2023-10-12T07:31:53Z</time>
      </trkpt>
      <trkpt lat="44.43007" lon="1.28981">
        <ele>197.5</ele>
        <time>2023-10-12T07:31:54Z</time>
      </trkpt>
      <trkpt lat="44.43009" lon="1.28985">
        <ele>195.9</ele>
        <time>2023-10-12T07:32:01Z</time>
      </trkpt>
      <trkpt lat="44.43022" lon="1.28992">
        <ele>193.9</ele>
        <time>2023-10-12T07:32:22Z</time>
      </trkpt>
      <trkpt lat="44.43023" lon="1.28993">
        <ele>194.7</ele>
        <time>2023-10-12T07:32:23Z</time>
      </trkpt>
      <trkpt lat="44.43028" lon="1.28997">
        <ele>189.9</ele>
        <time>2023-10-12T07:32:35Z</time>
      </trkpt>
      <trkpt lat="44.43031" lon="1.29001">
        <ele>187.9</ele>
        <time>2023-10-12T07:32:42Z</time>
      </trkpt>
      <trkpt lat="44.43037" lon="1.29002">
        <ele>187.4</ele>
        <time>2023-10-12T07:32:49Z</time>
      </trkpt>
      <trkpt lat="44.43038" lon="1.29002">
        <ele>186.6</ele>
        <time>2023-10-12T07:32:50Z</time>
      </trkpt>
      <trkpt lat="44.43047" lon="1.29">
        <ele>191</ele>
        <time>2023-10-12T07:32:55Z</time>
      </trkpt>
      <trkpt lat="44.43051" lon="1.29002">
        <ele>187.3</ele>
        <time>2023-10-12T07:32:59Z</time>
      </trkpt>
      <trkpt lat="44.43054" lon="1.29006">
        <ele>187.4</ele>
        <time>2023-10-12T07:33:03Z</time>
      </trkpt>
      <trkpt lat="44.43054" lon="1.29007">
        <ele>187.1</ele>
        <time>2023-10-12T07:33:04Z</time>
      </trkpt>
      <trkpt lat="44.43059" lon="1.29013">
        <ele>189.1</ele>
        <time>2023-10-12T07:33:12Z</time>
      </trkpt>
      <trkpt lat="44.43068" lon="1.29019">
        <ele>189.7</ele>
        <time>2023-10-12T07:33:22Z</time>
      </trkpt>
      <trkpt lat="44.43069" lon="1.29019">
        <ele>190.1</ele>
        <time>2023-10-12T07:33:23Z</time>
      </trkpt>
      <trkpt lat="44.43071" lon="1.29022">
        <ele>187.7</ele>
        <time>2023-10-12T07:33:27Z</time>
      </trkpt>
      <trkpt lat="44.43072" lon="1.29025">
        <ele>188.5</ele>
        <time>2023-10-12T07:33:31Z</time>
      </trkpt>
      <trkpt lat="44.43075" lon="1.29024">
        <ele>188.5</ele>
        <time>2023-10-12T07:33:35Z</time>
      </trkpt>
      <trkpt lat="44.4308" lon="1.29034">
        <ele>189.7</ele>
        <time>2023-10-12T07:33:56Z</time>
      </trkpt>
      <trkpt lat="44.43081" lon="1.29035">
        <ele>190.4</ele>
        <time>2023-10-12T07:33:57Z</time>
      </trkpt>
      <trkpt lat="44.43083" lon="1.29036">
        <ele>189.4</ele>
        <time>2023-10-12T07:33:58Z</time>
      </trkpt>
      <trkpt lat="44.43082" lon="1.29039">
        <ele>186.7</ele>
        <time>2023-10-12T07:34:02Z</time>
      </trkpt>
      <trkpt lat="44.43082" lon="1.29041">
        <ele>186.9</ele>
        <time>2023-10-12T07:34:06Z</time>
      </trkpt>
      <trkpt lat="44.43089" lon="1.29047">
        <ele>187.1</ele>
        <time>2023-10-12T07:34:19Z</time>
      </trkpt>
      <trkpt lat="44.43091" lon="1.29045">
        <ele>187.9</ele>
        <time>2023-10-12T07:34:21Z</time>
      </trkpt>
      <trkpt lat="44.43092" lon="1.29043">
        <ele>187.7</ele>
        <time>2023-10-12T07:34:22Z</time>
      </trkpt>
      <trkpt lat="44.43092" lon="1.29042">
        <ele>187</ele>
        <time>2023-10-12T07:34:23Z</time>
      </trkpt>
      <trkpt lat="44.43093" lon="1.29038">
        <ele>187.9</ele>
        <time>2023-10-12T07:34:25Z</time>
      </trkpt>
      <trkpt lat="44.43097" lon="1.29037">
        <ele>187</ele>
        <time>2023-10-12T07:34:27Z</time>
      </trkpt>
      <trkpt lat="44.43098" lon="1.29038">
        <ele>186.3</ele>
        <time>2023-10-12T07:34:28Z</time>
      </trkpt>
      <trkpt lat="44.431" lon="1.29046">
        <ele>183.2</ele>
        <time>2023-10-12T07:34:33Z</time>
      </trkpt>
      <trkpt lat="44.43105" lon="1.29044">
        <ele>183.5</ele>
        <time>2023-10-12T07:34:34Z</time>
      </trkpt>
      <trkpt lat="44.43105" lon="1.29045">
        <ele>183.2</ele>
        <time>2023-10-12T07:34:35Z</time>
      </trkpt>
      <trkpt lat="44.43111" lon="1.29049">
        <ele>181.8</ele>
        <time>2023-10-12T07:34:40Z</time>
      </trkpt>
      <trkpt lat="44.43114" lon="1.29056">
        <ele>180.1</ele>
        <time>2023-10-12T07:34:44Z</time>
      </trkpt>
      <trkpt lat="44.43115" lon="1.29058">
        <ele>179.7</ele>
        <time>2023-10-12T07:34:45Z</time>
      </trkpt>
      <trkpt lat="44.43117" lon="1.29061">
        <ele>181.7</ele>
        <time>2023-10-12T07:34:47Z</time>
      </trkpt>
      <trkpt lat="44.43127" lon="1.29076">
        <ele>180.3</ele>
        <time>2023-10-12T07:34:59Z</time>
      </trkpt>
      <trkpt lat="44.43128" lon="1.29078">
        <ele>180.4</ele>
        <time>2023-10-12T07:35:00Z</time>
      </trkpt>
      <trkpt lat="44.4313" lon="1.29084">
        <ele>180.8</ele>
        <time>2023-10-12T07:35:06Z</time>
      </trkpt>
      <trkpt lat="44.43135" lon="1.2909">
        <ele>183</ele>
        <time>2023-10-12T07:35:12Z</time>
      </trkpt>
      <trkpt lat="44.43138" lon="1.29096">
        <ele>186</ele>
        <time>2023-10-12T07:35:18Z</time>
      </trkpt>
      <trkpt lat="44.43138" lon="1.29097">
        <ele>185.8</ele>
        <time>2023-10-12T07:35:19Z</time>
      </trkpt>
      <trkpt lat="44.43139" lon="1.29097">
        <ele>184.5</ele>
        <time>2023-10-12T07:35:20Z</time>
      </trkpt>
      <trkpt lat="44.43137" lon="1.29094">
        <ele>177.2</ele>
        <time>2023-10-12T07:35:21Z</time>
      </trkpt>
      <trkpt lat="44.43137" lon="1.29098">
        <ele>180.3</ele>
        <time>2023-10-12T07:35:26Z</time>
      </trkpt>
      <trkpt lat="44.43142" lon="1.29109">
        <ele>176.8</ele>
        <time>2023-10-12T07:35:55Z</time>
      </trkpt>
      <trkpt lat="44.43144" lon="1.29112">
        <ele>175.3</ele>
        <time>2023-10-12T07:35:59Z</time>
      </trkpt>
      <trkpt lat="44.43145" lon="1.29113">
        <ele>174.5</ele>
        <time>2023-10-12T07:36:00Z</time>
      </trkpt>
      <trkpt lat="44.4315" lon="1.29122">
        <ele>173.1</ele>
        <time>2023-10-12T07:36:12Z</time>
      </trkpt>
      <trkpt lat="44.43154" lon="1.29125">
        <ele>173.3</ele>
        <time>2023-10-12T07:36:16Z</time>
      </trkpt>
      <trkpt lat="44.43156" lon="1.29125">
        <ele>173.5</ele>
        <time>2023-10-12T07:36:18Z</time>
      </trkpt>
      <trkpt lat="44.43158" lon="1.29129">
        <ele>173.2</ele>
        <time>2023-10-12T07:36:22Z</time>
      </trkpt>
      <trkpt lat="44.43159" lon="1.29129">
        <ele>173.4</ele>
        <time>2023-10-12T07:36:23Z</time>
      </trkpt>
      <trkpt lat="44.43159" lon="1.29127">
        <ele>173</ele>
        <time>2023-10-12T07:36:24Z</time>
      </trkpt>
      <trkpt lat="44.43157" lon="1.29127">
        <ele>174.7</ele>
        <time>2023-10-12T07:36:48Z</time>
      </trkpt>
      <trkpt lat="44.43159" lon="1.29131">
        <ele>178.5</ele>
        <time>2023-10-12T07:37:00Z</time>
      </trkpt>
      <trkpt lat="44.43168" lon="1.29137">
        <ele>175.1</ele>
        <time>2023-10-12T07:37:09Z</time>
      </trkpt>
      <trkpt lat="44.43169" lon="1.29137">
        <ele>175.6</ele>
        <time>2023-10-12T07:37:10Z</time>
      </trkpt>
      <trkpt lat="44.43178" lon="1.29142">
        <ele>173.5</ele>
        <time>2023-10-12T07:37:20Z</time>
      </trkpt>
      <trkpt lat="44.43181" lon="1.29145">
        <ele>173.1</ele>
        <time>2023-10-12T07:37:24Z</time>
      </trkpt>
      <trkpt lat="44.43184" lon="1.29147">
        <ele>172.8</ele>
        <time>2023-10-12T07:37:27Z</time>
      </trkpt>
      <trkpt lat="44.43185" lon="1.29147">
        <ele>171.7</ele>
        <time>2023-10-12T07:37:28Z</time>
      </trkpt>
      <trkpt lat="44.43186" lon="1.29148">
        <ele>171.3</ele>
        <time>2023-10-12T07:37:29Z</time>
      </trkpt>
      <trkpt lat="44.4319" lon="1.29145">
        <ele>168.1</ele>
        <time>2023-10-12T07:37:35Z</time>
      </trkpt>
      <trkpt lat="44.43192" lon="1.29149">
        <ele>168.9</ele>
        <time>2023-10-12T07:37:36Z</time>
      </trkpt>
      <trkpt lat="44.43196" lon="1.29152">
        <ele>170</ele>
        <time>2023-10-12T07:37:38Z</time>
      </trkpt>
      <trkpt lat="44.43199" lon="1.29151">
        <ele>168.1</ele>
        <time>2023-10-12T07:37:40Z</time>
      </trkpt>
      <trkpt lat="44.43203" lon="1.29153">
        <ele>167.9</ele>
        <time>2023-10-12T07:37:44Z</time>
      </trkpt>
      <trkpt lat="44.43204" lon="1.29153">
        <ele>167.5</ele>
        <time>2023-10-12T07:37:45Z</time>
      </trkpt>
      <trkpt lat="44.43207" lon="1.29156">
        <ele>168.6</ele>
        <time>2023-10-12T07:37:49Z</time>
      </trkpt>
      <trkpt lat="44.43213" lon="1.29158">
        <ele>167.2</ele>
        <time>2023-10-12T07:37:54Z</time>
      </trkpt>
      <trkpt lat="44.43216" lon="1.29157">
        <ele>166.3</ele>
        <time>2023-10-12T07:37:56Z</time>
      </trkpt>
      <trkpt lat="44.43218" lon="1.29155">
        <ele>163.4</ele>
        <time>2023-10-12T07:37:59Z</time>
      </trkpt>
      <trkpt lat="44.43219" lon="1.29155">
        <ele>162.6</ele>
        <time>2023-10-12T07:38:00Z</time>
      </trkpt>
      <trkpt lat="44.4322" lon="1.29158">
        <ele>163.2</ele>
        <time>2023-10-12T07:38:04Z</time>
      </trkpt>
      <trkpt lat="44.43218" lon="1.2916">
        <ele>163.1</ele>
        <time>2023-10-12T07:38:29Z</time>
      </trkpt>
      <trkpt lat="44.43217" lon="1.29168">
        <ele>166.7</ele>
        <time>2023-10-12T07:38:30Z</time>
      </trkpt>
      <trkpt lat="44.43219" lon="1.29166">
        <ele>166.9</ele>
        <time>2023-10-12T07:38:39Z</time>
      </trkpt>
      <trkpt lat="44.43221" lon="1.29167">
        <ele>168.8</ele>
        <time>2023-10-12T07:38:42Z</time>
      </trkpt>
      <trkpt lat="44.43223" lon="1.2917">
        <ele>167.6</ele>
        <time>2023-10-12T07:38:46Z</time>
      </trkpt>
      <trkpt lat="44.43225" lon="1.2917">
        <ele>171.2</ele>
        <time>2023-10-12T07:38:47Z</time>
      </trkpt>
      <trkpt lat="44.43228" lon="1.2917">
        <ele>171.4</ele>
        <time>2023-10-12T07:38:48Z</time>
      </trkpt>
      <trkpt lat="44.43229" lon="1.2917">
        <ele>172.6</ele>
        <time>2023-10-12T07:38:49Z</time>
      </trkpt>
      <trkpt lat="44.43227" lon="1.29172">
        <ele>168.3</ele>
        <time>2023-10-12T07:38:53Z</time>
      </trkpt>
      <trkpt lat="44.43227" lon="1.29176">
        <ele>167.9</ele>
        <time>2023-10-12T07:39:00Z</time>
      </trkpt>
      <trkpt lat="44.43229" lon="1.29175">
        <ele>167.3</ele>
        <time>2023-10-12T07:39:07Z</time>
      </trkpt>
      <trkpt lat="44.43231" lon="1.29176">
        <ele>167.1</ele>
        <time>2023-10-12T07:39:09Z</time>
      </trkpt>
      <trkpt lat="44.43232" lon="1.29178">
        <ele>169.4</ele>
        <time>2023-10-12T07:39:11Z</time>
      </trkpt>
      <trkpt lat="44.43231" lon="1.29181">
        <ele>169.2</ele>
        <time>2023-10-12T07:39:20Z</time>
      </trkpt>
      <trkpt lat="44.43228" lon="1.29181">
        <ele>167.9</ele>
        <time>2023-10-12T07:39:24Z</time>
      </trkpt>
      <trkpt lat="44.43228" lon="1.29181">
        <ele>168</ele>
        <time>2023-10-12T07:39:25Z</time>
      </trkpt>
      <trkpt lat="44.43227" lon="1.29183">
        <ele>165.1</ele>
        <time>2023-10-12T07:39:38Z</time>
      </trkpt>
      <trkpt lat="44.43225" lon="1.292">
        <ele>168.3</ele>
        <time>2023-10-12T07:39:47Z</time>
      </trkpt>
      <trkpt lat="44.43224" lon="1.29202">
        <ele>167.8</ele>
        <time>2023-10-12T07:39:48Z</time>
      </trkpt>
      <trkpt lat="44.43224" lon="1.29211">
        <ele>164.4</ele>
        <time>2023-10-12T07:39:57Z</time>
      </trkpt>
      <trkpt lat="44.43226" lon="1.2921">
        <ele>162.6</ele>
        <time>2023-10-12T07:40:03Z</time>
      </trkpt>
      <trkpt lat="44.43227" lon="1.29208">
        <ele>160</ele>
        <time>2023-10-12T07:40:08Z</time>
      </trkpt>
      <trkpt lat="44.43226" lon="1.29199">
        <ele>158.9</ele>
        <time>2023-10-12T07:40:10Z</time>
      </trkpt>
      <trkpt lat="44.43229" lon="1.29203">
        <ele>159.6</ele>
        <time>2023-10-12T07:40:11Z</time>
      </trkpt>
      <trkpt lat="44.43229" lon="1.29207">
        <ele>160.2</ele>
        <time>2023-10-12T07:40:12Z</time>
      </trkpt>
      <trkpt lat="44.43233" lon="1.29221">
        <ele>164.3</ele>
        <time>2023-10-12T07:40:21Z</time>
      </trkpt>
      <trkpt lat="44.43231" lon="1.29232">
        <ele>164.7</ele>
        <time>2023-10-12T07:40:28Z</time>
      </trkpt>
      <trkpt lat="44.4323" lon="1.29233">
        <ele>164.5</ele>
        <time>2023-10-12T07:40:29Z</time>
      </trkpt>
      <trkpt lat="44.43226" lon="1.29237">
        <ele>164.5</ele>
        <time>2023-10-12T07:40:34Z</time>
      </trkpt>
      <trkpt lat="44.43225" lon="1.29239">
        <ele>166</ele>
        <time>2023-10-12T07:40:35Z</time>
      </trkpt>
      <trkpt lat="44.43218" lon="1.29248">
        <ele>166.4</ele>
        <time>2023-10-12T07:40:42Z</time>
      </trkpt>
      <trkpt lat="44.43217" lon="1.29248">
        <ele>166.6</ele>
        <time>2023-10-12T07:40:43Z</time>
      </trkpt>
      <trkpt lat="44.43215" lon="1.29252">
        <ele>169.5</ele>
        <time>2023-10-12T07:40:47Z</time>
      </trkpt>
      <trkpt lat="44.43204" lon="1.29264">
        <ele>169.9</ele>
        <time>2023-10-12T07:41:00Z</time>
      </trkpt>
      <trkpt lat="44.43203" lon="1.29265">
        <ele>169.6</ele>
        <time>2023-10-12T07:41:01Z</time>
      </trkpt>
      <trkpt lat="44.43197" lon="1.29276">
        <ele>168.7</ele>
        <time>2023-10-12T07:41:11Z</time>
      </trkpt>
      <trkpt lat="44.43196" lon="1.29281">
        <ele>168.9</ele>
        <time>2023-10-12T07:41:15Z</time>
      </trkpt>
      <trkpt lat="44.43194" lon="1.29283">
        <ele>169.4</ele>
        <time>2023-10-12T07:41:18Z</time>
      </trkpt>
      <trkpt lat="44.43193" lon="1.29284">
        <ele>169.2</ele>
        <time>2023-10-12T07:41:19Z</time>
      </trkpt>
      <trkpt lat="44.43186" lon="1.29298">
        <ele>170</ele>
        <time>2023-10-12T07:41:29Z</time>
      </trkpt>
      <trkpt lat="44.43189" lon="1.29297">
        <ele>170.4</ele>
        <time>2023-10-12T07:41:30Z</time>
      </trkpt>
      <trkpt lat="44.43186" lon="1.29298">
        <ele>168.9</ele>
        <time>2023-10-12T07:41:34Z</time>
      </trkpt>
      <trkpt lat="44.43185" lon="1.29298">
        <ele>168.6</ele>
        <time>2023-10-12T07:41:35Z</time>
      </trkpt>
      <trkpt lat="44.43176" lon="1.29305">
        <ele>168.4</ele>
        <time>2023-10-12T07:41:44Z</time>
      </trkpt>
      <trkpt lat="44.43171" lon="1.29314">
        <ele>170.3</ele>
        <time>2023-10-12T07:41:51Z</time>
      </trkpt>
      <trkpt lat="44.4317" lon="1.29314">
        <ele>169.4</ele>
        <time>2023-10-12T07:41:52Z</time>
      </trkpt>
      <trkpt lat="44.43163" lon="1.29321">
        <ele>169.6</ele>
        <time>2023-10-12T07:42:00Z</time>
      </trkpt>
      <trkpt lat="44.43158" lon="1.29328">
        <ele>173.2</ele>
        <time>2023-10-12T07:42:07Z</time>
      </trkpt>
      <trkpt lat="44.43156" lon="1.2933">
        <ele>168.8</ele>
        <time>2023-10-12T07:42:09Z</time>
      </trkpt>
      <trkpt lat="44.43155" lon="1.29329">
        <ele>169.2</ele>
        <time>2023-10-12T07:42:10Z</time>
      </trkpt>
      <trkpt lat="44.43154" lon="1.29328">
        <ele>169.7</ele>
        <time>2023-10-12T07:42:11Z</time>
      </trkpt>
      <trkpt lat="44.43153" lon="1.29328">
        <ele>169.7</ele>
        <time>2023-10-12T07:42:12Z</time>
      </trkpt>
      <trkpt lat="44.43149" lon="1.29339">
        <ele>172.8</ele>
        <time>2023-10-12T07:42:20Z</time>
      </trkpt>
      <trkpt lat="44.43144" lon="1.29347">
        <ele>171</ele>
        <time>2023-10-12T07:42:27Z</time>
      </trkpt>
      <trkpt lat="44.43143" lon="1.29348">
        <ele>170.9</ele>
        <time>2023-10-12T07:42:28Z</time>
      </trkpt>
      <trkpt lat="44.43142" lon="1.29349">
        <ele>171.4</ele>
        <time>2023-10-12T07:42:29Z</time>
      </trkpt>
      <trkpt lat="44.43144" lon="1.29346">
        <ele>169.5</ele>
        <time>2023-10-12T07:42:31Z</time>
      </trkpt>
      <trkpt lat="44.43143" lon="1.29349">
        <ele>173.6</ele>
        <time>2023-10-12T07:42:43Z</time>
      </trkpt>
      <trkpt lat="44.43139" lon="1.29354">
        <ele>172.2</ele>
        <time>2023-10-12T07:42:46Z</time>
      </trkpt>
      <trkpt lat="44.43137" lon="1.29365">
        <ele>174</ele>
        <time>2023-10-12T07:42:54Z</time>
      </trkpt>
      <trkpt lat="44.43137" lon="1.29367">
        <ele>175.1</ele>
        <time>2023-10-12T07:42:55Z</time>
      </trkpt>
      <trkpt lat="44.43136" lon="1.29371">
        <ele>175.7</ele>
        <time>2023-10-12T07:42:58Z</time>
      </trkpt>
      <trkpt lat="44.43131" lon="1.29381">
        <ele>172.1</ele>
        <time>2023-10-12T07:43:06Z</time>
      </trkpt>
      <trkpt lat="44.43128" lon="1.29383">
        <ele>171.7</ele>
        <time>2023-10-12T07:43:09Z</time>
      </trkpt>
      <trkpt lat="44.43126" lon="1.29384">
        <ele>172.3</ele>
        <time>2023-10-12T07:43:10Z</time>
      </trkpt>
      <trkpt lat="44.43119" lon="1.29388">
        <ele>170.7</ele>
        <time>2023-10-12T07:43:17Z</time>
      </trkpt>
      <trkpt lat="44.43111" lon="1.29399">
        <ele>175.4</ele>
        <time>2023-10-12T07:43:27Z</time>
      </trkpt>
      <trkpt lat="44.43111" lon="1.294">
        <ele>176.4</ele>
        <time>2023-10-12T07:43:28Z</time>
      </trkpt>
      <trkpt lat="44.43109" lon="1.294">
        <ele>176.1</ele>
        <time>2023-10-12T07:43:33Z</time>
      </trkpt>
      <trkpt lat="44.43108" lon="1.29402">
        <ele>176.6</ele>
        <time>2023-10-12T07:43:34Z</time>
      </trkpt>
      <trkpt lat="44.43104" lon="1.29404">
        <ele>176</ele>
        <time>2023-10-12T07:43:37Z</time>
      </trkpt>
      <trkpt lat="44.43098" lon="1.2941">
        <ele>177.8</ele>
        <time>2023-10-12T07:43:47Z</time>
      </trkpt>
      <trkpt lat="44.43097" lon="1.29411">
        <ele>177.2</ele>
        <time>2023-10-12T07:43:48Z</time>
      </trkpt>
      <trkpt lat="44.43093" lon="1.29411">
        <ele>180.3</ele>
        <time>2023-10-12T07:43:52Z</time>
      </trkpt>
      <trkpt lat="44.43091" lon="1.2941">
        <ele>179</ele>
        <time>2023-10-12T07:43:55Z</time>
      </trkpt>
      <trkpt lat="44.4309" lon="1.29413">
        <ele>173.2</ele>
        <time>2023-10-12T07:44:04Z</time>
      </trkpt>
      <trkpt lat="44.43093" lon="1.29417">
        <ele>171</ele>
        <time>2023-10-12T07:44:07Z</time>
      </trkpt>
      <trkpt lat="44.43092" lon="1.29419">
        <ele>171.3</ele>
        <time>2023-10-12T07:44:15Z</time>
      </trkpt>
      <trkpt lat="44.43089" lon="1.29419">
        <ele>172</ele>
        <time>2023-10-12T07:44:18Z</time>
      </trkpt>
      <trkpt lat="44.43088" lon="1.2942">
        <ele>172.1</ele>
        <time>2023-10-12T07:44:19Z</time>
      </trkpt>
      <trkpt lat="44.43081" lon="1.29424">
        <ele>173.3</ele>
        <time>2023-10-12T07:44:29Z</time>
      </trkpt>
      <trkpt lat="44.4308" lon="1.29428">
        <ele>171.8</ele>
        <time>2023-10-12T07:44:30Z</time>
      </trkpt>
      <trkpt lat="44.43078" lon="1.29427">
        <ele>170.2</ele>
        <time>2023-10-12T07:44:35Z</time>
      </trkpt>
      <trkpt lat="44.43076" lon="1.29429">
        <ele>171</ele>
        <time>2023-10-12T07:44:40Z</time>
      </trkpt>
      <trkpt lat="44.43073" lon="1.29426">
        <ele>171.2</ele>
        <time>2023-10-12T07:44:42Z</time>
      </trkpt>
      <trkpt lat="44.43073" lon="1.29428">
        <ele>169.9</ele>
        <time>2023-10-12T07:44:43Z</time>
      </trkpt>
      <trkpt lat="44.43074" lon="1.2943">
        <ele>170.5</ele>
        <time>2023-10-12T07:44:44Z</time>
      </trkpt>
      <trkpt lat="44.4307" lon="1.29435">
        <ele>171.2</ele>
        <time>2023-10-12T07:44:47Z</time>
      </trkpt>
      <trkpt lat="44.43069" lon="1.29442">
        <ele>169</ele>
        <time>2023-10-12T07:44:50Z</time>
      </trkpt>
      <trkpt lat="44.43065" lon="1.29444">
        <ele>172</ele>
        <time>2023-10-12T07:44:58Z</time>
      </trkpt>
      <trkpt lat="44.43066" lon="1.29446">
        <ele>170.3</ele>
        <time>2023-10-12T07:44:59Z</time>
      </trkpt>
      <trkpt lat="44.43066" lon="1.29448">
        <ele>170.7</ele>
        <time>2023-10-12T07:45:00Z</time>
      </trkpt>
      <trkpt lat="44.43057" lon="1.29447">
        <ele>169.9</ele>
        <time>2023-10-12T07:45:09Z</time>
      </trkpt>
      <trkpt lat="44.43055" lon="1.29449">
        <ele>170.2</ele>
        <time>2023-10-12T07:45:11Z</time>
      </trkpt>
      <trkpt lat="44.43054" lon="1.29453">
        <ele>170.2</ele>
        <time>2023-10-12T07:45:14Z</time>
      </trkpt>
      <trkpt lat="44.43053" lon="1.29455">
        <ele>171.7</ele>
        <time>2023-10-12T07:45:15Z</time>
      </trkpt>
      <trkpt lat="44.43054" lon="1.29459">
        <ele>172.6</ele>
        <time>2023-10-12T07:45:19Z</time>
      </trkpt>
      <trkpt lat="44.43053" lon="1.29468">
        <ele>173.8</ele>
        <time>2023-10-12T07:45:29Z</time>
      </trkpt>
      <trkpt lat="44.43052" lon="1.29461">
        <ele>171.9</ele>
        <time>2023-10-12T07:45:30Z</time>
      </trkpt>
      <trkpt lat="44.43049" lon="1.29463">
        <ele>172.2</ele>
        <time>2023-10-12T07:45:35Z</time>
      </trkpt>
      <trkpt lat="44.43046" lon="1.29461">
        <ele>171.7</ele>
        <time>2023-10-12T07:45:36Z</time>
      </trkpt>
      <trkpt lat="44.43046" lon="1.29462">
        <ele>170.8</ele>
        <time>2023-10-12T07:45:37Z</time>
      </trkpt>
      <trkpt lat="44.43039" lon="1.29474">
        <ele>173.6</ele>
        <time>2023-10-12T07:45:50Z</time>
      </trkpt>
      <trkpt lat="44.43038" lon="1.29481">
        <ele>174.2</ele>
        <time>2023-10-12T07:45:55Z</time>
      </trkpt>
      <trkpt lat="44.43037" lon="1.29482">
        <ele>175.3</ele>
        <time>2023-10-12T07:45:56Z</time>
      </trkpt>
      <trkpt lat="44.43036" lon="1.29483">
        <ele>177</ele>
        <time>2023-10-12T07:45:57Z</time>
      </trkpt>
      <trkpt lat="44.4303" lon="1.29485">
        <ele>173.1</ele>
        <time>2023-10-12T07:46:06Z</time>
      </trkpt>
      <trkpt lat="44.43028" lon="1.29483">
        <ele>178.8</ele>
        <time>2023-10-12T07:46:12Z</time>
      </trkpt>
      <trkpt lat="44.43026" lon="1.29484">
        <ele>178.3</ele>
        <time>2023-10-12T07:46:19Z</time>
      </trkpt>
      <trkpt lat="44.43024" lon="1.29491">
        <ele>174.9</ele>
        <time>2023-10-12T07:46:24Z</time>
      </trkpt>
      <trkpt lat="44.43023" lon="1.29492">
        <ele>174.9</ele>
        <time>2023-10-12T07:46:25Z</time>
      </trkpt>
      <trkpt lat="44.4302" lon="1.29496">
        <ele>173.5</ele>
        <time>2023-10-12T07:46:29Z</time>
      </trkpt>
      <trkpt lat="44.43021" lon="1.29499">
        <ele>171.8</ele>
        <time>2023-10-12T07:46:30Z</time>
      </trkpt>
      <trkpt lat="44.43018" lon="1.29498">
        <ele>172.1</ele>
        <time>2023-10-12T07:46:36Z</time>
      </trkpt>
      <trkpt lat="44.43013" lon="1.29499">
        <ele>171.1</ele>
        <time>2023-10-12T07:46:39Z</time>
      </trkpt>
      <trkpt lat="44.4301" lon="1.29502">
        <ele>170.9</ele>
        <time>2023-10-12T07:46:40Z</time>
      </trkpt>
      <trkpt lat="44.43009" lon="1.29504">
        <ele>171.6</ele>
        <time>2023-10-12T07:46:41Z</time>
      </trkpt>
      <trkpt lat="44.43007" lon="1.29503">
        <ele>172.5</ele>
        <time>2023-10-12T07:46:42Z</time>
      </trkpt>
      <trkpt lat="44.43005" lon="1.29504">
        <ele>172.6</ele>
        <time>2023-10-12T07:46:46Z</time>
      </trkpt>
      <trkpt lat="44.43002" lon="1.29509">
        <ele>173</ele>
        <time>2023-10-12T07:46:58Z</time>
      </trkpt>
      <trkpt lat="44.42999" lon="1.2951">
        <ele>175.6</ele>
        <time>2023-10-12T07:47:01Z</time>
      </trkpt>
      <trkpt lat="44.42996" lon="1.29517">
        <ele>172.7</ele>
        <time>2023-10-12T07:47:08Z</time>
      </trkpt>
      <trkpt lat="44.42995" lon="1.29518">
        <ele>171.4</ele>
        <time>2023-10-12T07:47:09Z</time>
      </trkpt>
      <trkpt lat="44.42993" lon="1.29523">
        <ele>170.9</ele>
        <time>2023-10-12T07:47:14Z</time>
      </trkpt>
      <trkpt lat="44.42988" lon="1.29525">
        <ele>169.7</ele>
        <time>2023-10-12T07:47:19Z</time>
      </trkpt>
      <trkpt lat="44.42982" lon="1.29532">
        <ele>172.1</ele>
        <time>2023-10-12T07:47:29Z</time>
      </trkpt>
      <trkpt lat="44.42986" lon="1.29536">
        <ele>172.2</ele>
        <time>2023-10-12T07:47:30Z</time>
      </trkpt>
      <trkpt lat="44.42981" lon="1.29543">
        <ele>173.7</ele>
        <time>2023-10-12T07:47:38Z</time>
      </trkpt>
      <trkpt lat="44.42979" lon="1.29541">
        <ele>174.2</ele>
        <time>2023-10-12T07:47:39Z</time>
      </trkpt>
      <trkpt lat="44.42976" lon="1.29542">
        <ele>175.6</ele>
        <time>2023-10-12T07:47:41Z</time>
      </trkpt>
      <trkpt lat="44.42972" lon="1.29547">
        <ele>176.3</ele>
        <time>2023-10-12T07:47:46Z</time>
      </trkpt>
      <trkpt lat="44.42972" lon="1.29547">
        <ele>176.3</ele>
        <time>2023-10-12T07:47:47Z</time>
      </trkpt>
      <trkpt lat="44.42968" lon="1.29549">
        <ele>176.9</ele>
        <time>2023-10-12T07:47:52Z</time>
      </trkpt>
      <trkpt lat="44.42966" lon="1.2955">
        <ele>175.2</ele>
        <time>2023-10-12T07:47:57Z</time>
      </trkpt>
      <trkpt lat="44.42961" lon="1.2956">
        <ele>174.6</ele>
        <time>2023-10-12T07:48:07Z</time>
      </trkpt>
      <trkpt lat="44.42958" lon="1.29561">
        <ele>175.1</ele>
        <time>2023-10-12T07:48:11Z</time>
      </trkpt>
      <trkpt lat="44.42957" lon="1.29561">
        <ele>175</ele>
        <time>2023-10-12T07:48:12Z</time>
      </trkpt>
      <trkpt lat="44.42954" lon="1.29562">
        <ele>176.2</ele>
        <time>2023-10-12T07:48:15Z</time>
      </trkpt>
      <trkpt lat="44.42945" lon="1.29569">
        <ele>171.8</ele>
        <time>2023-10-12T07:48:27Z</time>
      </trkpt>
      <trkpt lat="44.42944" lon="1.29569">
        <ele>174.7</ele>
        <time>2023-10-12T07:48:29Z</time>
      </trkpt>
      <trkpt lat="44.42949" lon="1.29567">
        <ele>171.8</ele>
        <time>2023-10-12T07:48:30Z</time>
      </trkpt>
      <trkpt lat="44.42948" lon="1.29568">
        <ele>170.9</ele>
        <time>2023-10-12T07:48:31Z</time>
      </trkpt>
      <trkpt lat="44.42945" lon="1.29567">
        <ele>171.5</ele>
        <time>2023-10-12T07:48:33Z</time>
      </trkpt>
      <trkpt lat="44.42942" lon="1.29572">
        <ele>171.3</ele>
        <time>2023-10-12T07:48:36Z</time>
      </trkpt>
      <trkpt lat="44.42933" lon="1.2957">
        <ele>172.2</ele>
        <time>2023-10-12T07:48:43Z</time>
      </trkpt>
      <trkpt lat="44.42932" lon="1.29571">
        <ele>172.7</ele>
        <time>2023-10-12T07:48:44Z</time>
      </trkpt>
      <trkpt lat="44.42921" lon="1.29572">
        <ele>174</ele>
        <time>2023-10-12T07:48:51Z</time>
      </trkpt>
      <trkpt lat="44.42916" lon="1.29576">
        <ele>176</ele>
        <time>2023-10-12T07:48:56Z</time>
      </trkpt>
      <trkpt lat="44.42916" lon="1.29576">
        <ele>175.8</ele>
        <time>2023-10-12T07:48:57Z</time>
      </trkpt>
      <trkpt lat="44.42908" lon="1.2958">
        <ele>175.5</ele>
        <time>2023-10-12T07:49:08Z</time>
      </trkpt>
      <trkpt lat="44.42899" lon="1.29582">
        <ele>177.6</ele>
        <time>2023-10-12T07:49:29Z</time>
      </trkpt>
      <trkpt lat="44.42904" lon="1.29583">
        <ele>171.7</ele>
        <time>2023-10-12T07:49:30Z</time>
      </trkpt>
      <trkpt lat="44.42903" lon="1.29583">
        <ele>171</ele>
        <time>2023-10-12T07:49:31Z</time>
      </trkpt>
      <trkpt lat="44.42905" lon="1.29586">
        <ele>171.6</ele>
        <time>2023-10-12T07:49:33Z</time>
      </trkpt>
      <trkpt lat="44.42903" lon="1.29587">
        <ele>172.5</ele>
        <time>2023-10-12T07:49:35Z</time>
      </trkpt>
      <trkpt lat="44.42901" lon="1.29587">
        <ele>171.3</ele>
        <time>2023-10-12T07:49:36Z</time>
      </trkpt>
      <trkpt lat="44.42899" lon="1.29585">
        <ele>171</ele>
        <time>2023-10-12T07:49:37Z</time>
      </trkpt>
      <trkpt lat="44.42897" lon="1.29588">
        <ele>171.3</ele>
        <time>2023-10-12T07:49:38Z</time>
      </trkpt>
      <trkpt lat="44.42892" lon="1.29587">
        <ele>172.2</ele>
        <time>2023-10-12T07:49:41Z</time>
      </trkpt>
      <trkpt lat="44.42891" lon="1.29587">
        <ele>174.3</ele>
        <time>2023-10-12T07:49:42Z</time>
      </trkpt>
      <trkpt lat="44.42887" lon="1.29587">
        <ele>174</ele>
        <time>2023-10-12T07:49:55Z</time>
      </trkpt>
      <trkpt lat="44.42879" lon="1.29578">
        <ele>174.3</ele>
        <time>2023-10-12T07:50:04Z</time>
      </trkpt>
      <trkpt lat="44.42878" lon="1.29577">
        <ele>174.5</ele>
        <time>2023-10-12T07:50:05Z</time>
      </trkpt>
      <trkpt lat="44.42877" lon="1.29573">
        <ele>173.2</ele>
        <time>2023-10-12T07:50:08Z</time>
      </trkpt>
      <trkpt lat="44.42871" lon="1.29568">
        <ele>175.9</ele>
        <time>2023-10-12T07:50:15Z</time>
      </trkpt>
      <trkpt lat="44.42866" lon="1.29559">
        <ele>174.7</ele>
        <time>2023-10-12T07:50:25Z</time>
      </trkpt>
      <trkpt lat="44.42866" lon="1.29559">
        <ele>174.5</ele>
        <time>2023-10-12T07:50:26Z</time>
      </trkpt>
      <trkpt lat="44.42864" lon="1.29558">
        <ele>172.2</ele>
        <time>2023-10-12T07:50:29Z</time>
      </trkpt>
      <trkpt lat="44.42862" lon="1.29559">
        <ele>172.8</ele>
        <time>2023-10-12T07:50:33Z</time>
      </trkpt>
      <trkpt lat="44.4286" lon="1.29554">
        <ele>174.2</ele>
        <time>2023-10-12T07:50:36Z</time>
      </trkpt>
      <trkpt lat="44.42852" lon="1.29551">
        <ele>173.8</ele>
        <time>2023-10-12T07:50:44Z</time>
      </trkpt>
      <trkpt lat="44.42851" lon="1.2955">
        <ele>174.6</ele>
        <time>2023-10-12T07:50:45Z</time>
      </trkpt>
      <trkpt lat="44.42849" lon="1.29546">
        <ele>174.2</ele>
        <time>2023-10-12T07:50:48Z</time>
      </trkpt>
      <trkpt lat="44.42849" lon="1.29543">
        <ele>175.7</ele>
        <time>2023-10-12T07:50:50Z</time>
      </trkpt>
      <trkpt lat="44.42851" lon="1.29541">
        <ele>178.7</ele>
        <time>2023-10-12T07:51:11Z</time>
      </trkpt>
      <trkpt lat="44.42853" lon="1.29541">
        <ele>178.3</ele>
        <time>2023-10-12T07:51:13Z</time>
      </trkpt>
      <trkpt lat="44.42854" lon="1.29544">
        <ele>177.8</ele>
        <time>2023-10-12T07:51:15Z</time>
      </trkpt>
      <trkpt lat="44.42856" lon="1.29544">
        <ele>174.7</ele>
        <time>2023-10-12T07:51:17Z</time>
      </trkpt>
      <trkpt lat="44.42855" lon="1.29541">
        <ele>171.8</ele>
        <time>2023-10-12T07:51:21Z</time>
      </trkpt>
      <trkpt lat="44.42854" lon="1.29541">
        <ele>171.8</ele>
        <time>2023-10-12T07:51:22Z</time>
      </trkpt>
      <trkpt lat="44.42853" lon="1.29541">
        <ele>172.1</ele>
        <time>2023-10-12T07:51:23Z</time>
      </trkpt>
      <trkpt lat="44.42847" lon="1.29543">
        <ele>172.1</ele>
        <time>2023-10-12T07:51:26Z</time>
      </trkpt>
      <trkpt lat="44.4284" lon="1.2954">
        <ele>171.9</ele>
        <time>2023-10-12T07:51:29Z</time>
      </trkpt>
      <trkpt lat="44.42834" lon="1.2954">
        <ele>175.3</ele>
        <time>2023-10-12T07:51:30Z</time>
      </trkpt>
      <trkpt lat="44.4283" lon="1.29541">
        <ele>175.5</ele>
        <time>2023-10-12T07:51:35Z</time>
      </trkpt>
      <trkpt lat="44.4283" lon="1.29541">
        <ele>176</ele>
        <time>2023-10-12T07:51:36Z</time>
      </trkpt>
      <trkpt lat="44.42828" lon="1.29541">
        <ele>175.5</ele>
        <time>2023-10-12T07:51:38Z</time>
      </trkpt>
      <trkpt lat="44.42821" lon="1.29544">
        <ele>176.3</ele>
        <time>2023-10-12T07:51:41Z</time>
      </trkpt>
      <trkpt lat="44.42816" lon="1.29544">
        <ele>179.4</ele>
        <time>2023-10-12T07:51:43Z</time>
      </trkpt>
      <trkpt lat="44.42813" lon="1.29542">
        <ele>178.1</ele>
        <time>2023-10-12T07:51:45Z</time>
      </trkpt>
      <trkpt lat="44.42812" lon="1.29541">
        <ele>180.7</ele>
        <time>2023-10-12T07:51:46Z</time>
      </trkpt>
      <trkpt lat="44.42808" lon="1.29537">
        <ele>179.7</ele>
        <time>2023-10-12T07:51:49Z</time>
      </trkpt>
      <trkpt lat="44.42801" lon="1.29536">
        <ele>180.4</ele>
        <time>2023-10-12T07:51:55Z</time>
      </trkpt>
      <trkpt lat="44.42799" lon="1.29538">
        <ele>179.5</ele>
        <time>2023-10-12T07:51:57Z</time>
      </trkpt>
      <trkpt lat="44.42796" lon="1.29537">
        <ele>180.9</ele>
        <time>2023-10-12T07:52:00Z</time>
      </trkpt>
      <trkpt lat="44.42795" lon="1.29536">
        <ele>180.1</ele>
        <time>2023-10-12T07:52:01Z</time>
      </trkpt>
      <trkpt lat="44.42788" lon="1.29531">
        <ele>176.2</ele>
        <time>2023-10-12T07:52:10Z</time>
      </trkpt>
      <trkpt lat="44.42781" lon="1.2953">
        <ele>165.1</ele>
        <time>2023-10-12T07:52:22Z</time>
      </trkpt>
      <trkpt lat="44.4278" lon="1.29529">
        <ele>165.1</ele>
        <time>2023-10-12T07:52:23Z</time>
      </trkpt>
      <trkpt lat="44.42774" lon="1.29529">
        <ele>166</ele>
        <time>2023-10-12T07:52:29Z</time>
      </trkpt>
      <trkpt lat="44.42773" lon="1.29538">
        <ele>165.4</ele>
        <time>2023-10-12T07:52:30Z</time>
      </trkpt>
      <trkpt lat="44.42765" lon="1.29535">
        <ele>169.5</ele>
        <time>2023-10-12T07:52:36Z</time>
      </trkpt>
      <trkpt lat="44.42763" lon="1.29536">
        <ele>173</ele>
        <time>2023-10-12T07:52:37Z</time>
      </trkpt>
      <trkpt lat="44.42762" lon="1.29537">
        <ele>173.5</ele>
        <time>2023-10-12T07:52:38Z</time>
      </trkpt>
      <trkpt lat="44.42759" lon="1.29539">
        <ele>176</ele>
        <time>2023-10-12T07:52:39Z</time>
      </trkpt>
      <trkpt lat="44.42757" lon="1.29538">
        <ele>175.8</ele>
        <time>2023-10-12T07:52:42Z</time>
      </trkpt>
      <trkpt lat="44.42747" lon="1.29535">
        <ele>178</ele>
        <time>2023-10-12T07:52:55Z</time>
      </trkpt>
      <trkpt lat="44.42744" lon="1.29532">
        <ele>173.3</ele>
        <time>2023-10-12T07:52:58Z</time>
      </trkpt>
      <trkpt lat="44.42743" lon="1.29532">
        <ele>174.7</ele>
        <time>2023-10-12T07:52:59Z</time>
      </trkpt>
      <trkpt lat="44.42738" lon="1.2953">
        <ele>176.7</ele>
        <time>2023-10-12T07:53:03Z</time>
      </trkpt>
      <trkpt lat="44.42733" lon="1.29531">
        <ele>178.5</ele>
        <time>2023-10-12T07:53:07Z</time>
      </trkpt>
      <trkpt lat="44.42732" lon="1.29534">
        <ele>177</ele>
        <time>2023-10-12T07:53:10Z</time>
      </trkpt>
      <trkpt lat="44.42729" lon="1.29536">
        <ele>173.5</ele>
        <time>2023-10-12T07:53:14Z</time>
      </trkpt>
      <trkpt lat="44.42728" lon="1.29536">
        <ele>171.6</ele>
        <time>2023-10-12T07:53:15Z</time>
      </trkpt>
      <trkpt lat="44.42723" lon="1.29539">
        <ele>175.9</ele>
        <time>2023-10-12T07:53:21Z</time>
      </trkpt>
      <trkpt lat="44.42718" lon="1.29539">
        <ele>172</ele>
        <time>2023-10-12T07:53:26Z</time>
      </trkpt>
      <trkpt lat="44.42716" lon="1.29536">
        <ele>172.3</ele>
        <time>2023-10-12T07:53:29Z</time>
      </trkpt>
      <trkpt lat="44.42717" lon="1.29541">
        <ele>170.8</ele>
        <time>2023-10-12T07:53:31Z</time>
      </trkpt>
      <trkpt lat="44.42717" lon="1.29539">
        <ele>171.1</ele>
        <time>2023-10-12T07:53:32Z</time>
      </trkpt>
      <trkpt lat="44.42718" lon="1.29532">
        <ele>171.8</ele>
        <time>2023-10-12T07:53:45Z</time>
      </trkpt>
      <trkpt lat="44.42717" lon="1.29531">
        <ele>172.8</ele>
        <time>2023-10-12T07:54:07Z</time>
      </trkpt>
      <trkpt lat="44.42715" lon="1.29531">
        <ele>172.2</ele>
        <time>2023-10-12T07:54:08Z</time>
      </trkpt>
      <trkpt lat="44.42714" lon="1.29527">
        <ele>174.6</ele>
        <time>2023-10-12T07:54:09Z</time>
      </trkpt>
      <trkpt lat="44.42712" lon="1.2953">
        <ele>172.6</ele>
        <time>2023-10-12T07:54:10Z</time>
      </trkpt>
      <trkpt lat="44.42707" lon="1.29531">
        <ele>173.3</ele>
        <time>2023-10-12T07:54:13Z</time>
      </trkpt>
      <trkpt lat="44.42706" lon="1.29531">
        <ele>172.3</ele>
        <time>2023-10-12T07:54:14Z</time>
      </trkpt>
      <trkpt lat="44.42699" lon="1.29534">
        <ele>175.4</ele>
        <time>2023-10-12T07:54:18Z</time>
      </trkpt>
      <trkpt lat="44.42698" lon="1.29537">
        <ele>175.7</ele>
        <time>2023-10-12T07:54:20Z</time>
      </trkpt>
      <trkpt lat="44.42696" lon="1.29538">
        <ele>177.5</ele>
        <time>2023-10-12T07:54:22Z</time>
      </trkpt>
      <trkpt lat="44.42689" lon="1.29536">
        <ele>175.1</ele>
        <time>2023-10-12T07:54:25Z</time>
      </trkpt>
      <trkpt lat="44.42688" lon="1.29537">
        <ele>174.3</ele>
        <time>2023-10-12T07:54:26Z</time>
      </trkpt>
      <trkpt lat="44.42684" lon="1.29537">
        <ele>174.2</ele>
        <time>2023-10-12T07:54:28Z</time>
      </trkpt>
      <trkpt lat="44.42683" lon="1.29535">
        <ele>171</ele>
        <time>2023-10-12T07:54:30Z</time>
      </trkpt>
      <trkpt lat="44.42681" lon="1.29535">
        <ele>170.2</ele>
        <time>2023-10-12T07:54:32Z</time>
      </trkpt>
      <trkpt lat="44.42674" lon="1.29545">
        <ele>169.7</ele>
        <time>2023-10-12T07:54:34Z</time>
      </trkpt>
      <trkpt lat="44.42668" lon="1.29543">
        <ele>177.3</ele>
        <time>2023-10-12T07:54:39Z</time>
      </trkpt>
      <trkpt lat="44.42666" lon="1.29543">
        <ele>179.4</ele>
        <time>2023-10-12T07:54:40Z</time>
      </trkpt>
      <trkpt lat="44.42662" lon="1.29544">
        <ele>179.1</ele>
        <time>2023-10-12T07:54:42Z</time>
      </trkpt>
      <trkpt lat="44.42659" lon="1.29547">
        <ele>182.5</ele>
        <time>2023-10-12T07:54:52Z</time>
      </trkpt>
      <trkpt lat="44.42655" lon="1.29549">
        <ele>183</ele>
        <time>2023-10-12T07:54:56Z</time>
      </trkpt>
      <trkpt lat="44.42653" lon="1.2955">
        <ele>181</ele>
        <time>2023-10-12T07:54:57Z</time>
      </trkpt>
      <trkpt lat="44.4265" lon="1.29549">
        <ele>183</ele>
        <time>2023-10-12T07:54:59Z</time>
      </trkpt>
      <trkpt lat="44.42648" lon="1.29548">
        <ele>185.1</ele>
        <time>2023-10-12T07:55:00Z</time>
      </trkpt>
      <trkpt lat="44.42645" lon="1.2955">
        <ele>182.5</ele>
        <time>2023-10-12T07:55:03Z</time>
      </trkpt>
      <trkpt lat="44.42643" lon="1.29548">
        <ele>183.4</ele>
        <time>2023-10-12T07:55:06Z</time>
      </trkpt>
      <trkpt lat="44.4264" lon="1.29548">
        <ele>181.5</ele>
        <time>2023-10-12T07:55:09Z</time>
      </trkpt>
      <trkpt lat="44.42638" lon="1.29554">
        <ele>180.6</ele>
        <time>2023-10-12T07:55:13Z</time>
      </trkpt>
      <trkpt lat="44.42637" lon="1.2956">
        <ele>181.2</ele>
        <time>2023-10-12T07:55:15Z</time>
      </trkpt>
      <trkpt lat="44.42636" lon="1.29562">
        <ele>181.1</ele>
        <time>2023-10-12T07:55:16Z</time>
      </trkpt>
      <trkpt lat="44.42633" lon="1.29567">
        <ele>180.2</ele>
        <time>2023-10-12T07:55:23Z</time>
      </trkpt>
      <trkpt lat="44.42634" lon="1.29569">
        <ele>183.8</ele>
        <time>2023-10-12T07:55:25Z</time>
      </trkpt>
      <trkpt lat="44.42631" lon="1.29568">
        <ele>184.8</ele>
        <time>2023-10-12T07:55:26Z</time>
      </trkpt>
      <trkpt lat="44.42627" lon="1.29564">
        <ele>186.4</ele>
        <time>2023-10-12T07:55:28Z</time>
      </trkpt>
      <trkpt lat="44.42626" lon="1.29564">
        <ele>186.6</ele>
        <time>2023-10-12T07:55:29Z</time>
      </trkpt>
      <trkpt lat="44.42624" lon="1.29556">
        <ele>184.9</ele>
        <time>2023-10-12T07:55:30Z</time>
      </trkpt>
      <trkpt lat="44.42624" lon="1.29559">
        <ele>184.9</ele>
        <time>2023-10-12T07:55:31Z</time>
      </trkpt>
      <trkpt lat="44.42624" lon="1.29557">
        <ele>185.3</ele>
        <time>2023-10-12T07:55:32Z</time>
      </trkpt>
      <trkpt lat="44.42622" lon="1.29558">
        <ele>186.7</ele>
        <time>2023-10-12T07:55:33Z</time>
      </trkpt>
      <trkpt lat="44.42615" lon="1.29556">
        <ele>188</ele>
        <time>2023-10-12T07:56:03Z</time>
      </trkpt>
      <trkpt lat="44.42613" lon="1.29558">
        <ele>187.7</ele>
        <time>2023-10-12T07:56:04Z</time>
      </trkpt>
      <trkpt lat="44.42609" lon="1.29557">
        <ele>185.5</ele>
        <time>2023-10-12T07:56:05Z</time>
      </trkpt>
      <trkpt lat="44.42603" lon="1.29557">
        <ele>187.8</ele>
        <time>2023-10-12T07:56:08Z</time>
      </trkpt>
      <trkpt lat="44.42603" lon="1.29559">
        <ele>186.1</ele>
        <time>2023-10-12T07:56:09Z</time>
      </trkpt>
      <trkpt lat="44.42596" lon="1.29559">
        <ele>185.8</ele>
        <time>2023-10-12T07:56:15Z</time>
      </trkpt>
      <trkpt lat="44.42591" lon="1.2956">
        <ele>187.5</ele>
        <time>2023-10-12T07:56:17Z</time>
      </trkpt>
      <trkpt lat="44.42586" lon="1.29557">
        <ele>189</ele>
        <time>2023-10-12T07:56:21Z</time>
      </trkpt>
      <trkpt lat="44.42585" lon="1.29556">
        <ele>188.1</ele>
        <time>2023-10-12T07:56:22Z</time>
      </trkpt>
      <trkpt lat="44.42574" lon="1.29553">
        <ele>188.5</ele>
        <time>2023-10-12T07:56:29Z</time>
      </trkpt>
      <trkpt lat="44.4257" lon="1.29555">
        <ele>189.3</ele>
        <time>2023-10-12T07:56:30Z</time>
      </trkpt>
      <trkpt lat="44.4257" lon="1.29555">
        <ele>189.4</ele>
        <time>2023-10-12T07:56:31Z</time>
      </trkpt>
      <trkpt lat="44.4257" lon="1.29555">
        <ele>189.2</ele>
        <time>2023-10-12T07:56:32Z</time>
      </trkpt>
      <trkpt lat="44.42569" lon="1.29555">
        <ele>188.6</ele>
        <time>2023-10-12T07:56:34Z</time>
      </trkpt>
      <trkpt lat="44.42557" lon="1.2955">
        <ele>185.7</ele>
        <time>2023-10-12T07:56:45Z</time>
      </trkpt>
      <trkpt lat="44.42556" lon="1.29549">
        <ele>185.3</ele>
        <time>2023-10-12T07:56:46Z</time>
      </trkpt>
      <trkpt lat="44.42551" lon="1.29548">
        <ele>187.1</ele>
        <time>2023-10-12T07:56:53Z</time>
      </trkpt>
      <trkpt lat="44.42544" lon="1.29551">
        <ele>188.4</ele>
        <time>2023-10-12T07:57:01Z</time>
      </trkpt>
      <trkpt lat="44.42542" lon="1.2955">
        <ele>187.2</ele>
        <time>2023-10-12T07:57:03Z</time>
      </trkpt>
      <trkpt lat="44.4254" lon="1.29548">
        <ele>184.9</ele>
        <time>2023-10-12T07:57:07Z</time>
      </trkpt>
      <trkpt lat="44.4254" lon="1.29548">
        <ele>183.9</ele>
        <time>2023-10-12T07:57:08Z</time>
      </trkpt>
      <trkpt lat="44.4254" lon="1.29551">
        <ele>187.4</ele>
        <time>2023-10-12T07:57:14Z</time>
      </trkpt>
      <trkpt lat="44.42535" lon="1.29549">
        <ele>191.6</ele>
        <time>2023-10-12T07:57:26Z</time>
      </trkpt>
      <trkpt lat="44.42525" lon="1.2955">
        <ele>189</ele>
        <time>2023-10-12T07:57:37Z</time>
      </trkpt>
      <trkpt lat="44.42524" lon="1.2955">
        <ele>188.1</ele>
        <time>2023-10-12T07:57:38Z</time>
      </trkpt>
      <trkpt lat="44.42516" lon="1.29547">
        <ele>185.8</ele>
        <time>2023-10-12T07:57:50Z</time>
      </trkpt>
      <trkpt lat="44.42512" lon="1.29548">
        <ele>185.7</ele>
        <time>2023-10-12T07:57:53Z</time>
      </trkpt>
      <trkpt lat="44.42507" lon="1.29552">
        <ele>189.1</ele>
        <time>2023-10-12T07:57:57Z</time>
      </trkpt>
      <trkpt lat="44.42506" lon="1.29553">
        <ele>188.8</ele>
        <time>2023-10-12T07:57:58Z</time>
      </trkpt>
      <trkpt lat="44.42501" lon="1.29555">
        <ele>186.5</ele>
        <time>2023-10-12T07:58:04Z</time>
      </trkpt>
      <trkpt lat="44.42496" lon="1.29554">
        <ele>180.2</ele>
        <time>2023-10-12T07:58:17Z</time>
      </trkpt>
      <trkpt lat="44.42498" lon="1.29554">
        <ele>177.6</ele>
        <time>2023-10-12T07:58:29Z</time>
      </trkpt>
      <trkpt lat="44.42507" lon="1.29558">
        <ele>181</ele>
        <time>2023-10-12T07:58:30Z</time>
      </trkpt>
      <trkpt lat="44.42502" lon="1.2956">
        <ele>182.2</ele>
        <time>2023-10-12T07:58:46Z</time>
      </trkpt>
      <trkpt lat="44.425" lon="1.29559">
        <ele>181.9</ele>
        <time>2023-10-12T07:58:47Z</time>
      </trkpt>
      <trkpt lat="44.42496" lon="1.29564">
        <ele>184.8</ele>
        <time>2023-10-12T07:58:52Z</time>
      </trkpt>
      <trkpt lat="44.4249" lon="1.29576">
        <ele>184</ele>
        <time>2023-10-12T07:59:00Z</time>
      </trkpt>
      <trkpt lat="44.42489" lon="1.29577">
        <ele>183.6</ele>
        <time>2023-10-12T07:59:01Z</time>
      </trkpt>
      <trkpt lat="44.42483" lon="1.29583">
        <ele>185.6</ele>
        <time>2023-10-12T07:59:08Z</time>
      </trkpt>
      <trkpt lat="44.42479" lon="1.29591">
        <ele>183.8</ele>
        <time>2023-10-12T07:59:14Z</time>
      </trkpt>
      <trkpt lat="44.42476" lon="1.29594">
        <ele>183.1</ele>
        <time>2023-10-12T07:59:17Z</time>
      </trkpt>
      <trkpt lat="44.42475" lon="1.29595">
        <ele>183</ele>
        <time>2023-10-12T07:59:18Z</time>
      </trkpt>
      <trkpt lat="44.42471" lon="1.29599">
        <ele>184.1</ele>
        <time>2023-10-12T07:59:23Z</time>
      </trkpt>
      <trkpt lat="44.42465" lon="1.29602">
        <ele>186</ele>
        <time>2023-10-12T07:59:29Z</time>
      </trkpt>
      <trkpt lat="44.42462" lon="1.29605">
        <ele>188.3</ele>
        <time>2023-10-12T07:59:30Z</time>
      </trkpt>
      <trkpt lat="44.4246" lon="1.29606">
        <ele>188.4</ele>
        <time>2023-10-12T07:59:32Z</time>
      </trkpt>
      <trkpt lat="44.42458" lon="1.29608">
        <ele>187.9</ele>
        <time>2023-10-12T07:59:33Z</time>
      </trkpt>
      <trkpt lat="44.42456" lon="1.29609">
        <ele>187.2</ele>
        <time>2023-10-12T07:59:34Z</time>
      </trkpt>
      <trkpt lat="44.42454" lon="1.29616">
        <ele>185.8</ele>
        <time>2023-10-12T07:59:39Z</time>
      </trkpt>
      <trkpt lat="44.42452" lon="1.29617">
        <ele>185</ele>
        <time>2023-10-12T07:59:41Z</time>
      </trkpt>
      <trkpt lat="44.42449" lon="1.29618">
        <ele>184.6</ele>
        <time>2023-10-12T07:59:43Z</time>
      </trkpt>
      <trkpt lat="44.42443" lon="1.29616">
        <ele>184.3</ele>
        <time>2023-10-12T07:59:47Z</time>
      </trkpt>
      <trkpt lat="44.42442" lon="1.29616">
        <ele>184.5</ele>
        <time>2023-10-12T07:59:48Z</time>
      </trkpt>
      <trkpt lat="44.42436" lon="1.29615">
        <ele>184.5</ele>
        <time>2023-10-12T07:59:53Z</time>
      </trkpt>
      <trkpt lat="44.42432" lon="1.29616">
        <ele>186.8</ele>
        <time>2023-10-12T07:59:56Z</time>
      </trkpt>
      <trkpt lat="44.42425" lon="1.29621">
        <ele>185</ele>
        <time>2023-10-12T08:00:02Z</time>
      </trkpt>
      <trkpt lat="44.42424" lon="1.29622">
        <ele>184.5</ele>
        <time>2023-10-12T08:00:03Z</time>
      </trkpt>
      <trkpt lat="44.42418" lon="1.29628">
        <ele>185.8</ele>
        <time>2023-10-12T08:00:10Z</time>
      </trkpt>
      <trkpt lat="44.42411" lon="1.29636">
        <ele>186.9</ele>
        <time>2023-10-12T08:00:19Z</time>
      </trkpt>
      <trkpt lat="44.4241" lon="1.29637">
        <ele>187.2</ele>
        <time>2023-10-12T08:00:20Z</time>
      </trkpt>
      <trkpt lat="44.42401" lon="1.29645">
        <ele>185.1</ele>
        <time>2023-10-12T08:00:29Z</time>
      </trkpt>
      <trkpt lat="44.42404" lon="1.29647">
        <ele>185.6</ele>
        <time>2023-10-12T08:00:30Z</time>
      </trkpt>
      <trkpt lat="44.424" lon="1.2965">
        <ele>185.7</ele>
        <time>2023-10-12T08:00:34Z</time>
      </trkpt>
      <trkpt lat="44.424" lon="1.29652">
        <ele>186.2</ele>
        <time>2023-10-12T08:00:35Z</time>
      </trkpt>
      <trkpt lat="44.42398" lon="1.29652">
        <ele>187.5</ele>
        <time>2023-10-12T08:00:36Z</time>
      </trkpt>
      <trkpt lat="44.42391" lon="1.29653">
        <ele>193.3</ele>
        <time>2023-10-12T08:00:55Z</time>
      </trkpt>
      <trkpt lat="44.4239" lon="1.29654">
        <ele>192.1</ele>
        <time>2023-10-12T08:01:29Z</time>
      </trkpt>
      <trkpt lat="44.42392" lon="1.2965">
        <ele>195.9</ele>
        <time>2023-10-12T08:01:30Z</time>
      </trkpt>
      <trkpt lat="44.42391" lon="1.29653">
        <ele>199</ele>
        <time>2023-10-12T08:01:38Z</time>
      </trkpt>
      <trkpt lat="44.4239" lon="1.29654">
        <ele>198.8</ele>
        <time>2023-10-12T08:01:40Z</time>
      </trkpt>
      <trkpt lat="44.42388" lon="1.29653">
        <ele>199.6</ele>
        <time>2023-10-12T08:01:44Z</time>
      </trkpt>
      <trkpt lat="44.42387" lon="1.29654">
        <ele>199.7</ele>
        <time>2023-10-12T08:01:45Z</time>
      </trkpt>
      <trkpt lat="44.42386" lon="1.29656">
        <ele>199.4</ele>
        <time>2023-10-12T08:01:46Z</time>
      </trkpt>
      <trkpt lat="44.42375" lon="1.29673">
        <ele>196.1</ele>
        <time>2023-10-12T08:02:02Z</time>
      </trkpt>
      <trkpt lat="44.42374" lon="1.29673">
        <ele>196</ele>
        <time>2023-10-12T08:02:03Z</time>
      </trkpt>
      <trkpt lat="44.4237" lon="1.29677">
        <ele>194.9</ele>
        <time>2023-10-12T08:02:11Z</time>
      </trkpt>
      <trkpt lat="44.42366" lon="1.29684">
        <ele>190.6</ele>
        <time>2023-10-12T08:02:26Z</time>
      </trkpt>
      <trkpt lat="44.42365" lon="1.29692">
        <ele>190.9</ele>
        <time>2023-10-12T08:02:35Z</time>
      </trkpt>
      <trkpt lat="44.42363" lon="1.29692">
        <ele>190.8</ele>
        <time>2023-10-12T08:02:36Z</time>
      </trkpt>
      <trkpt lat="44.42359" lon="1.29694">
        <ele>191.1</ele>
        <time>2023-10-12T08:03:22Z</time>
      </trkpt>
      <trkpt lat="44.42358" lon="1.29697">
        <ele>190.5</ele>
        <time>2023-10-12T08:03:25Z</time>
      </trkpt>
      <trkpt lat="44.42358" lon="1.29711">
        <ele>191.5</ele>
        <time>2023-10-12T08:03:33Z</time>
      </trkpt>
      <trkpt lat="44.42358" lon="1.29712">
        <ele>191.7</ele>
        <time>2023-10-12T08:03:34Z</time>
      </trkpt>
      <trkpt lat="44.42358" lon="1.29712">
        <ele>189.1</ele>
        <time>2023-10-12T08:03:35Z</time>
      </trkpt>
      <trkpt lat="44.42356" lon="1.29713">
        <ele>189.6</ele>
        <time>2023-10-12T08:03:37Z</time>
      </trkpt>
      <trkpt lat="44.42354" lon="1.29715">
        <ele>190.3</ele>
        <time>2023-10-12T08:03:39Z</time>
      </trkpt>
      <trkpt lat="44.42352" lon="1.29724">
        <ele>191.4</ele>
        <time>2023-10-12T08:03:47Z</time>
      </trkpt>
      <trkpt lat="44.42349" lon="1.29731">
        <ele>191.5</ele>
        <time>2023-10-12T08:03:54Z</time>
      </trkpt>
      <trkpt lat="44.42349" lon="1.29731">
        <ele>191.5</ele>
        <time>2023-10-12T08:03:55Z</time>
      </trkpt>
      <trkpt lat="44.42346" lon="1.29743">
        <ele>191.2</ele>
        <time>2023-10-12T08:04:06Z</time>
      </trkpt>
      <trkpt lat="44.42342" lon="1.29752">
        <ele>193.7</ele>
        <time>2023-10-12T08:04:12Z</time>
      </trkpt>
      <trkpt lat="44.42343" lon="1.29752">
        <ele>193.2</ele>
        <time>2023-10-12T08:04:13Z</time>
      </trkpt>
      <trkpt lat="44.42342" lon="1.29751">
        <ele>193.8</ele>
        <time>2023-10-12T08:04:14Z</time>
      </trkpt>
      <trkpt lat="44.42342" lon="1.29755">
        <ele>194</ele>
        <time>2023-10-12T08:04:27Z</time>
      </trkpt>
      <trkpt lat="44.4234" lon="1.29758">
        <ele>192.3</ele>
        <time>2023-10-12T08:04:41Z</time>
      </trkpt>
      <trkpt lat="44.42342" lon="1.29759">
        <ele>190.4</ele>
        <time>2023-10-12T08:05:00Z</time>
      </trkpt>
      <trkpt lat="44.42343" lon="1.29762">
        <ele>190.3</ele>
        <time>2023-10-12T08:05:04Z</time>
      </trkpt>
      <trkpt lat="44.42342" lon="1.29769">
        <ele>192.6</ele>
        <time>2023-10-12T08:05:15Z</time>
      </trkpt>
      <trkpt lat="44.42341" lon="1.29769">
        <ele>192</ele>
        <time>2023-10-12T08:05:16Z</time>
      </trkpt>
      <trkpt lat="44.4234" lon="1.2977">
        <ele>193.2</ele>
        <time>2023-10-12T08:05:17Z</time>
      </trkpt>
      <trkpt lat="44.42339" lon="1.29771">
        <ele>192.3</ele>
        <time>2023-10-12T08:05:18Z</time>
      </trkpt>
      <trkpt lat="44.42339" lon="1.29774">
        <ele>192.2</ele>
        <time>2023-10-12T08:05:28Z</time>
      </trkpt>
      <trkpt lat="44.42334" lon="1.29772">
        <ele>191.1</ele>
        <time>2023-10-12T08:05:43Z</time>
      </trkpt>
      <trkpt lat="44.42333" lon="1.2977">
        <ele>190.5</ele>
        <time>2023-10-12T08:05:46Z</time>
      </trkpt>
      <trkpt lat="44.42332" lon="1.29766">
        <ele>191.5</ele>
        <time>2023-10-12T08:05:50Z</time>
      </trkpt>
      <trkpt lat="44.42334" lon="1.29768">
        <ele>190.4</ele>
        <time>2023-10-12T08:06:10Z</time>
      </trkpt>
      <trkpt lat="44.42337" lon="1.29767">
        <ele>189.9</ele>
        <time>2023-10-12T08:06:15Z</time>
      </trkpt>
      <trkpt lat="44.42337" lon="1.29768">
        <ele>189.8</ele>
        <time>2023-10-12T08:06:16Z</time>
      </trkpt>
      <trkpt lat="44.42338" lon="1.29768">
        <ele>190.4</ele>
        <time>2023-10-12T08:06:17Z</time>
      </trkpt>
      <trkpt lat="44.42332" lon="1.29778">
        <ele>188.1</ele>
        <time>2023-10-12T08:07:10Z</time>
      </trkpt>
      <trkpt lat="44.4233" lon="1.2978">
        <ele>188.3</ele>
        <time>2023-10-12T08:07:12Z</time>
      </trkpt>
      <trkpt lat="44.42328" lon="1.2978">
        <ele>187.7</ele>
        <time>2023-10-12T08:07:14Z</time>
      </trkpt>
      <trkpt lat="44.42326" lon="1.29785">
        <ele>189.2</ele>
        <time>2023-10-12T08:07:18Z</time>
      </trkpt>
      <trkpt lat="44.42325" lon="1.29786">
        <ele>189.5</ele>
        <time>2023-10-12T08:07:19Z</time>
      </trkpt>
      <trkpt lat="44.42318" lon="1.29793">
        <ele>187.6</ele>
        <time>2023-10-12T08:07:27Z</time>
      </trkpt>
      <trkpt lat="44.42317" lon="1.29795">
        <ele>187.8</ele>
        <time>2023-10-12T08:07:28Z</time>
      </trkpt>
      <trkpt lat="44.42318" lon="1.29798">
        <ele>188.1</ele>
        <time>2023-10-12T08:07:33Z</time>
      </trkpt>
      <trkpt lat="44.42318" lon="1.29799">
        <ele>188.1</ele>
        <time>2023-10-12T08:07:34Z</time>
      </trkpt>
      <trkpt lat="44.42313" lon="1.29803">
        <ele>187.8</ele>
        <time>2023-10-12T08:07:40Z</time>
      </trkpt>
      <trkpt lat="44.42314" lon="1.29809">
        <ele>190.9</ele>
        <time>2023-10-12T08:07:47Z</time>
      </trkpt>
      <trkpt lat="44.42313" lon="1.29812">
        <ele>192.5</ele>
        <time>2023-10-12T08:07:49Z</time>
      </trkpt>
      <trkpt lat="44.4231" lon="1.29815">
        <ele>190.9</ele>
        <time>2023-10-12T08:07:51Z</time>
      </trkpt>
      <trkpt lat="44.42308" lon="1.29816">
        <ele>191.1</ele>
        <time>2023-10-12T08:07:52Z</time>
      </trkpt>
      <trkpt lat="44.42299" lon="1.29822">
        <ele>192.4</ele>
        <time>2023-10-12T08:07:57Z</time>
      </trkpt>
      <trkpt lat="44.42298" lon="1.29824">
        <ele>193.2</ele>
        <time>2023-10-12T08:07:58Z</time>
      </trkpt>
      <trkpt lat="44.423" lon="1.29829">
        <ele>191.6</ele>
        <time>2023-10-12T08:08:20Z</time>
      </trkpt>
      <trkpt lat="44.42299" lon="1.2983">
        <ele>191.1</ele>
        <time>2023-10-12T08:08:21Z</time>
      </trkpt>
      <trkpt lat="44.42296" lon="1.29835">
        <ele>190.3</ele>
        <time>2023-10-12T08:08:27Z</time>
      </trkpt>
      <trkpt lat="44.42297" lon="1.29838">
        <ele>194.8</ele>
        <time>2023-10-12T08:08:35Z</time>
      </trkpt>
      <trkpt lat="44.42297" lon="1.29842">
        <ele>193.3</ele>
        <time>2023-10-12T08:08:37Z</time>
      </trkpt>
      <trkpt lat="44.42292" lon="1.2985">
        <ele>193.1</ele>
        <time>2023-10-12T08:08:45Z</time>
      </trkpt>
      <trkpt lat="44.42292" lon="1.29851">
        <ele>193</ele>
        <time>2023-10-12T08:08:46Z</time>
      </trkpt>
      <trkpt lat="44.42285" lon="1.29859">
        <ele>193.7</ele>
        <time>2023-10-12T08:09:03Z</time>
      </trkpt>
      <trkpt lat="44.42288" lon="1.29857">
        <ele>193.4</ele>
        <time>2023-10-12T08:09:04Z</time>
      </trkpt>
      <trkpt lat="44.42285" lon="1.29862">
        <ele>191.9</ele>
        <time>2023-10-12T08:09:11Z</time>
      </trkpt>
      <trkpt lat="44.42284" lon="1.29864">
        <ele>192.8</ele>
        <time>2023-10-12T08:09:12Z</time>
      </trkpt>
      <trkpt lat="44.42281" lon="1.29866">
        <ele>193</ele>
        <time>2023-10-12T08:09:15Z</time>
      </trkpt>
      <trkpt lat="44.42278" lon="1.29871">
        <ele>191.1</ele>
        <time>2023-10-12T08:09:21Z</time>
      </trkpt>
      <trkpt lat="44.42277" lon="1.29874">
        <ele>191.8</ele>
        <time>2023-10-12T08:09:24Z</time>
      </trkpt>
      <trkpt lat="44.42277" lon="1.2988">
        <ele>191.2</ele>
        <time>2023-10-12T08:09:30Z</time>
      </trkpt>
      <trkpt lat="44.42275" lon="1.29886">
        <ele>190.2</ele>
        <time>2023-10-12T08:09:38Z</time>
      </trkpt>
      <trkpt lat="44.42275" lon="1.29889">
        <ele>190</ele>
        <time>2023-10-12T08:09:39Z</time>
      </trkpt>
      <trkpt lat="44.42271" lon="1.29895">
        <ele>191.9</ele>
        <time>2023-10-12T08:09:46Z</time>
      </trkpt>
      <trkpt lat="44.4227" lon="1.299">
        <ele>191.6</ele>
        <time>2023-10-12T08:09:50Z</time>
      </trkpt>
      <trkpt lat="44.42267" lon="1.29905">
        <ele>194</ele>
        <time>2023-10-12T08:09:55Z</time>
      </trkpt>
      <trkpt lat="44.42264" lon="1.29907">
        <ele>194.3</ele>
        <time>2023-10-12T08:10:01Z</time>
      </trkpt>
      <trkpt lat="44.42264" lon="1.29907">
        <ele>193.3</ele>
        <time>2023-10-12T08:10:02Z</time>
      </trkpt>
      <trkpt lat="44.42258" lon="1.29908">
        <ele>194.7</ele>
        <time>2023-10-12T08:10:08Z</time>
      </trkpt>
      <trkpt lat="44.42254" lon="1.29907">
        <ele>195</ele>
        <time>2023-10-12T08:10:14Z</time>
      </trkpt>
      <trkpt lat="44.42247" lon="1.29914">
        <ele>193.8</ele>
        <time>2023-10-12T08:10:21Z</time>
      </trkpt>
      <trkpt lat="44.42246" lon="1.29915">
        <ele>194.2</ele>
        <time>2023-10-12T08:10:22Z</time>
      </trkpt>
      <trkpt lat="44.42243" lon="1.29917">
        <ele>194.3</ele>
        <time>2023-10-12T08:10:26Z</time>
      </trkpt>
      <trkpt lat="44.42242" lon="1.29916">
        <ele>193.5</ele>
        <time>2023-10-12T08:10:31Z</time>
      </trkpt>
      <trkpt lat="44.42239" lon="1.29917">
        <ele>192.7</ele>
        <time>2023-10-12T08:10:33Z</time>
      </trkpt>
      <trkpt lat="44.42238" lon="1.29919">
        <ele>189.2</ele>
        <time>2023-10-12T08:10:35Z</time>
      </trkpt>
      <trkpt lat="44.42233" lon="1.29921">
        <ele>192</ele>
        <time>2023-10-12T08:10:41Z</time>
      </trkpt>
      <trkpt lat="44.42231" lon="1.29924">
        <ele>194.1</ele>
        <time>2023-10-12T08:10:44Z</time>
      </trkpt>
      <trkpt lat="44.42231" lon="1.29924">
        <ele>193.5</ele>
        <time>2023-10-12T08:10:45Z</time>
      </trkpt>
      <trkpt lat="44.4223" lon="1.29925">
        <ele>195.8</ele>
        <time>2023-10-12T08:10:46Z</time>
      </trkpt>
      <trkpt lat="44.42227" lon="1.29924">
        <ele>194.4</ele>
        <time>2023-10-12T08:10:56Z</time>
      </trkpt>
      <trkpt lat="44.42224" lon="1.29929">
        <ele>196.2</ele>
        <time>2023-10-12T08:11:00Z</time>
      </trkpt>
      <trkpt lat="44.42222" lon="1.29939">
        <ele>197.9</ele>
        <time>2023-10-12T08:11:07Z</time>
      </trkpt>
      <trkpt lat="44.42222" lon="1.29939">
        <ele>198.1</ele>
        <time>2023-10-12T08:11:08Z</time>
      </trkpt>
      <trkpt lat="44.42222" lon="1.29941">
        <ele>196.3</ele>
        <time>2023-10-12T08:11:09Z</time>
      </trkpt>
      <trkpt lat="44.42213" lon="1.29952">
        <ele>193.1</ele>
        <time>2023-10-12T08:11:25Z</time>
      </trkpt>
      <trkpt lat="44.42212" lon="1.29962">
        <ele>191.3</ele>
        <time>2023-10-12T08:12:35Z</time>
      </trkpt>
      <trkpt lat="44.42211" lon="1.29963">
        <ele>191.4</ele>
        <time>2023-10-12T08:12:36Z</time>
      </trkpt>
      <trkpt lat="44.42213" lon="1.29965">
        <ele>191.7</ele>
        <time>2023-10-12T08:12:58Z</time>
      </trkpt>
      <trkpt lat="44.42214" lon="1.29962">
        <ele>191.1</ele>
        <time>2023-10-12T08:13:05Z</time>
      </trkpt>
      <trkpt lat="44.42214" lon="1.2996">
        <ele>193.3</ele>
        <time>2023-10-12T08:13:29Z</time>
      </trkpt>
      <trkpt lat="44.42213" lon="1.29965">
        <ele>191.9</ele>
        <time>2023-10-12T08:13:30Z</time>
      </trkpt>
      <trkpt lat="44.42212" lon="1.29961">
        <ele>192.7</ele>
        <time>2023-10-12T08:13:40Z</time>
      </trkpt>
      <trkpt lat="44.4221" lon="1.29962">
        <ele>191.1</ele>
        <time>2023-10-12T08:13:49Z</time>
      </trkpt>
      <trkpt lat="44.42209" lon="1.29965">
        <ele>192.2</ele>
        <time>2023-10-12T08:14:11Z</time>
      </trkpt>
      <trkpt lat="44.42208" lon="1.29966">
        <ele>192.2</ele>
        <time>2023-10-12T08:14:12Z</time>
      </trkpt>
      <trkpt lat="44.42208" lon="1.29966">
        <ele>192.2</ele>
        <time>2023-10-12T08:14:13Z</time>
      </trkpt>
      <trkpt lat="44.42207" lon="1.29969">
        <ele>196.2</ele>
        <time>2023-10-12T08:14:59Z</time>
      </trkpt>
      <trkpt lat="44.42201" lon="1.29973">
        <ele>195.7</ele>
        <time>2023-10-12T08:15:10Z</time>
      </trkpt>
      <trkpt lat="44.42196" lon="1.29972">
        <ele>195.7</ele>
        <time>2023-10-12T08:15:13Z</time>
      </trkpt>
      <trkpt lat="44.42194" lon="1.29973">
        <ele>195.9</ele>
        <time>2023-10-12T08:15:14Z</time>
      </trkpt>
      <trkpt lat="44.42195" lon="1.29973">
        <ele>195.9</ele>
        <time>2023-10-12T08:15:15Z</time>
      </trkpt>
      <trkpt lat="44.42193" lon="1.29977">
        <ele>198.8</ele>
        <time>2023-10-12T08:15:29Z</time>
      </trkpt>
      <trkpt lat="44.42195" lon="1.2998">
        <ele>198.3</ele>
        <time>2023-10-12T08:15:30Z</time>
      </trkpt>
      <trkpt lat="44.42194" lon="1.29983">
        <ele>198.8</ele>
        <time>2023-10-12T08:15:54Z</time>
      </trkpt>
      <trkpt lat="44.42188" lon="1.29988">
        <ele>197.4</ele>
        <time>2023-10-12T08:16:01Z</time>
      </trkpt>
      <trkpt lat="44.42187" lon="1.29988">
        <ele>197.6</ele>
        <time>2023-10-12T08:16:02Z</time>
      </trkpt>
      <trkpt lat="44.42184" lon="1.2999">
        <ele>197.7</ele>
        <time>2023-10-12T08:16:06Z</time>
      </trkpt>
      <trkpt lat="44.4218" lon="1.29994">
        <ele>197.3</ele>
        <time>2023-10-12T08:16:16Z</time>
      </trkpt>
      <trkpt lat="44.42175" lon="1.29995">
        <ele>196.6</ele>
        <time>2023-10-12T08:16:22Z</time>
      </trkpt>
      <trkpt lat="44.42172" lon="1.3">
        <ele>198.1</ele>
        <time>2023-10-12T08:16:27Z</time>
      </trkpt>
      <trkpt lat="44.42171" lon="1.30001">
        <ele>198.3</ele>
        <time>2023-10-12T08:16:28Z</time>
      </trkpt>
      <trkpt lat="44.4217" lon="1.30006">
        <ele>201.2</ele>
        <time>2023-10-12T08:16:30Z</time>
      </trkpt>
      <trkpt lat="44.42168" lon="1.30011">
        <ele>200.9</ele>
        <time>2023-10-12T08:16:35Z</time>
      </trkpt>
      <trkpt lat="44.42162" lon="1.30016">
        <ele>200.1</ele>
        <time>2023-10-12T08:16:43Z</time>
      </trkpt>
      <trkpt lat="44.42159" lon="1.30019">
        <ele>201.6</ele>
        <time>2023-10-12T08:16:47Z</time>
      </trkpt>
      <trkpt lat="44.42159" lon="1.3002">
        <ele>201.8</ele>
        <time>2023-10-12T08:16:48Z</time>
      </trkpt>
      <trkpt lat="44.42157" lon="1.30023">
        <ele>202.2</ele>
        <time>2023-10-12T08:16:52Z</time>
      </trkpt>
      <trkpt lat="44.42155" lon="1.30021">
        <ele>202.7</ele>
        <time>2023-10-12T08:16:58Z</time>
      </trkpt>
      <trkpt lat="44.42153" lon="1.30018">
        <ele>203.6</ele>
        <time>2023-10-12T08:17:02Z</time>
      </trkpt>
      <trkpt lat="44.42149" lon="1.30017">
        <ele>206.1</ele>
        <time>2023-10-12T08:17:06Z</time>
      </trkpt>
      <trkpt lat="44.42146" lon="1.30016">
        <ele>205.6</ele>
        <time>2023-10-12T08:17:08Z</time>
      </trkpt>
      <trkpt lat="44.42148" lon="1.30019">
        <ele>205.7</ele>
        <time>2023-10-12T08:17:14Z</time>
      </trkpt>
      <trkpt lat="44.4215" lon="1.30018">
        <ele>205.7</ele>
        <time>2023-10-12T08:17:15Z</time>
      </trkpt>
      <trkpt lat="44.42151" lon="1.30017">
        <ele>205</ele>
        <time>2023-10-12T08:17:16Z</time>
      </trkpt>
      <trkpt lat="44.42152" lon="1.30021">
        <ele>201.8</ele>
        <time>2023-10-12T08:17:27Z</time>
      </trkpt>
      <trkpt lat="44.42147" lon="1.30025">
        <ele>201.7</ele>
        <time>2023-10-12T08:17:34Z</time>
      </trkpt>
      <trkpt lat="44.42141" lon="1.30033">
        <ele>202.3</ele>
        <time>2023-10-12T08:17:43Z</time>
      </trkpt>
      <trkpt lat="44.4214" lon="1.30034">
        <ele>202.7</ele>
        <time>2023-10-12T08:17:44Z</time>
      </trkpt>
      <trkpt lat="44.42135" lon="1.30039">
        <ele>203.4</ele>
        <time>2023-10-12T08:17:51Z</time>
      </trkpt>
      <trkpt lat="44.42133" lon="1.3004">
        <ele>203.4</ele>
        <time>2023-10-12T08:17:53Z</time>
      </trkpt>
      <trkpt lat="44.42127" lon="1.30034">
        <ele>202.1</ele>
        <time>2023-10-12T08:17:59Z</time>
      </trkpt>
      <trkpt lat="44.42127" lon="1.30033">
        <ele>201.4</ele>
        <time>2023-10-12T08:18:00Z</time>
      </trkpt>
      <trkpt lat="44.42122" lon="1.30024">
        <ele>199.9</ele>
        <time>2023-10-12T08:18:10Z</time>
      </trkpt>
      <trkpt lat="44.4212" lon="1.30018">
        <ele>201.6</ele>
        <time>2023-10-12T08:18:14Z</time>
      </trkpt>
      <trkpt lat="44.42118" lon="1.30016">
        <ele>201.6</ele>
        <time>2023-10-12T08:18:17Z</time>
      </trkpt>
      <trkpt lat="44.42116" lon="1.30016">
        <ele>200.8</ele>
        <time>2023-10-12T08:18:20Z</time>
      </trkpt>
      <trkpt lat="44.42115" lon="1.30017">
        <ele>199.3</ele>
        <time>2023-10-12T08:18:21Z</time>
      </trkpt>
      <trkpt lat="44.42115" lon="1.30018">
        <ele>201</ele>
        <time>2023-10-12T08:18:22Z</time>
      </trkpt>
      <trkpt lat="44.42114" lon="1.30022">
        <ele>199.6</ele>
        <time>2023-10-12T08:18:27Z</time>
      </trkpt>
      <trkpt lat="44.42117" lon="1.30023">
        <ele>201.9</ele>
        <time>2023-10-12T08:18:36Z</time>
      </trkpt>
      <trkpt lat="44.42117" lon="1.30026">
        <ele>201.3</ele>
        <time>2023-10-12T08:18:39Z</time>
      </trkpt>
      <trkpt lat="44.42112" lon="1.30035">
        <ele>203.3</ele>
        <time>2023-10-12T08:18:48Z</time>
      </trkpt>
      <trkpt lat="44.42111" lon="1.30036">
        <ele>205.1</ele>
        <time>2023-10-12T08:18:49Z</time>
      </trkpt>
      <trkpt lat="44.42108" lon="1.30039">
        <ele>204</ele>
        <time>2023-10-12T08:18:52Z</time>
      </trkpt>
      <trkpt lat="44.42103" lon="1.3004">
        <ele>201.7</ele>
        <time>2023-10-12T08:19:02Z</time>
      </trkpt>
      <trkpt lat="44.42101" lon="1.30046">
        <ele>200.5</ele>
        <time>2023-10-12T08:19:14Z</time>
      </trkpt>
      <trkpt lat="44.42098" lon="1.30052">
        <ele>202.3</ele>
        <time>2023-10-12T08:19:23Z</time>
      </trkpt>
      <trkpt lat="44.42098" lon="1.30051">
        <ele>202.2</ele>
        <time>2023-10-12T08:19:24Z</time>
      </trkpt>
      <trkpt lat="44.42095" lon="1.30056">
        <ele>203.3</ele>
        <time>2023-10-12T08:19:26Z</time>
      </trkpt>
      <trkpt lat="44.42097" lon="1.30055">
        <ele>203.9</ele>
        <time>2023-10-12T08:19:29Z</time>
      </trkpt>
      <trkpt lat="44.42093" lon="1.30059">
        <ele>200.8</ele>
        <time>2023-10-12T08:19:57Z</time>
      </trkpt>
      <trkpt lat="44.4209" lon="1.30059">
        <ele>199.6</ele>
        <time>2023-10-12T08:20:02Z</time>
      </trkpt>
      <trkpt lat="44.42087" lon="1.30064">
        <ele>204.4</ele>
        <time>2023-10-12T08:20:16Z</time>
      </trkpt>
      <trkpt lat="44.42087" lon="1.30064">
        <ele>204.1</ele>
        <time>2023-10-12T08:20:17Z</time>
      </trkpt>
      <trkpt lat="44.42086" lon="1.3007">
        <ele>204.2</ele>
        <time>2023-10-12T08:20:25Z</time>
      </trkpt>
      <trkpt lat="44.4208" lon="1.30085">
        <ele>205.7</ele>
        <time>2023-10-12T08:20:40Z</time>
      </trkpt>
      <trkpt lat="44.4208" lon="1.30084">
        <ele>205.4</ele>
        <time>2023-10-12T08:20:41Z</time>
      </trkpt>
      <trkpt lat="44.4208" lon="1.30087">
        <ele>205.8</ele>
        <time>2023-10-12T08:20:43Z</time>
      </trkpt>
      <trkpt lat="44.42081" lon="1.3009">
        <ele>206.5</ele>
        <time>2023-10-12T08:20:44Z</time>
      </trkpt>
      <trkpt lat="44.42078" lon="1.30098">
        <ele>207.2</ele>
        <time>2023-10-12T08:20:50Z</time>
      </trkpt>
      <trkpt lat="44.42074" lon="1.30104">
        <ele>206.9</ele>
        <time>2023-10-12T08:20:59Z</time>
      </trkpt>
      <trkpt lat="44.42073" lon="1.30104">
        <ele>205</ele>
        <time>2023-10-12T08:21:00Z</time>
      </trkpt>
      <trkpt lat="44.42071" lon="1.30107">
        <ele>205.2</ele>
        <time>2023-10-12T08:21:04Z</time>
      </trkpt>
      <trkpt lat="44.42069" lon="1.30127">
        <ele>205.5</ele>
        <time>2023-10-12T08:21:22Z</time>
      </trkpt>
      <trkpt lat="44.42069" lon="1.30128">
        <ele>206.9</ele>
        <time>2023-10-12T08:21:23Z</time>
      </trkpt>
      <trkpt lat="44.42066" lon="1.30146">
        <ele>210.5</ele>
        <time>2023-10-12T08:21:30Z</time>
      </trkpt>
      <trkpt lat="44.42065" lon="1.30149">
        <ele>208.7</ele>
        <time>2023-10-12T08:21:34Z</time>
      </trkpt>
      <trkpt lat="44.42066" lon="1.3015">
        <ele>208.8</ele>
        <time>2023-10-12T08:21:35Z</time>
      </trkpt>
      <trkpt lat="44.42066" lon="1.30151">
        <ele>208.1</ele>
        <time>2023-10-12T08:21:36Z</time>
      </trkpt>
      <trkpt lat="44.42071" lon="1.3016">
        <ele>211.1</ele>
        <time>2023-10-12T08:21:45Z</time>
      </trkpt>
      <trkpt lat="44.42073" lon="1.30162">
        <ele>212.1</ele>
        <time>2023-10-12T08:21:48Z</time>
      </trkpt>
      <trkpt lat="44.42075" lon="1.30164">
        <ele>212.6</ele>
        <time>2023-10-12T08:21:50Z</time>
      </trkpt>
      <trkpt lat="44.42076" lon="1.30167">
        <ele>211.4</ele>
        <time>2023-10-12T08:21:52Z</time>
      </trkpt>
      <trkpt lat="44.42075" lon="1.30171">
        <ele>211</ele>
        <time>2023-10-12T08:21:58Z</time>
      </trkpt>
      <trkpt lat="44.42075" lon="1.30171">
        <ele>209.9</ele>
        <time>2023-10-12T08:21:59Z</time>
      </trkpt>
      <trkpt lat="44.42079" lon="1.3018">
        <ele>211.2</ele>
        <time>2023-10-12T08:22:11Z</time>
      </trkpt>
      <trkpt lat="44.42078" lon="1.30187">
        <ele>209.1</ele>
        <time>2023-10-12T08:22:20Z</time>
      </trkpt>
      <trkpt lat="44.42079" lon="1.30195">
        <ele>208.6</ele>
        <time>2023-10-12T08:22:28Z</time>
      </trkpt>
      <trkpt lat="44.42079" lon="1.30196">
        <ele>207.9</ele>
        <time>2023-10-12T08:22:29Z</time>
      </trkpt>
      <trkpt lat="44.42081" lon="1.302">
        <ele>210.1</ele>
        <time>2023-10-12T08:22:34Z</time>
      </trkpt>
      <trkpt lat="44.42082" lon="1.30206">
        <ele>210</ele>
        <time>2023-10-12T08:22:41Z</time>
      </trkpt>
      <trkpt lat="44.42086" lon="1.30214">
        <ele>211.4</ele>
        <time>2023-10-12T08:22:51Z</time>
      </trkpt>
      <trkpt lat="44.42086" lon="1.30218">
        <ele>212</ele>
        <time>2023-10-12T08:22:57Z</time>
      </trkpt>
      <trkpt lat="44.42086" lon="1.3022">
        <ele>212.2</ele>
        <time>2023-10-12T08:22:58Z</time>
      </trkpt>
      <trkpt lat="44.42083" lon="1.30226">
        <ele>212.1</ele>
        <time>2023-10-12T08:23:04Z</time>
      </trkpt>
      <trkpt lat="44.42085" lon="1.30229">
        <ele>212.1</ele>
        <time>2023-10-12T08:23:07Z</time>
      </trkpt>
      <trkpt lat="44.42088" lon="1.30234">
        <ele>213.2</ele>
        <time>2023-10-12T08:23:12Z</time>
      </trkpt>
      <trkpt lat="44.42094" lon="1.30237">
        <ele>215.2</ele>
        <time>2023-10-12T08:23:18Z</time>
      </trkpt>
      <trkpt lat="44.42094" lon="1.30237">
        <ele>215</ele>
        <time>2023-10-12T08:23:19Z</time>
      </trkpt>
      <trkpt lat="44.42098" lon="1.30242">
        <ele>215.7</ele>
        <time>2023-10-12T08:23:26Z</time>
      </trkpt>
      <trkpt lat="44.42099" lon="1.30246">
        <ele>215.7</ele>
        <time>2023-10-12T08:23:29Z</time>
      </trkpt>
      <trkpt lat="44.42097" lon="1.30255">
        <ele>214.9</ele>
        <time>2023-10-12T08:23:37Z</time>
      </trkpt>
      <trkpt lat="44.42099" lon="1.30257">
        <ele>215.8</ele>
        <time>2023-10-12T08:23:47Z</time>
      </trkpt>
      <trkpt lat="44.42099" lon="1.30258">
        <ele>215.8</ele>
        <time>2023-10-12T08:23:48Z</time>
      </trkpt>
      <trkpt lat="44.42099" lon="1.30272">
        <ele>216.2</ele>
        <time>2023-10-12T08:23:56Z</time>
      </trkpt>
      <trkpt lat="44.42103" lon="1.30277">
        <ele>215.5</ele>
        <time>2023-10-12T08:24:02Z</time>
      </trkpt>
      <trkpt lat="44.42102" lon="1.30278">
        <ele>214.7</ele>
        <time>2023-10-12T08:24:03Z</time>
      </trkpt>
      <trkpt lat="44.42103" lon="1.30285">
        <ele>216.3</ele>
        <time>2023-10-12T08:24:11Z</time>
      </trkpt>
      <trkpt lat="44.42105" lon="1.30291">
        <ele>216.8</ele>
        <time>2023-10-12T08:24:17Z</time>
      </trkpt>
      <trkpt lat="44.42105" lon="1.30297">
        <ele>216.1</ele>
        <time>2023-10-12T08:24:23Z</time>
      </trkpt>
      <trkpt lat="44.42106" lon="1.30302">
        <ele>217</ele>
        <time>2023-10-12T08:24:27Z</time>
      </trkpt>
      <trkpt lat="44.42106" lon="1.30303">
        <ele>217.2</ele>
        <time>2023-10-12T08:24:28Z</time>
      </trkpt>
      <trkpt lat="44.42109" lon="1.30307">
        <ele>218.6</ele>
        <time>2023-10-12T08:24:33Z</time>
      </trkpt>
      <trkpt lat="44.42108" lon="1.3031">
        <ele>216.9</ele>
        <time>2023-10-12T08:24:35Z</time>
      </trkpt>
      <trkpt lat="44.4211" lon="1.30313">
        <ele>217.2</ele>
        <time>2023-10-12T08:24:38Z</time>
      </trkpt>
      <trkpt lat="44.4211" lon="1.30316">
        <ele>216.6</ele>
        <time>2023-10-12T08:24:41Z</time>
      </trkpt>
      <trkpt lat="44.42108" lon="1.30323">
        <ele>217.5</ele>
        <time>2023-10-12T08:24:46Z</time>
      </trkpt>
      <trkpt lat="44.42108" lon="1.30324">
        <ele>217.7</ele>
        <time>2023-10-12T08:24:47Z</time>
      </trkpt>
      <trkpt lat="44.42106" lon="1.30328">
        <ele>217.8</ele>
        <time>2023-10-12T08:24:51Z</time>
      </trkpt>
      <trkpt lat="44.42103" lon="1.30349">
        <ele>217</ele>
        <time>2023-10-12T08:25:10Z</time>
      </trkpt>
      <trkpt lat="44.42103" lon="1.3035">
        <ele>216.6</ele>
        <time>2023-10-12T08:25:11Z</time>
      </trkpt>
      <trkpt lat="44.42101" lon="1.30361">
        <ele>218.2</ele>
        <time>2023-10-12T08:25:24Z</time>
      </trkpt>
      <trkpt lat="44.42099" lon="1.30363">
        <ele>218.7</ele>
        <time>2023-10-12T08:25:28Z</time>
      </trkpt>
      <trkpt lat="44.42098" lon="1.3036">
        <ele>216.3</ele>
        <time>2023-10-12T08:25:33Z</time>
      </trkpt>
      <trkpt lat="44.42093" lon="1.30362">
        <ele>220.9</ele>
        <time>2023-10-12T08:25:45Z</time>
      </trkpt>
      <trkpt lat="44.42093" lon="1.30362">
        <ele>218.6</ele>
        <time>2023-10-12T08:25:46Z</time>
      </trkpt>
      <trkpt lat="44.42093" lon="1.30359">
        <ele>216.6</ele>
        <time>2023-10-12T08:25:48Z</time>
      </trkpt>
      <trkpt lat="44.42091" lon="1.30361">
        <ele>220.7</ele>
        <time>2023-10-12T08:25:55Z</time>
      </trkpt>
      <trkpt lat="44.42088" lon="1.30367">
        <ele>221.8</ele>
        <time>2023-10-12T08:26:02Z</time>
      </trkpt>
      <trkpt lat="44.42082" lon="1.30374">
        <ele>222</ele>
        <time>2023-10-12T08:26:10Z</time>
      </trkpt>
      <trkpt lat="44.42081" lon="1.30375">
        <ele>222</ele>
        <time>2023-10-12T08:26:11Z</time>
      </trkpt>
      <trkpt lat="44.42078" lon="1.30381">
        <ele>222.9</ele>
        <time>2023-10-12T08:26:17Z</time>
      </trkpt>
      <trkpt lat="44.42077" lon="1.30389">
        <ele>225</ele>
        <time>2023-10-12T08:26:27Z</time>
      </trkpt>
      <trkpt lat="44.42074" lon="1.30389">
        <ele>226.3</ele>
        <time>2023-10-12T08:29:38Z</time>
      </trkpt>
      <trkpt lat="44.42072" lon="1.30392">
        <ele>226.2</ele>
        <time>2023-10-12T08:29:45Z</time>
      </trkpt>
      <trkpt lat="44.42071" lon="1.30393">
        <ele>225.6</ele>
        <time>2023-10-12T08:29:46Z</time>
      </trkpt>
      <trkpt lat="44.42069" lon="1.30396">
        <ele>223.6</ele>
        <time>2023-10-12T08:29:51Z</time>
      </trkpt>
      <trkpt lat="44.42067" lon="1.30405">
        <ele>223.9</ele>
        <time>2023-10-12T08:30:00Z</time>
      </trkpt>
      <trkpt lat="44.42065" lon="1.30407">
        <ele>224.1</ele>
        <time>2023-10-12T08:30:03Z</time>
      </trkpt>
      <trkpt lat="44.42064" lon="1.3041">
        <ele>222.6</ele>
        <time>2023-10-12T08:30:08Z</time>
      </trkpt>
      <trkpt lat="44.42061" lon="1.30411">
        <ele>225.9</ele>
        <time>2023-10-12T08:30:11Z</time>
      </trkpt>
      <trkpt lat="44.4206" lon="1.30412">
        <ele>226.1</ele>
        <time>2023-10-12T08:30:12Z</time>
      </trkpt>
      <trkpt lat="44.42054" lon="1.30417">
        <ele>227.9</ele>
        <time>2023-10-12T08:30:21Z</time>
      </trkpt>
      <trkpt lat="44.42051" lon="1.30417">
        <ele>227.4</ele>
        <time>2023-10-12T08:30:30Z</time>
      </trkpt>
      <trkpt lat="44.42048" lon="1.30421">
        <ele>228.2</ele>
        <time>2023-10-12T08:30:36Z</time>
      </trkpt>
      <trkpt lat="44.42046" lon="1.30425">
        <ele>229.3</ele>
        <time>2023-10-12T08:30:41Z</time>
      </trkpt>
      <trkpt lat="44.42045" lon="1.30426">
        <ele>229.4</ele>
        <time>2023-10-12T08:30:42Z</time>
      </trkpt>
      <trkpt lat="44.42032" lon="1.3044">
        <ele>231.6</ele>
        <time>2023-10-12T08:31:03Z</time>
      </trkpt>
      <trkpt lat="44.42032" lon="1.30441">
        <ele>232</ele>
        <time>2023-10-12T08:31:04Z</time>
      </trkpt>
      <trkpt lat="44.4203" lon="1.30443">
        <ele>232</ele>
        <time>2023-10-12T08:31:07Z</time>
      </trkpt>
      <trkpt lat="44.42017" lon="1.30452">
        <ele>233.6</ele>
        <time>2023-10-12T08:31:26Z</time>
      </trkpt>
      <trkpt lat="44.42016" lon="1.30452">
        <ele>233.9</ele>
        <time>2023-10-12T08:31:27Z</time>
      </trkpt>
      <trkpt lat="44.42014" lon="1.30457">
        <ele>233.8</ele>
        <time>2023-10-12T08:31:31Z</time>
      </trkpt>
      <trkpt lat="44.42003" lon="1.30464">
        <ele>235.2</ele>
        <time>2023-10-12T08:31:45Z</time>
      </trkpt>
      <trkpt lat="44.42003" lon="1.30464">
        <ele>235.3</ele>
        <time>2023-10-12T08:31:46Z</time>
      </trkpt>
      <trkpt lat="44.41997" lon="1.30469">
        <ele>236.3</ele>
        <time>2023-10-12T08:31:53Z</time>
      </trkpt>
      <trkpt lat="44.41993" lon="1.3047">
        <ele>237.2</ele>
        <time>2023-10-12T08:31:59Z</time>
      </trkpt>
      <trkpt lat="44.41988" lon="1.30473">
        <ele>238.2</ele>
        <time>2023-10-12T08:32:04Z</time>
      </trkpt>
      <trkpt lat="44.41988" lon="1.30473">
        <ele>237.4</ele>
        <time>2023-10-12T08:32:05Z</time>
      </trkpt>
      <trkpt lat="44.41978" lon="1.30479">
        <ele>239.1</ele>
        <time>2023-10-12T08:32:20Z</time>
      </trkpt>
      <trkpt lat="44.41976" lon="1.30479">
        <ele>238.6</ele>
        <time>2023-10-12T08:32:25Z</time>
      </trkpt>
      <trkpt lat="44.41974" lon="1.30477">
        <ele>238</ele>
        <time>2023-10-12T08:32:30Z</time>
      </trkpt>
      <trkpt lat="44.41971" lon="1.30478">
        <ele>239.6</ele>
        <time>2023-10-12T08:32:34Z</time>
      </trkpt>
      <trkpt lat="44.41971" lon="1.30477">
        <ele>238.8</ele>
        <time>2023-10-12T08:32:35Z</time>
      </trkpt>
      <trkpt lat="44.4197" lon="1.30478">
        <ele>239.1</ele>
        <time>2023-10-12T08:32:36Z</time>
      </trkpt>
      <trkpt lat="44.41968" lon="1.30479">
        <ele>239.2</ele>
        <time>2023-10-12T08:32:43Z</time>
      </trkpt>
      <trkpt lat="44.41965" lon="1.30478">
        <ele>238.8</ele>
        <time>2023-10-12T08:32:47Z</time>
      </trkpt>
      <trkpt lat="44.41967" lon="1.30461">
        <ele>238.9</ele>
        <time>2023-10-12T08:33:04Z</time>
      </trkpt>
      <trkpt lat="44.41967" lon="1.3046">
        <ele>239.7</ele>
        <time>2023-10-12T08:33:05Z</time>
      </trkpt>
      <trkpt lat="44.41969" lon="1.30453">
        <ele>240.6</ele>
        <time>2023-10-12T08:33:15Z</time>
      </trkpt>
      <trkpt lat="44.41975" lon="1.30441">
        <ele>242.3</ele>
        <time>2023-10-12T08:33:32Z</time>
      </trkpt>
      <trkpt lat="44.41976" lon="1.30437">
        <ele>244.3</ele>
        <time>2023-10-12T08:33:36Z</time>
      </trkpt>
      <trkpt lat="44.41976" lon="1.30437">
        <ele>244.2</ele>
        <time>2023-10-12T08:33:37Z</time>
      </trkpt>
      <trkpt lat="44.41976" lon="1.30434">
        <ele>244</ele>
        <time>2023-10-12T08:33:47Z</time>
      </trkpt>
      <trkpt lat="44.4198" lon="1.30424">
        <ele>244.9</ele>
        <time>2023-10-12T08:33:57Z</time>
      </trkpt>
      <trkpt lat="44.41977" lon="1.30417">
        <ele>247.6</ele>
        <time>2023-10-12T08:34:12Z</time>
      </trkpt>
      <trkpt lat="44.41976" lon="1.30417">
        <ele>247.5</ele>
        <time>2023-10-12T08:34:13Z</time>
      </trkpt>
      <trkpt lat="44.41965" lon="1.30419">
        <ele>248.8</ele>
        <time>2023-10-12T08:34:34Z</time>
      </trkpt>
      <trkpt lat="44.41961" lon="1.30422">
        <ele>250.7</ele>
        <time>2023-10-12T08:34:41Z</time>
      </trkpt>
      <trkpt lat="44.41961" lon="1.30422">
        <ele>250.8</ele>
        <time>2023-10-12T08:34:42Z</time>
      </trkpt>
      <trkpt lat="44.41953" lon="1.30422">
        <ele>251.4</ele>
        <time>2023-10-12T08:34:56Z</time>
      </trkpt>
      <trkpt lat="44.41951" lon="1.3042">
        <ele>250.2</ele>
        <time>2023-10-12T08:35:01Z</time>
      </trkpt>
      <trkpt lat="44.41947" lon="1.30422">
        <ele>251.3</ele>
        <time>2023-10-12T08:35:07Z</time>
      </trkpt>
      <trkpt lat="44.41943" lon="1.30422">
        <ele>252.9</ele>
        <time>2023-10-12T08:35:12Z</time>
      </trkpt>
      <trkpt lat="44.41943" lon="1.30422">
        <ele>253.1</ele>
        <time>2023-10-12T08:35:13Z</time>
      </trkpt>
      <trkpt lat="44.4194" lon="1.30415">
        <ele>254</ele>
        <time>2023-10-12T08:35:28Z</time>
      </trkpt>
      <trkpt lat="44.41939" lon="1.30417">
        <ele>253.7</ele>
        <time>2023-10-12T08:35:40Z</time>
      </trkpt>
      <trkpt lat="44.41939" lon="1.30413">
        <ele>253.7</ele>
        <time>2023-10-12T08:35:49Z</time>
      </trkpt>
      <trkpt lat="44.41944" lon="1.30405">
        <ele>253.3</ele>
        <time>2023-10-12T08:36:19Z</time>
      </trkpt>
      <trkpt lat="44.41945" lon="1.30404">
        <ele>253.7</ele>
        <time>2023-10-12T08:36:20Z</time>
      </trkpt>
      <trkpt lat="44.4195" lon="1.30397">
        <ele>254.8</ele>
        <time>2023-10-12T08:36:29Z</time>
      </trkpt>
      <trkpt lat="44.41954" lon="1.30394">
        <ele>254.1</ele>
        <time>2023-10-12T08:36:34Z</time>
      </trkpt>
      <trkpt lat="44.41956" lon="1.30388">
        <ele>253.8</ele>
        <time>2023-10-12T08:36:39Z</time>
      </trkpt>
      <trkpt lat="44.41957" lon="1.30387">
        <ele>253.6</ele>
        <time>2023-10-12T08:36:40Z</time>
      </trkpt>
      <trkpt lat="44.41962" lon="1.30377">
        <ele>253.8</ele>
        <time>2023-10-12T08:36:50Z</time>
      </trkpt>
      <trkpt lat="44.4197" lon="1.30368">
        <ele>255.7</ele>
        <time>2023-10-12T08:37:04Z</time>
      </trkpt>
      <trkpt lat="44.41971" lon="1.30367">
        <ele>255.5</ele>
        <time>2023-10-12T08:37:05Z</time>
      </trkpt>
      <trkpt lat="44.41978" lon="1.30359">
        <ele>256</ele>
        <time>2023-10-12T08:37:16Z</time>
      </trkpt>
      <trkpt lat="44.41985" lon="1.30353">
        <ele>254.8</ele>
        <time>2023-10-12T08:37:28Z</time>
      </trkpt>
      <trkpt lat="44.41986" lon="1.30353">
        <ele>254.6</ele>
        <time>2023-10-12T08:37:29Z</time>
      </trkpt>
      <trkpt lat="44.41985" lon="1.30355">
        <ele>251.4</ele>
        <time>2023-10-12T08:37:30Z</time>
      </trkpt>
      <trkpt lat="44.4199" lon="1.30356">
        <ele>248.2</ele>
        <time>2023-10-12T08:37:36Z</time>
      </trkpt>
      <trkpt lat="44.41995" lon="1.30356">
        <ele>246.8</ele>
        <time>2023-10-12T08:37:41Z</time>
      </trkpt>
      <trkpt lat="44.41999" lon="1.30352">
        <ele>245</ele>
        <time>2023-10-12T08:37:46Z</time>
      </trkpt>
      <trkpt lat="44.42" lon="1.30349">
        <ele>247</ele>
        <time>2023-10-12T08:37:49Z</time>
      </trkpt>
      <trkpt lat="44.42001" lon="1.30348">
        <ele>246.8</ele>
        <time>2023-10-12T08:37:50Z</time>
      </trkpt>
      <trkpt lat="44.42004" lon="1.30337">
        <ele>244.9</ele>
        <time>2023-10-12T08:37:59Z</time>
      </trkpt>
      <trkpt lat="44.42003" lon="1.30328">
        <ele>246.4</ele>
        <time>2023-10-12T08:38:06Z</time>
      </trkpt>
      <trkpt lat="44.42003" lon="1.30327">
        <ele>246.8</ele>
        <time>2023-10-12T08:38:07Z</time>
      </trkpt>
      <trkpt lat="44.42003" lon="1.30314">
        <ele>247.5</ele>
        <time>2023-10-12T08:38:16Z</time>
      </trkpt>
      <trkpt lat="44.42005" lon="1.30303">
        <ele>248.4</ele>
        <time>2023-10-12T08:38:23Z</time>
      </trkpt>
      <trkpt lat="44.42005" lon="1.30302">
        <ele>248.8</ele>
        <time>2023-10-12T08:38:24Z</time>
      </trkpt>
      <trkpt lat="44.42005" lon="1.30292">
        <ele>250.2</ele>
        <time>2023-10-12T08:38:34Z</time>
      </trkpt>
      <trkpt lat="44.42001" lon="1.30279">
        <ele>253.2</ele>
        <time>2023-10-12T08:38:49Z</time>
      </trkpt>
      <trkpt lat="44.42001" lon="1.30278">
        <ele>252.8</ele>
        <time>2023-10-12T08:38:50Z</time>
      </trkpt>
      <trkpt lat="44.41994" lon="1.30261">
        <ele>252.4</ele>
        <time>2023-10-12T08:39:11Z</time>
      </trkpt>
      <trkpt lat="44.41994" lon="1.30257">
        <ele>251.8</ele>
        <time>2023-10-12T08:39:17Z</time>
      </trkpt>
      <trkpt lat="44.41994" lon="1.30256">
        <ele>251.8</ele>
        <time>2023-10-12T08:39:18Z</time>
      </trkpt>
      <trkpt lat="44.41996" lon="1.30261">
        <ele>250</ele>
        <time>2023-10-12T08:39:30Z</time>
      </trkpt>
      <trkpt lat="44.41993" lon="1.30246">
        <ele>249.9</ele>
        <time>2023-10-12T08:41:04Z</time>
      </trkpt>
      <trkpt lat="44.41992" lon="1.30245">
        <ele>250.1</ele>
        <time>2023-10-12T08:41:05Z</time>
      </trkpt>
      <trkpt lat="44.41985" lon="1.30224">
        <ele>249.5</ele>
        <time>2023-10-12T08:41:28Z</time>
      </trkpt>
      <trkpt lat="44.41984" lon="1.30223">
        <ele>248.7</ele>
        <time>2023-10-12T08:41:29Z</time>
      </trkpt>
      <trkpt lat="44.41981" lon="1.3022">
        <ele>243.7</ele>
        <time>2023-10-12T08:41:36Z</time>
      </trkpt>
      <trkpt lat="44.41971" lon="1.30215">
        <ele>248.8</ele>
        <time>2023-10-12T08:41:45Z</time>
      </trkpt>
      <trkpt lat="44.41969" lon="1.30211">
        <ele>247.9</ele>
        <time>2023-10-12T08:41:51Z</time>
      </trkpt>
      <trkpt lat="44.41969" lon="1.3021">
        <ele>247.7</ele>
        <time>2023-10-12T08:41:52Z</time>
      </trkpt>
      <trkpt lat="44.41969" lon="1.30203">
        <ele>249.1</ele>
        <time>2023-10-12T08:42:01Z</time>
      </trkpt>
      <trkpt lat="44.41967" lon="1.302">
        <ele>247.5</ele>
        <time>2023-10-12T08:42:08Z</time>
      </trkpt>
      <trkpt lat="44.41963" lon="1.30198">
        <ele>252.7</ele>
        <time>2023-10-12T08:42:14Z</time>
      </trkpt>
      <trkpt lat="44.4196" lon="1.30192">
        <ele>249.4</ele>
        <time>2023-10-12T08:42:21Z</time>
      </trkpt>
      <trkpt lat="44.4196" lon="1.30191">
        <ele>249.5</ele>
        <time>2023-10-12T08:42:22Z</time>
      </trkpt>
      <trkpt lat="44.41956" lon="1.30186">
        <ele>249.4</ele>
        <time>2023-10-12T08:42:27Z</time>
      </trkpt>
      <trkpt lat="44.41955" lon="1.30185">
        <ele>248.5</ele>
        <time>2023-10-12T08:42:29Z</time>
      </trkpt>
      <trkpt lat="44.41952" lon="1.30181">
        <ele>251.8</ele>
        <time>2023-10-12T08:42:30Z</time>
      </trkpt>
      <trkpt lat="44.4195" lon="1.30182">
        <ele>252.4</ele>
        <time>2023-10-12T08:42:33Z</time>
      </trkpt>
      <trkpt lat="44.41947" lon="1.30188">
        <ele>253.7</ele>
        <time>2023-10-12T08:42:39Z</time>
      </trkpt>
      <trkpt lat="44.41946" lon="1.30188">
        <ele>253.6</ele>
        <time>2023-10-12T08:42:40Z</time>
      </trkpt>
      <trkpt lat="44.41942" lon="1.30195">
        <ele>252.8</ele>
        <time>2023-10-12T08:42:54Z</time>
      </trkpt>
      <trkpt lat="44.41931" lon="1.30195">
        <ele>254</ele>
        <time>2023-10-12T08:43:06Z</time>
      </trkpt>
      <trkpt lat="44.41931" lon="1.30195">
        <ele>253</ele>
        <time>2023-10-12T08:43:07Z</time>
      </trkpt>
      <trkpt lat="44.41926" lon="1.30197">
        <ele>254.1</ele>
        <time>2023-10-12T08:43:15Z</time>
      </trkpt>
      <trkpt lat="44.41921" lon="1.30198">
        <ele>253.4</ele>
        <time>2023-10-12T08:43:21Z</time>
      </trkpt>
      <trkpt lat="44.41918" lon="1.30201">
        <ele>255.4</ele>
        <time>2023-10-12T08:43:29Z</time>
      </trkpt>
      <trkpt lat="44.41916" lon="1.30196">
        <ele>253.6</ele>
        <time>2023-10-12T08:43:31Z</time>
      </trkpt>
      <trkpt lat="44.41915" lon="1.30197">
        <ele>254.1</ele>
        <time>2023-10-12T08:43:32Z</time>
      </trkpt>
      <trkpt lat="44.41914" lon="1.30198">
        <ele>255.2</ele>
        <time>2023-10-12T08:43:33Z</time>
      </trkpt>
      <trkpt lat="44.41906" lon="1.302">
        <ele>258.5</ele>
        <time>2023-10-12T08:43:40Z</time>
      </trkpt>
      <trkpt lat="44.41904" lon="1.30202">
        <ele>259.3</ele>
        <time>2023-10-12T08:43:42Z</time>
      </trkpt>
      <trkpt lat="44.41899" lon="1.30205">
        <ele>259.4</ele>
        <time>2023-10-12T08:43:48Z</time>
      </trkpt>
      <trkpt lat="44.41898" lon="1.30206">
        <ele>258.6</ele>
        <time>2023-10-12T08:43:49Z</time>
      </trkpt>
      <trkpt lat="44.41893" lon="1.30209">
        <ele>258.4</ele>
        <time>2023-10-12T08:43:56Z</time>
      </trkpt>
      <trkpt lat="44.41881" lon="1.3021">
        <ele>257.3</ele>
        <time>2023-10-12T08:44:13Z</time>
      </trkpt>
      <trkpt lat="44.41881" lon="1.3021">
        <ele>257.1</ele>
        <time>2023-10-12T08:44:14Z</time>
      </trkpt>
      <trkpt lat="44.41878" lon="1.3021">
        <ele>259</ele>
        <time>2023-10-12T08:44:18Z</time>
      </trkpt>
      <trkpt lat="44.4187" lon="1.30207">
        <ele>258.5</ele>
        <time>2023-10-12T08:44:26Z</time>
      </trkpt>
      <trkpt lat="44.41865" lon="1.30206">
        <ele>260.5</ele>
        <time>2023-10-12T08:44:31Z</time>
      </trkpt>
      <trkpt lat="44.41865" lon="1.30206">
        <ele>260.6</ele>
        <time>2023-10-12T08:44:32Z</time>
      </trkpt>
      <trkpt lat="44.41864" lon="1.30206">
        <ele>261.3</ele>
        <time>2023-10-12T08:44:33Z</time>
      </trkpt>
      <trkpt lat="44.41861" lon="1.30206">
        <ele>260</ele>
        <time>2023-10-12T08:44:40Z</time>
      </trkpt>
      <trkpt lat="44.41857" lon="1.30209">
        <ele>260.5</ele>
        <time>2023-10-12T08:44:45Z</time>
      </trkpt>
      <trkpt lat="44.41855" lon="1.30208">
        <ele>259.8</ele>
        <time>2023-10-12T08:44:48Z</time>
      </trkpt>
      <trkpt lat="44.41849" lon="1.30202">
        <ele>257</ele>
        <time>2023-10-12T08:44:58Z</time>
      </trkpt>
      <trkpt lat="44.41848" lon="1.30201">
        <ele>256.9</ele>
        <time>2023-10-12T08:44:59Z</time>
      </trkpt>
      <trkpt lat="44.41838" lon="1.30202">
        <ele>257.2</ele>
        <time>2023-10-12T08:45:09Z</time>
      </trkpt>
      <trkpt lat="44.41837" lon="1.30202">
        <ele>257.9</ele>
        <time>2023-10-12T08:45:11Z</time>
      </trkpt>
      <trkpt lat="44.41833" lon="1.30197">
        <ele>256.9</ele>
        <time>2023-10-12T08:45:16Z</time>
      </trkpt>
      <trkpt lat="44.41832" lon="1.30196">
        <ele>257.6</ele>
        <time>2023-10-12T08:45:17Z</time>
      </trkpt>
      <trkpt lat="44.41822" lon="1.30193">
        <ele>259.5</ele>
        <time>2023-10-12T08:45:32Z</time>
      </trkpt>
      <trkpt lat="44.41818" lon="1.30194">
        <ele>260.6</ele>
        <time>2023-10-12T08:45:38Z</time>
      </trkpt>
      <trkpt lat="44.41815" lon="1.30198">
        <ele>259.9</ele>
        <time>2023-10-12T08:45:42Z</time>
      </trkpt>
      <trkpt lat="44.41814" lon="1.30199">
        <ele>260.3</ele>
        <time>2023-10-12T08:45:43Z</time>
      </trkpt>
      <trkpt lat="44.41811" lon="1.302">
        <ele>261</ele>
        <time>2023-10-12T08:45:46Z</time>
      </trkpt>
      <trkpt lat="44.41798" lon="1.302">
        <ele>256.8</ele>
        <time>2023-10-12T08:45:59Z</time>
      </trkpt>
      <trkpt lat="44.41797" lon="1.302">
        <ele>256.7</ele>
        <time>2023-10-12T08:46:00Z</time>
      </trkpt>
      <trkpt lat="44.41792" lon="1.30199">
        <ele>258.1</ele>
        <time>2023-10-12T08:46:05Z</time>
      </trkpt>
      <trkpt lat="44.41782" lon="1.3019">
        <ele>254.3</ele>
        <time>2023-10-12T08:46:18Z</time>
      </trkpt>
      <trkpt lat="44.41782" lon="1.30189">
        <ele>254.2</ele>
        <time>2023-10-12T08:46:19Z</time>
      </trkpt>
      <trkpt lat="44.41778" lon="1.30189">
        <ele>253.7</ele>
        <time>2023-10-12T08:46:22Z</time>
      </trkpt>
      <trkpt lat="44.41774" lon="1.3019">
        <ele>253</ele>
        <time>2023-10-12T08:46:28Z</time>
      </trkpt>
      <trkpt lat="44.41777" lon="1.3019">
        <ele>252</ele>
        <time>2023-10-12T08:46:30Z</time>
      </trkpt>
      <trkpt lat="44.41774" lon="1.3019">
        <ele>251.6</ele>
        <time>2023-10-12T08:46:33Z</time>
      </trkpt>
      <trkpt lat="44.41772" lon="1.30188">
        <ele>252.3</ele>
        <time>2023-10-12T08:46:34Z</time>
      </trkpt>
      <trkpt lat="44.41771" lon="1.30189">
        <ele>252.9</ele>
        <time>2023-10-12T08:46:35Z</time>
      </trkpt>
      <trkpt lat="44.41769" lon="1.3019">
        <ele>254.1</ele>
        <time>2023-10-12T08:46:36Z</time>
      </trkpt>
      <trkpt lat="44.41758" lon="1.30191">
        <ele>254.5</ele>
        <time>2023-10-12T08:46:45Z</time>
      </trkpt>
      <trkpt lat="44.41753" lon="1.30193">
        <ele>255.6</ele>
        <time>2023-10-12T08:46:50Z</time>
      </trkpt>
      <trkpt lat="44.41752" lon="1.30193">
        <ele>256.6</ele>
        <time>2023-10-12T08:46:51Z</time>
      </trkpt>
      <trkpt lat="44.41751" lon="1.30193">
        <ele>256.9</ele>
        <time>2023-10-12T08:46:52Z</time>
      </trkpt>
      <trkpt lat="44.41747" lon="1.30189">
        <ele>249.6</ele>
        <time>2023-10-12T08:47:10Z</time>
      </trkpt>
      <trkpt lat="44.41734" lon="1.30188">
        <ele>249.2</ele>
        <time>2023-10-12T08:47:21Z</time>
      </trkpt>
      <trkpt lat="44.41733" lon="1.30187">
        <ele>248.9</ele>
        <time>2023-10-12T08:47:22Z</time>
      </trkpt>
      <trkpt lat="44.41728" lon="1.30188">
        <ele>248.7</ele>
        <time>2023-10-12T08:47:27Z</time>
      </trkpt>
      <trkpt lat="44.41715" lon="1.30184">
        <ele>248.5</ele>
        <time>2023-10-12T08:47:42Z</time>
      </trkpt>
      <trkpt lat="44.41715" lon="1.30185">
        <ele>248.3</ele>
        <time>2023-10-12T08:47:43Z</time>
      </trkpt>
      <trkpt lat="44.41711" lon="1.30185">
        <ele>247.1</ele>
        <time>2023-10-12T08:47:47Z</time>
      </trkpt>
      <trkpt lat="44.41709" lon="1.30184">
        <ele>246.4</ele>
        <time>2023-10-12T08:47:49Z</time>
      </trkpt>
      <trkpt lat="44.41703" lon="1.30187">
        <ele>247.1</ele>
        <time>2023-10-12T08:47:55Z</time>
      </trkpt>
      <trkpt lat="44.417" lon="1.30186">
        <ele>245.6</ele>
        <time>2023-10-12T08:47:59Z</time>
      </trkpt>
      <trkpt lat="44.41697" lon="1.30183">
        <ele>244.5</ele>
        <time>2023-10-12T08:48:04Z</time>
      </trkpt>
      <trkpt lat="44.41697" lon="1.30183">
        <ele>244.8</ele>
        <time>2023-10-12T08:48:05Z</time>
      </trkpt>
      <trkpt lat="44.41695" lon="1.3018">
        <ele>242.7</ele>
        <time>2023-10-12T08:48:13Z</time>
      </trkpt>
      <trkpt lat="44.41693" lon="1.3018">
        <ele>242.9</ele>
        <time>2023-10-12T08:48:15Z</time>
      </trkpt>
      <trkpt lat="44.41681" lon="1.30182">
        <ele>244.2</ele>
        <time>2023-10-12T08:48:26Z</time>
      </trkpt>
      <trkpt lat="44.41681" lon="1.30182">
        <ele>244</ele>
        <time>2023-10-12T08:48:27Z</time>
      </trkpt>
      <trkpt lat="44.41675" lon="1.30181">
        <ele>244.8</ele>
        <time>2023-10-12T08:48:30Z</time>
      </trkpt>
      <trkpt lat="44.41673" lon="1.30175">
        <ele>244.6</ele>
        <time>2023-10-12T08:48:38Z</time>
      </trkpt>
      <trkpt lat="44.41673" lon="1.30164">
        <ele>244</ele>
        <time>2023-10-12T08:48:54Z</time>
      </trkpt>
      <trkpt lat="44.41672" lon="1.30163">
        <ele>244.7</ele>
        <time>2023-10-12T08:48:55Z</time>
      </trkpt>
      <trkpt lat="44.41672" lon="1.30156">
        <ele>241.1</ele>
        <time>2023-10-12T08:49:04Z</time>
      </trkpt>
      <trkpt lat="44.41674" lon="1.30151">
        <ele>240.5</ele>
        <time>2023-10-12T08:49:09Z</time>
      </trkpt>
      <trkpt lat="44.41673" lon="1.30147">
        <ele>237.9</ele>
        <time>2023-10-12T08:49:17Z</time>
      </trkpt>
      <trkpt lat="44.41671" lon="1.30147">
        <ele>237.7</ele>
        <time>2023-10-12T08:49:20Z</time>
      </trkpt>
      <trkpt lat="44.41668" lon="1.30149">
        <ele>239</ele>
        <time>2023-10-12T08:49:24Z</time>
      </trkpt>
      <trkpt lat="44.41668" lon="1.3015">
        <ele>239.1</ele>
        <time>2023-10-12T08:49:25Z</time>
      </trkpt>
      <trkpt lat="44.41664" lon="1.30156">
        <ele>240.8</ele>
        <time>2023-10-12T08:49:32Z</time>
      </trkpt>
      <trkpt lat="44.4166" lon="1.30159">
        <ele>238.5</ele>
        <time>2023-10-12T08:49:38Z</time>
      </trkpt>
      <trkpt lat="44.41653" lon="1.30162">
        <ele>236.4</ele>
        <time>2023-10-12T08:49:47Z</time>
      </trkpt>
      <trkpt lat="44.41652" lon="1.30162">
        <ele>236.2</ele>
        <time>2023-10-12T08:49:48Z</time>
      </trkpt>
      <trkpt lat="44.4165" lon="1.30161">
        <ele>240.2</ele>
        <time>2023-10-12T08:52:13Z</time>
      </trkpt>
      <trkpt lat="44.41653" lon="1.30161">
        <ele>237.4</ele>
        <time>2023-10-12T08:56:42Z</time>
      </trkpt>
      <trkpt lat="44.41654" lon="1.30163">
        <ele>238.4</ele>
        <time>2023-10-12T08:56:44Z</time>
      </trkpt>
      <trkpt lat="44.41655" lon="1.30172">
        <ele>239.1</ele>
        <time>2023-10-12T08:56:48Z</time>
      </trkpt>
      <trkpt lat="44.41655" lon="1.30173">
        <ele>240.3</ele>
        <time>2023-10-12T08:56:49Z</time>
      </trkpt>
      <trkpt lat="44.41655" lon="1.30175">
        <ele>241</ele>
        <time>2023-10-12T08:56:50Z</time>
      </trkpt>
      <trkpt lat="44.41654" lon="1.30176">
        <ele>240.6</ele>
        <time>2023-10-12T08:57:29Z</time>
      </trkpt>
      <trkpt lat="44.41657" lon="1.3018">
        <ele>242</ele>
        <time>2023-10-12T08:57:30Z</time>
      </trkpt>
      <trkpt lat="44.41655" lon="1.30174">
        <ele>239.5</ele>
        <time>2023-10-12T08:57:43Z</time>
      </trkpt>
      <trkpt lat="44.41655" lon="1.30164">
        <ele>236.7</ele>
        <time>2023-10-12T08:57:53Z</time>
      </trkpt>
      <trkpt lat="44.41654" lon="1.30163">
        <ele>236.7</ele>
        <time>2023-10-12T08:57:54Z</time>
      </trkpt>
      <trkpt lat="44.41653" lon="1.30153">
        <ele>236.6</ele>
        <time>2023-10-12T08:58:13Z</time>
      </trkpt>
      <trkpt lat="44.41649" lon="1.30141">
        <ele>235.3</ele>
        <time>2023-10-12T08:58:25Z</time>
      </trkpt>
      <trkpt lat="44.41649" lon="1.3014">
        <ele>235</ele>
        <time>2023-10-12T08:58:26Z</time>
      </trkpt>
      <trkpt lat="44.41646" lon="1.30126">
        <ele>232.9</ele>
        <time>2023-10-12T08:58:40Z</time>
      </trkpt>
      <trkpt lat="44.41642" lon="1.30117">
        <ele>233.1</ele>
        <time>2023-10-12T08:58:48Z</time>
      </trkpt>
      <trkpt lat="44.41642" lon="1.30116">
        <ele>233.2</ele>
        <time>2023-10-12T08:58:49Z</time>
      </trkpt>
      <trkpt lat="44.41636" lon="1.30108">
        <ele>231.7</ele>
        <time>2023-10-12T08:58:59Z</time>
      </trkpt>
      <trkpt lat="44.41634" lon="1.30107">
        <ele>231.2</ele>
        <time>2023-10-12T08:59:02Z</time>
      </trkpt>
      <trkpt lat="44.41627" lon="1.30107">
        <ele>232.2</ele>
        <time>2023-10-12T08:59:10Z</time>
      </trkpt>
      <trkpt lat="44.41626" lon="1.30107">
        <ele>231.5</ele>
        <time>2023-10-12T08:59:11Z</time>
      </trkpt>
      <trkpt lat="44.41621" lon="1.30109">
        <ele>230.2</ele>
        <time>2023-10-12T08:59:16Z</time>
      </trkpt>
      <trkpt lat="44.41612" lon="1.30115">
        <ele>229.2</ele>
        <time>2023-10-12T08:59:27Z</time>
      </trkpt>
      <trkpt lat="44.41611" lon="1.30116">
        <ele>229.3</ele>
        <time>2023-10-12T08:59:28Z</time>
      </trkpt>
      <trkpt lat="44.41605" lon="1.30121">
        <ele>226.6</ele>
        <time>2023-10-12T08:59:35Z</time>
      </trkpt>
      <trkpt lat="44.41596" lon="1.30127">
        <ele>227.4</ele>
        <time>2023-10-12T08:59:44Z</time>
      </trkpt>
      <trkpt lat="44.41595" lon="1.30127">
        <ele>226.7</ele>
        <time>2023-10-12T08:59:45Z</time>
      </trkpt>
      <trkpt lat="44.41588" lon="1.30131">
        <ele>227.1</ele>
        <time>2023-10-12T08:59:52Z</time>
      </trkpt>
      <trkpt lat="44.41578" lon="1.30132">
        <ele>224.7</ele>
        <time>2023-10-12T09:00:04Z</time>
      </trkpt>
      <trkpt lat="44.41577" lon="1.30132">
        <ele>224.7</ele>
        <time>2023-10-12T09:00:05Z</time>
      </trkpt>
      <trkpt lat="44.41569" lon="1.3013">
        <ele>223.8</ele>
        <time>2023-10-12T09:00:14Z</time>
      </trkpt>
      <trkpt lat="44.41566" lon="1.30127">
        <ele>222</ele>
        <time>2023-10-12T09:00:18Z</time>
      </trkpt>
      <trkpt lat="44.41561" lon="1.30125">
        <ele>223</ele>
        <time>2023-10-12T09:00:24Z</time>
      </trkpt>
      <trkpt lat="44.4156" lon="1.30125">
        <ele>223.6</ele>
        <time>2023-10-12T09:00:25Z</time>
      </trkpt>
      <trkpt lat="44.41558" lon="1.30125">
        <ele>223.6</ele>
        <time>2023-10-12T09:00:28Z</time>
      </trkpt>
      <trkpt lat="44.41556" lon="1.30123">
        <ele>221.4</ele>
        <time>2023-10-12T09:00:31Z</time>
      </trkpt>
      <trkpt lat="44.41547" lon="1.30119">
        <ele>220.1</ele>
        <time>2023-10-12T09:00:40Z</time>
      </trkpt>
      <trkpt lat="44.41544" lon="1.30117">
        <ele>219.8</ele>
        <time>2023-10-12T09:00:44Z</time>
      </trkpt>
      <trkpt lat="44.41543" lon="1.30116">
        <ele>219.8</ele>
        <time>2023-10-12T09:00:45Z</time>
      </trkpt>
      <trkpt lat="44.41527" lon="1.30109">
        <ele>219.7</ele>
        <time>2023-10-12T09:01:02Z</time>
      </trkpt>
      <trkpt lat="44.41526" lon="1.30109">
        <ele>219.8</ele>
        <time>2023-10-12T09:01:03Z</time>
      </trkpt>
      <trkpt lat="44.41521" lon="1.30109">
        <ele>220.4</ele>
        <time>2023-10-12T09:01:08Z</time>
      </trkpt>
      <trkpt lat="44.41517" lon="1.3011">
        <ele>219.5</ele>
        <time>2023-10-12T09:01:13Z</time>
      </trkpt>
      <trkpt lat="44.41513" lon="1.30112">
        <ele>219.6</ele>
        <time>2023-10-12T09:01:18Z</time>
      </trkpt>
      <trkpt lat="44.41511" lon="1.30115">
        <ele>219.5</ele>
        <time>2023-10-12T09:01:21Z</time>
      </trkpt>
      <trkpt lat="44.4151" lon="1.30116">
        <ele>219.4</ele>
        <time>2023-10-12T09:01:22Z</time>
      </trkpt>
      <trkpt lat="44.41508" lon="1.30122">
        <ele>219.5</ele>
        <time>2023-10-12T09:01:27Z</time>
      </trkpt>
      <trkpt lat="44.41507" lon="1.3014">
        <ele>218.3</ele>
        <time>2023-10-12T09:01:40Z</time>
      </trkpt>
      <trkpt lat="44.41507" lon="1.30142">
        <ele>218.1</ele>
        <time>2023-10-12T09:01:41Z</time>
      </trkpt>
      <trkpt lat="44.41507" lon="1.3015">
        <ele>218.7</ele>
        <time>2023-10-12T09:01:46Z</time>
      </trkpt>
      <trkpt lat="44.41504" lon="1.30165">
        <ele>217.4</ele>
        <time>2023-10-12T09:01:57Z</time>
      </trkpt>
      <trkpt lat="44.41503" lon="1.30166">
        <ele>217.4</ele>
        <time>2023-10-12T09:01:58Z</time>
      </trkpt>
      <trkpt lat="44.415" lon="1.30176">
        <ele>219.8</ele>
        <time>2023-10-12T09:02:07Z</time>
      </trkpt>
      <trkpt lat="44.41498" lon="1.30188">
        <ele>218.3</ele>
        <time>2023-10-12T09:02:17Z</time>
      </trkpt>
      <trkpt lat="44.41498" lon="1.3019">
        <ele>218.5</ele>
        <time>2023-10-12T09:02:18Z</time>
      </trkpt>
      <trkpt lat="44.41496" lon="1.30196">
        <ele>218.1</ele>
        <time>2023-10-12T09:02:23Z</time>
      </trkpt>
      <trkpt lat="44.41494" lon="1.30202">
        <ele>223.6</ele>
        <time>2023-10-12T09:02:27Z</time>
      </trkpt>
      <trkpt lat="44.41492" lon="1.30203">
        <ele>225</ele>
        <time>2023-10-12T09:02:32Z</time>
      </trkpt>
      <trkpt lat="44.41492" lon="1.30205">
        <ele>224.9</ele>
        <time>2023-10-12T09:02:33Z</time>
      </trkpt>
      <trkpt lat="44.41489" lon="1.3021">
        <ele>225.7</ele>
        <time>2023-10-12T09:02:35Z</time>
      </trkpt>
      <trkpt lat="44.41488" lon="1.30212">
        <ele>224.8</ele>
        <time>2023-10-12T09:02:36Z</time>
      </trkpt>
      <trkpt lat="44.41481" lon="1.30233">
        <ele>225.2</ele>
        <time>2023-10-12T09:02:54Z</time>
      </trkpt>
      <trkpt lat="44.4148" lon="1.30234">
        <ele>224.7</ele>
        <time>2023-10-12T09:02:55Z</time>
      </trkpt>
      <trkpt lat="44.41473" lon="1.30254">
        <ele>221.9</ele>
        <time>2023-10-12T09:03:11Z</time>
      </trkpt>
      <trkpt lat="44.41472" lon="1.30255">
        <ele>221.3</ele>
        <time>2023-10-12T09:03:12Z</time>
      </trkpt>
      <trkpt lat="44.41467" lon="1.30268">
        <ele>221.3</ele>
        <time>2023-10-12T09:03:21Z</time>
      </trkpt>
      <trkpt lat="44.41465" lon="1.30278">
        <ele>221.3</ele>
        <time>2023-10-12T09:03:28Z</time>
      </trkpt>
      <trkpt lat="44.41464" lon="1.30279">
        <ele>221.1</ele>
        <time>2023-10-12T09:03:29Z</time>
      </trkpt>
      <trkpt lat="44.41464" lon="1.30291">
        <ele>221.8</ele>
        <time>2023-10-12T09:03:37Z</time>
      </trkpt>
      <trkpt lat="44.41465" lon="1.30305">
        <ele>224.4</ele>
        <time>2023-10-12T09:03:46Z</time>
      </trkpt>
      <trkpt lat="44.41466" lon="1.30307">
        <ele>224.3</ele>
        <time>2023-10-12T09:03:47Z</time>
      </trkpt>
      <trkpt lat="44.41465" lon="1.30323">
        <ele>221.2</ele>
        <time>2023-10-12T09:03:59Z</time>
      </trkpt>
      <trkpt lat="44.41464" lon="1.3033">
        <ele>221.7</ele>
        <time>2023-10-12T09:04:04Z</time>
      </trkpt>
      <trkpt lat="44.41464" lon="1.30331">
        <ele>221.8</ele>
        <time>2023-10-12T09:04:05Z</time>
      </trkpt>
      <trkpt lat="44.41457" lon="1.30354">
        <ele>224.3</ele>
        <time>2023-10-12T09:04:22Z</time>
      </trkpt>
      <trkpt lat="44.41456" lon="1.30355">
        <ele>224.7</ele>
        <time>2023-10-12T09:04:23Z</time>
      </trkpt>
      <trkpt lat="44.41445" lon="1.30375">
        <ele>227.2</ele>
        <time>2023-10-12T09:04:37Z</time>
      </trkpt>
      <trkpt lat="44.41444" lon="1.30376">
        <ele>226.3</ele>
        <time>2023-10-12T09:04:38Z</time>
      </trkpt>
      <trkpt lat="44.41434" lon="1.3039">
        <ele>226.9</ele>
        <time>2023-10-12T09:04:50Z</time>
      </trkpt>
      <trkpt lat="44.41431" lon="1.30393">
        <ele>227.9</ele>
        <time>2023-10-12T09:04:53Z</time>
      </trkpt>
      <trkpt lat="44.4143" lon="1.30394">
        <ele>227.2</ele>
        <time>2023-10-12T09:04:54Z</time>
      </trkpt>
      <trkpt lat="44.41422" lon="1.30403">
        <ele>229.9</ele>
        <time>2023-10-12T09:05:06Z</time>
      </trkpt>
      <trkpt lat="44.41416" lon="1.30407">
        <ele>232.4</ele>
        <time>2023-10-12T09:05:11Z</time>
      </trkpt>
      <trkpt lat="44.41415" lon="1.30408">
        <ele>233.6</ele>
        <time>2023-10-12T09:05:12Z</time>
      </trkpt>
      <trkpt lat="44.41409" lon="1.30415">
        <ele>236.7</ele>
        <time>2023-10-12T09:05:19Z</time>
      </trkpt>
      <trkpt lat="44.414" lon="1.3042">
        <ele>238.8</ele>
        <time>2023-10-12T09:05:29Z</time>
      </trkpt>
      <trkpt lat="44.41401" lon="1.30419">
        <ele>240.2</ele>
        <time>2023-10-12T09:05:30Z</time>
      </trkpt>
      <trkpt lat="44.41393" lon="1.30424">
        <ele>234.1</ele>
        <time>2023-10-12T09:05:38Z</time>
      </trkpt>
      <trkpt lat="44.41386" lon="1.30426">
        <ele>232.4</ele>
        <time>2023-10-12T09:05:45Z</time>
      </trkpt>
      <trkpt lat="44.41384" lon="1.30427">
        <ele>232</ele>
        <time>2023-10-12T09:05:46Z</time>
      </trkpt>
      <trkpt lat="44.41379" lon="1.30427">
        <ele>231.6</ele>
        <time>2023-10-12T09:05:51Z</time>
      </trkpt>
      <trkpt lat="44.41373" lon="1.3043">
        <ele>231.7</ele>
        <time>2023-10-12T09:05:58Z</time>
      </trkpt>
      <trkpt lat="44.41368" lon="1.3043">
        <ele>234.7</ele>
        <time>2023-10-12T09:06:04Z</time>
      </trkpt>
      <trkpt lat="44.41367" lon="1.3043">
        <ele>233.8</ele>
        <time>2023-10-12T09:06:05Z</time>
      </trkpt>
      <trkpt lat="44.41359" lon="1.30433">
        <ele>236.3</ele>
        <time>2023-10-12T09:06:11Z</time>
      </trkpt>
      <trkpt lat="44.41349" lon="1.30435">
        <ele>234.1</ele>
        <time>2023-10-12T09:06:22Z</time>
      </trkpt>
      <trkpt lat="44.41348" lon="1.30435">
        <ele>233.9</ele>
        <time>2023-10-12T09:06:23Z</time>
      </trkpt>
      <trkpt lat="44.41343" lon="1.30435">
        <ele>237.7</ele>
        <time>2023-10-12T09:06:29Z</time>
      </trkpt>
      <trkpt lat="44.41339" lon="1.30433">
        <ele>235.4</ele>
        <time>2023-10-12T09:06:30Z</time>
      </trkpt>
      <trkpt lat="44.41336" lon="1.30438">
        <ele>236.2</ele>
        <time>2023-10-12T09:06:33Z</time>
      </trkpt>
      <trkpt lat="44.41334" lon="1.3044">
        <ele>233.8</ele>
        <time>2023-10-12T09:06:36Z</time>
      </trkpt>
      <trkpt lat="44.41333" lon="1.30441">
        <ele>233.3</ele>
        <time>2023-10-12T09:06:37Z</time>
      </trkpt>
      <trkpt lat="44.41326" lon="1.30447">
        <ele>230.3</ele>
        <time>2023-10-12T09:06:46Z</time>
      </trkpt>
      <trkpt lat="44.41321" lon="1.30455">
        <ele>230.3</ele>
        <time>2023-10-12T09:06:54Z</time>
      </trkpt>
      <trkpt lat="44.41321" lon="1.30456">
        <ele>229.6</ele>
        <time>2023-10-12T09:06:55Z</time>
      </trkpt>
      <trkpt lat="44.41316" lon="1.3046">
        <ele>230.9</ele>
        <time>2023-10-12T09:07:02Z</time>
      </trkpt>
      <trkpt lat="44.41309" lon="1.30462">
        <ele>229.5</ele>
        <time>2023-10-12T09:07:13Z</time>
      </trkpt>
      <trkpt lat="44.41304" lon="1.30459">
        <ele>230</ele>
        <time>2023-10-12T09:07:22Z</time>
      </trkpt>
      <trkpt lat="44.41304" lon="1.30458">
        <ele>230.3</ele>
        <time>2023-10-12T09:07:23Z</time>
      </trkpt>
      <trkpt lat="44.41299" lon="1.30456">
        <ele>233.3</ele>
        <time>2023-10-12T09:07:29Z</time>
      </trkpt>
      <trkpt lat="44.41299" lon="1.30445">
        <ele>231.1</ele>
        <time>2023-10-12T09:07:30Z</time>
      </trkpt>
      <trkpt lat="44.41297" lon="1.30445">
        <ele>231.2</ele>
        <time>2023-10-12T09:07:31Z</time>
      </trkpt>
      <trkpt lat="44.4129" lon="1.30439">
        <ele>229.1</ele>
        <time>2023-10-12T09:07:37Z</time>
      </trkpt>
      <trkpt lat="44.41289" lon="1.30438">
        <ele>228.9</ele>
        <time>2023-10-12T09:07:38Z</time>
      </trkpt>
      <trkpt lat="44.41281" lon="1.30429">
        <ele>226.6</ele>
        <time>2023-10-12T09:07:47Z</time>
      </trkpt>
      <trkpt lat="44.41274" lon="1.30427">
        <ele>226.5</ele>
        <time>2023-10-12T09:07:54Z</time>
      </trkpt>
      <trkpt lat="44.41273" lon="1.30427">
        <ele>226.9</ele>
        <time>2023-10-12T09:07:55Z</time>
      </trkpt>
      <trkpt lat="44.41265" lon="1.30428">
        <ele>225.2</ele>
        <time>2023-10-12T09:08:03Z</time>
      </trkpt>
      <trkpt lat="44.41256" lon="1.30427">
        <ele>223.9</ele>
        <time>2023-10-12T09:08:13Z</time>
      </trkpt>
      <trkpt lat="44.41255" lon="1.30427">
        <ele>224.1</ele>
        <time>2023-10-12T09:08:14Z</time>
      </trkpt>
      <trkpt lat="44.4124" lon="1.30426">
        <ele>223.6</ele>
        <time>2023-10-12T09:08:29Z</time>
      </trkpt>
      <trkpt lat="44.41238" lon="1.30427">
        <ele>224.9</ele>
        <time>2023-10-12T09:08:30Z</time>
      </trkpt>
      <trkpt lat="44.41238" lon="1.30426">
        <ele>224.6</ele>
        <time>2023-10-12T09:08:31Z</time>
      </trkpt>
      <trkpt lat="44.4123" lon="1.30424">
        <ele>224.1</ele>
        <time>2023-10-12T09:08:38Z</time>
      </trkpt>
      <trkpt lat="44.41222" lon="1.30421">
        <ele>224.2</ele>
        <time>2023-10-12T09:08:47Z</time>
      </trkpt>
      <trkpt lat="44.41221" lon="1.3042">
        <ele>224.2</ele>
        <time>2023-10-12T09:08:48Z</time>
      </trkpt>
      <trkpt lat="44.41205" lon="1.30411">
        <ele>224.1</ele>
        <time>2023-10-12T09:09:05Z</time>
      </trkpt>
      <trkpt lat="44.41204" lon="1.30411">
        <ele>224.3</ele>
        <time>2023-10-12T09:09:06Z</time>
      </trkpt>
      <trkpt lat="44.41197" lon="1.30408">
        <ele>225.4</ele>
        <time>2023-10-12T09:09:13Z</time>
      </trkpt>
      <trkpt lat="44.41186" lon="1.30405">
        <ele>227</ele>
        <time>2023-10-12T09:09:23Z</time>
      </trkpt>
      <trkpt lat="44.41185" lon="1.30405">
        <ele>227.2</ele>
        <time>2023-10-12T09:09:24Z</time>
      </trkpt>
      <trkpt lat="44.41168" lon="1.30406">
        <ele>228.9</ele>
        <time>2023-10-12T09:09:44Z</time>
      </trkpt>
      <trkpt lat="44.41167" lon="1.30406">
        <ele>229.5</ele>
        <time>2023-10-12T09:09:45Z</time>
      </trkpt>
      <trkpt lat="44.4116" lon="1.30407">
        <ele>229</ele>
        <time>2023-10-12T09:09:52Z</time>
      </trkpt>
      <trkpt lat="44.4115" lon="1.30406">
        <ele>228</ele>
        <time>2023-10-12T09:10:01Z</time>
      </trkpt>
      <trkpt lat="44.41149" lon="1.30405">
        <ele>227.6</ele>
        <time>2023-10-12T09:10:02Z</time>
      </trkpt>
      <trkpt lat="44.41133" lon="1.304">
        <ele>228.6</ele>
        <time>2023-10-12T09:10:18Z</time>
      </trkpt>
      <trkpt lat="44.41132" lon="1.304">
        <ele>228.7</ele>
        <time>2023-10-12T09:10:19Z</time>
      </trkpt>
      <trkpt lat="44.41129" lon="1.30399">
        <ele>228.2</ele>
        <time>2023-10-12T09:10:22Z</time>
      </trkpt>
      <trkpt lat="44.4112" lon="1.30402">
        <ele>231.9</ele>
        <time>2023-10-12T09:10:31Z</time>
      </trkpt>
      <trkpt lat="44.41116" lon="1.30406">
        <ele>232.1</ele>
        <time>2023-10-12T09:10:35Z</time>
      </trkpt>
      <trkpt lat="44.41115" lon="1.30407">
        <ele>231.8</ele>
        <time>2023-10-12T09:10:36Z</time>
      </trkpt>
      <trkpt lat="44.41107" lon="1.30413">
        <ele>231.1</ele>
        <time>2023-10-12T09:10:45Z</time>
      </trkpt>
      <trkpt lat="44.411" lon="1.30415">
        <ele>231.6</ele>
        <time>2023-10-12T09:10:52Z</time>
      </trkpt>
      <trkpt lat="44.41099" lon="1.30415">
        <ele>231.7</ele>
        <time>2023-10-12T09:10:53Z</time>
      </trkpt>
      <trkpt lat="44.41093" lon="1.30415">
        <ele>231.5</ele>
        <time>2023-10-12T09:10:58Z</time>
      </trkpt>
      <trkpt lat="44.41082" lon="1.30416">
        <ele>230.9</ele>
        <time>2023-10-12T09:11:09Z</time>
      </trkpt>
      <trkpt lat="44.41081" lon="1.30416">
        <ele>231.7</ele>
        <time>2023-10-12T09:11:10Z</time>
      </trkpt>
      <trkpt lat="44.41072" lon="1.30417">
        <ele>232.7</ele>
        <time>2023-10-12T09:11:19Z</time>
      </trkpt>
      <trkpt lat="44.41065" lon="1.30414">
        <ele>233.1</ele>
        <time>2023-10-12T09:11:26Z</time>
      </trkpt>
      <trkpt lat="44.41064" lon="1.30413">
        <ele>232.9</ele>
        <time>2023-10-12T09:11:27Z</time>
      </trkpt>
      <trkpt lat="44.41061" lon="1.30413">
        <ele>233.3</ele>
        <time>2023-10-12T09:11:29Z</time>
      </trkpt>
      <trkpt lat="44.41063" lon="1.30408">
        <ele>229.8</ele>
        <time>2023-10-12T09:11:30Z</time>
      </trkpt>
      <trkpt lat="44.41052" lon="1.30403">
        <ele>230.3</ele>
        <time>2023-10-12T09:11:41Z</time>
      </trkpt>
      <trkpt lat="44.41051" lon="1.30403">
        <ele>230.7</ele>
        <time>2023-10-12T09:11:42Z</time>
      </trkpt>
      <trkpt lat="44.41046" lon="1.30401">
        <ele>230.7</ele>
        <time>2023-10-12T09:11:47Z</time>
      </trkpt>
      <trkpt lat="44.41033" lon="1.304">
        <ele>232.6</ele>
        <time>2023-10-12T09:11:59Z</time>
      </trkpt>
      <trkpt lat="44.41032" lon="1.304">
        <ele>232.8</ele>
        <time>2023-10-12T09:12:00Z</time>
      </trkpt>
      <trkpt lat="44.41029" lon="1.30399">
        <ele>232.7</ele>
        <time>2023-10-12T09:12:04Z</time>
      </trkpt>
      <trkpt lat="44.41016" lon="1.30398">
        <ele>235.4</ele>
        <time>2023-10-12T09:12:17Z</time>
      </trkpt>
      <trkpt lat="44.41015" lon="1.30398">
        <ele>235.4</ele>
        <time>2023-10-12T09:12:18Z</time>
      </trkpt>
      <trkpt lat="44.41006" lon="1.30396">
        <ele>236.5</ele>
        <time>2023-10-12T09:12:27Z</time>
      </trkpt>
      <trkpt lat="44.41" lon="1.30392">
        <ele>236</ele>
        <time>2023-10-12T09:12:33Z</time>
      </trkpt>
      <trkpt lat="44.40999" lon="1.30391">
        <ele>236.1</ele>
        <time>2023-10-12T09:12:34Z</time>
      </trkpt>
      <trkpt lat="44.40998" lon="1.3039">
        <ele>236</ele>
        <time>2023-10-12T09:12:35Z</time>
      </trkpt>
      <trkpt lat="44.40993" lon="1.30387">
        <ele>235.4</ele>
        <time>2023-10-12T09:12:40Z</time>
      </trkpt>
      <trkpt lat="44.40984" lon="1.30375">
        <ele>234</ele>
        <time>2023-10-12T09:12:51Z</time>
      </trkpt>
      <trkpt lat="44.40983" lon="1.30374">
        <ele>234</ele>
        <time>2023-10-12T09:12:52Z</time>
      </trkpt>
      <trkpt lat="44.40977" lon="1.30364">
        <ele>234.1</ele>
        <time>2023-10-12T09:13:01Z</time>
      </trkpt>
      <trkpt lat="44.40974" lon="1.30355">
        <ele>233.6</ele>
        <time>2023-10-12T09:13:08Z</time>
      </trkpt>
      <trkpt lat="44.40973" lon="1.30354">
        <ele>233</ele>
        <time>2023-10-12T09:13:09Z</time>
      </trkpt>
      <trkpt lat="44.40969" lon="1.30341">
        <ele>235.1</ele>
        <time>2023-10-12T09:13:18Z</time>
      </trkpt>
      <trkpt lat="44.40968" lon="1.3033">
        <ele>236.8</ele>
        <time>2023-10-12T09:13:24Z</time>
      </trkpt>
      <trkpt lat="44.40968" lon="1.30329">
        <ele>237.3</ele>
        <time>2023-10-12T09:13:25Z</time>
      </trkpt>
      <trkpt lat="44.40965" lon="1.30322">
        <ele>239.7</ele>
        <time>2023-10-12T09:13:29Z</time>
      </trkpt>
      <trkpt lat="44.40969" lon="1.30327">
        <ele>230.9</ele>
        <time>2023-10-12T09:13:30Z</time>
      </trkpt>
      <trkpt lat="44.40969" lon="1.30324">
        <ele>231.4</ele>
        <time>2023-10-12T09:13:33Z</time>
      </trkpt>
      <trkpt lat="44.40966" lon="1.30319">
        <ele>233.4</ele>
        <time>2023-10-12T09:13:37Z</time>
      </trkpt>
      <trkpt lat="44.40965" lon="1.30318">
        <ele>233.4</ele>
        <time>2023-10-12T09:13:38Z</time>
      </trkpt>
      <trkpt lat="44.40956" lon="1.30299">
        <ele>236.4</ele>
        <time>2023-10-12T09:13:54Z</time>
      </trkpt>
      <trkpt lat="44.40955" lon="1.30297">
        <ele>236.7</ele>
        <time>2023-10-12T09:13:55Z</time>
      </trkpt>
      <trkpt lat="44.40942" lon="1.30281">
        <ele>237.3</ele>
        <time>2023-10-12T09:14:14Z</time>
      </trkpt>
      <trkpt lat="44.40941" lon="1.3028">
        <ele>237.2</ele>
        <time>2023-10-12T09:14:15Z</time>
      </trkpt>
      <trkpt lat="44.40939" lon="1.30277">
        <ele>237.4</ele>
        <time>2023-10-12T09:14:18Z</time>
      </trkpt>
      <trkpt lat="44.40937" lon="1.3027">
        <ele>239.4</ele>
        <time>2023-10-12T09:14:22Z</time>
      </trkpt>
      <trkpt lat="44.40939" lon="1.30262">
        <ele>241.3</ele>
        <time>2023-10-12T09:14:26Z</time>
      </trkpt>
      <trkpt lat="44.4094" lon="1.3026">
        <ele>241.8</ele>
        <time>2023-10-12T09:14:27Z</time>
      </trkpt>
      <trkpt lat="44.40941" lon="1.30256">
        <ele>242.9</ele>
        <time>2023-10-12T09:14:29Z</time>
      </trkpt>
      <trkpt lat="44.40944" lon="1.30264">
        <ele>235.9</ele>
        <time>2023-10-12T09:14:30Z</time>
      </trkpt>
      <trkpt lat="44.40946" lon="1.30258">
        <ele>235.7</ele>
        <time>2023-10-12T09:14:35Z</time>
      </trkpt>
      <trkpt lat="44.40946" lon="1.30254">
        <ele>238.6</ele>
        <time>2023-10-12T09:14:37Z</time>
      </trkpt>
      <trkpt lat="44.40949" lon="1.30248">
        <ele>240</ele>
        <time>2023-10-12T09:14:42Z</time>
      </trkpt>
      <trkpt lat="44.4095" lon="1.30247">
        <ele>240</ele>
        <time>2023-10-12T09:14:43Z</time>
      </trkpt>
      <trkpt lat="44.40954" lon="1.30234">
        <ele>241.9</ele>
        <time>2023-10-12T09:14:54Z</time>
      </trkpt>
      <trkpt lat="44.40959" lon="1.30225">
        <ele>244.5</ele>
        <time>2023-10-12T09:15:03Z</time>
      </trkpt>
      <trkpt lat="44.4096" lon="1.30224">
        <ele>244.2</ele>
        <time>2023-10-12T09:15:04Z</time>
      </trkpt>
      <trkpt lat="44.40969" lon="1.30205">
        <ele>244.6</ele>
        <time>2023-10-12T09:15:18Z</time>
      </trkpt>
      <trkpt lat="44.40969" lon="1.30204">
        <ele>244.1</ele>
        <time>2023-10-12T09:15:19Z</time>
      </trkpt>
      <trkpt lat="44.40973" lon="1.3019">
        <ele>239.7</ele>
        <time>2023-10-12T09:15:32Z</time>
      </trkpt>
      <trkpt lat="44.40973" lon="1.30179">
        <ele>240.1</ele>
        <time>2023-10-12T09:15:39Z</time>
      </trkpt>
      <trkpt lat="44.40973" lon="1.30178">
        <ele>239.8</ele>
        <time>2023-10-12T09:15:40Z</time>
      </trkpt>
      <trkpt lat="44.40972" lon="1.30162">
        <ele>237.8</ele>
        <time>2023-10-12T09:15:51Z</time>
      </trkpt>
      <trkpt lat="44.40971" lon="1.30155">
        <ele>235.2</ele>
        <time>2023-10-12T09:15:58Z</time>
      </trkpt>
      <trkpt lat="44.4097" lon="1.30154">
        <ele>235.6</ele>
        <time>2023-10-12T09:15:59Z</time>
      </trkpt>
      <trkpt lat="44.40966" lon="1.3013">
        <ele>235.7</ele>
        <time>2023-10-12T09:16:17Z</time>
      </trkpt>
      <trkpt lat="44.40966" lon="1.30129">
        <ele>235.4</ele>
        <time>2023-10-12T09:16:18Z</time>
      </trkpt>
      <trkpt lat="44.40962" lon="1.30118">
        <ele>235.1</ele>
        <time>2023-10-12T09:16:25Z</time>
      </trkpt>
      <trkpt lat="44.40959" lon="1.30114">
        <ele>236.3</ele>
        <time>2023-10-12T09:16:29Z</time>
      </trkpt>
      <trkpt lat="44.40955" lon="1.30109">
        <ele>239.7</ele>
        <time>2023-10-12T09:16:30Z</time>
      </trkpt>
      <trkpt lat="44.40954" lon="1.30104">
        <ele>239.1</ele>
        <time>2023-10-12T09:16:34Z</time>
      </trkpt>
      <trkpt lat="44.40953" lon="1.30103">
        <ele>239.3</ele>
        <time>2023-10-12T09:16:35Z</time>
      </trkpt>
      <trkpt lat="44.40948" lon="1.30091">
        <ele>239.4</ele>
        <time>2023-10-12T09:16:44Z</time>
      </trkpt>
      <trkpt lat="44.40943" lon="1.30084">
        <ele>239.7</ele>
        <time>2023-10-12T09:16:51Z</time>
      </trkpt>
      <trkpt lat="44.40942" lon="1.30083">
        <ele>239.7</ele>
        <time>2023-10-12T09:16:52Z</time>
      </trkpt>
      <trkpt lat="44.40934" lon="1.30074">
        <ele>240</ele>
        <time>2023-10-12T09:17:01Z</time>
      </trkpt>
      <trkpt lat="44.4093" lon="1.30066">
        <ele>240.2</ele>
        <time>2023-10-12T09:17:08Z</time>
      </trkpt>
      <trkpt lat="44.40929" lon="1.30065">
        <ele>239.7</ele>
        <time>2023-10-12T09:17:09Z</time>
      </trkpt>
      <trkpt lat="44.40925" lon="1.30058">
        <ele>239.1</ele>
        <time>2023-10-12T09:17:16Z</time>
      </trkpt>
      <trkpt lat="44.40919" lon="1.30045">
        <ele>239.8</ele>
        <time>2023-10-12T09:17:25Z</time>
      </trkpt>
      <trkpt lat="44.40919" lon="1.30044">
        <ele>240.3</ele>
        <time>2023-10-12T09:17:26Z</time>
      </trkpt>
      <trkpt lat="44.40918" lon="1.3004">
        <ele>240.2</ele>
        <time>2023-10-12T09:17:29Z</time>
      </trkpt>
      <trkpt lat="44.40919" lon="1.30031">
        <ele>244.1</ele>
        <time>2023-10-12T09:17:34Z</time>
      </trkpt>
      <trkpt lat="44.40915" lon="1.30023">
        <ele>245</ele>
        <time>2023-10-12T09:17:40Z</time>
      </trkpt>
      <trkpt lat="44.40915" lon="1.30021">
        <ele>244.6</ele>
        <time>2023-10-12T09:17:41Z</time>
      </trkpt>
      <trkpt lat="44.40914" lon="1.30012">
        <ele>244.6</ele>
        <time>2023-10-12T09:17:48Z</time>
      </trkpt>
      <trkpt lat="44.40914" lon="1.29999">
        <ele>243.7</ele>
        <time>2023-10-12T09:17:57Z</time>
      </trkpt>
      <trkpt lat="44.40914" lon="1.29997">
        <ele>243.4</ele>
        <time>2023-10-12T09:17:58Z</time>
      </trkpt>
      <trkpt lat="44.40915" lon="1.29993">
        <ele>243.2</ele>
        <time>2023-10-12T09:18:01Z</time>
      </trkpt>
      <trkpt lat="44.40918" lon="1.29974">
        <ele>245.4</ele>
        <time>2023-10-12T09:18:14Z</time>
      </trkpt>
      <trkpt lat="44.40919" lon="1.29973">
        <ele>245.3</ele>
        <time>2023-10-12T09:18:15Z</time>
      </trkpt>
      <trkpt lat="44.40924" lon="1.29959">
        <ele>249.8</ele>
        <time>2023-10-12T09:18:23Z</time>
      </trkpt>
      <trkpt lat="44.40927" lon="1.29955">
        <ele>249</ele>
        <time>2023-10-12T09:18:26Z</time>
      </trkpt>
      <trkpt lat="44.40928" lon="1.29954">
        <ele>250.1</ele>
        <time>2023-10-12T09:18:27Z</time>
      </trkpt>
      <trkpt lat="44.4093" lon="1.29953">
        <ele>251.6</ele>
        <time>2023-10-12T09:18:29Z</time>
      </trkpt>
      <trkpt lat="44.40928" lon="1.29961">
        <ele>247.1</ele>
        <time>2023-10-12T09:18:30Z</time>
      </trkpt>
      <trkpt lat="44.40931" lon="1.29957">
        <ele>245.9</ele>
        <time>2023-10-12T09:18:35Z</time>
      </trkpt>
      <trkpt lat="44.40938" lon="1.2995">
        <ele>242.1</ele>
        <time>2023-10-12T09:18:44Z</time>
      </trkpt>
      <trkpt lat="44.40938" lon="1.2995">
        <ele>242.2</ele>
        <time>2023-10-12T09:18:45Z</time>
      </trkpt>
      <trkpt lat="44.4095" lon="1.2993">
        <ele>247.5</ele>
        <time>2023-10-12T09:19:00Z</time>
      </trkpt>
      <trkpt lat="44.40951" lon="1.29929">
        <ele>249</ele>
        <time>2023-10-12T09:19:01Z</time>
      </trkpt>
      <trkpt lat="44.40957" lon="1.29918">
        <ele>252.6</ele>
        <time>2023-10-12T09:19:11Z</time>
      </trkpt>
      <trkpt lat="44.40959" lon="1.29909">
        <ele>252</ele>
        <time>2023-10-12T09:19:18Z</time>
      </trkpt>
      <trkpt lat="44.4096" lon="1.29907">
        <ele>251.7</ele>
        <time>2023-10-12T09:19:19Z</time>
      </trkpt>
      <trkpt lat="44.40964" lon="1.29892">
        <ele>253.7</ele>
        <time>2023-10-12T09:19:29Z</time>
      </trkpt>
      <trkpt lat="44.40964" lon="1.29897">
        <ele>249.2</ele>
        <time>2023-10-12T09:19:30Z</time>
      </trkpt>
      <trkpt lat="44.40965" lon="1.29893">
        <ele>246.9</ele>
        <time>2023-10-12T09:19:34Z</time>
      </trkpt>
      <trkpt lat="44.40965" lon="1.29891">
        <ele>246.5</ele>
        <time>2023-10-12T09:19:35Z</time>
      </trkpt>
      <trkpt lat="44.4097" lon="1.29871">
        <ele>244.8</ele>
        <time>2023-10-12T09:19:48Z</time>
      </trkpt>
      <trkpt lat="44.4097" lon="1.29869">
        <ele>244.9</ele>
        <time>2023-10-12T09:19:49Z</time>
      </trkpt>
      <trkpt lat="44.40975" lon="1.29845">
        <ele>249.8</ele>
        <time>2023-10-12T09:20:03Z</time>
      </trkpt>
      <trkpt lat="44.40975" lon="1.29843">
        <ele>250.3</ele>
        <time>2023-10-12T09:20:04Z</time>
      </trkpt>
      <trkpt lat="44.40979" lon="1.29818">
        <ele>254</ele>
        <time>2023-10-12T09:20:19Z</time>
      </trkpt>
      <trkpt lat="44.40979" lon="1.29817">
        <ele>255.2</ele>
        <time>2023-10-12T09:20:20Z</time>
      </trkpt>
      <trkpt lat="44.40984" lon="1.29794">
        <ele>248.9</ele>
        <time>2023-10-12T09:25:48Z</time>
      </trkpt>
      <trkpt lat="44.40984" lon="1.29794">
        <ele>249.1</ele>
        <time>2023-10-12T09:25:49Z</time>
      </trkpt>
      <trkpt lat="44.40986" lon="1.2979">
        <ele>250.5</ele>
        <time>2023-10-12T09:25:53Z</time>
      </trkpt>
      <trkpt lat="44.40987" lon="1.29779">
        <ele>252.6</ele>
        <time>2023-10-12T09:26:02Z</time>
      </trkpt>
      <trkpt lat="44.40989" lon="1.29772">
        <ele>251.5</ele>
        <time>2023-10-12T09:26:08Z</time>
      </trkpt>
      <trkpt lat="44.40989" lon="1.29771">
        <ele>252.3</ele>
        <time>2023-10-12T09:26:09Z</time>
      </trkpt>
      <trkpt lat="44.40991" lon="1.29765">
        <ele>249.1</ele>
        <time>2023-10-12T09:26:15Z</time>
      </trkpt>
      <trkpt lat="44.40991" lon="1.2975">
        <ele>247.7</ele>
        <time>2023-10-12T09:26:26Z</time>
      </trkpt>
      <trkpt lat="44.4099" lon="1.29748">
        <ele>248.2</ele>
        <time>2023-10-12T09:26:27Z</time>
      </trkpt>
      <trkpt lat="44.4099" lon="1.29737">
        <ele>246.5</ele>
        <time>2023-10-12T09:26:36Z</time>
      </trkpt>
      <trkpt lat="44.40988" lon="1.29724">
        <ele>247.8</ele>
        <time>2023-10-12T09:26:45Z</time>
      </trkpt>
      <trkpt lat="44.40988" lon="1.29723">
        <ele>248.1</ele>
        <time>2023-10-12T09:26:46Z</time>
      </trkpt>
      <trkpt lat="44.40984" lon="1.29701">
        <ele>249</ele>
        <time>2023-10-12T09:27:03Z</time>
      </trkpt>
      <trkpt lat="44.40983" lon="1.29699">
        <ele>249.3</ele>
        <time>2023-10-12T09:27:04Z</time>
      </trkpt>
      <trkpt lat="44.40982" lon="1.29695">
        <ele>250.2</ele>
        <time>2023-10-12T09:27:07Z</time>
      </trkpt>
      <trkpt lat="44.40979" lon="1.29676">
        <ele>252.1</ele>
        <time>2023-10-12T09:27:24Z</time>
      </trkpt>
      <trkpt lat="44.40979" lon="1.29674">
        <ele>252.7</ele>
        <time>2023-10-12T09:27:25Z</time>
      </trkpt>
      <trkpt lat="44.40978" lon="1.2967">
        <ele>254.3</ele>
        <time>2023-10-12T09:27:28Z</time>
      </trkpt>
      <trkpt lat="44.40983" lon="1.29664">
        <ele>252.3</ele>
        <time>2023-10-12T09:27:38Z</time>
      </trkpt>
      <trkpt lat="44.40987" lon="1.29659">
        <ele>251.9</ele>
        <time>2023-10-12T09:27:44Z</time>
      </trkpt>
      <trkpt lat="44.40988" lon="1.29655">
        <ele>251.7</ele>
        <time>2023-10-12T09:27:48Z</time>
      </trkpt>
      <trkpt lat="44.40988" lon="1.29654">
        <ele>251.6</ele>
        <time>2023-10-12T09:27:49Z</time>
      </trkpt>
      <trkpt lat="44.40984" lon="1.2963">
        <ele>252.9</ele>
        <time>2023-10-12T09:28:09Z</time>
      </trkpt>
      <trkpt lat="44.40984" lon="1.29628">
        <ele>253.4</ele>
        <time>2023-10-12T09:28:10Z</time>
      </trkpt>
      <trkpt lat="44.4098" lon="1.29606">
        <ele>251</ele>
        <time>2023-10-12T09:28:28Z</time>
      </trkpt>
      <trkpt lat="44.40979" lon="1.29605">
        <ele>251.1</ele>
        <time>2023-10-12T09:28:29Z</time>
      </trkpt>
      <trkpt lat="44.40977" lon="1.2959">
        <ele>252.8</ele>
        <time>2023-10-12T09:28:39Z</time>
      </trkpt>
      <trkpt lat="44.40974" lon="1.29585">
        <ele>255.7</ele>
        <time>2023-10-12T09:28:43Z</time>
      </trkpt>
      <trkpt lat="44.40974" lon="1.29581">
        <ele>254.7</ele>
        <time>2023-10-12T09:28:46Z</time>
      </trkpt>
      <trkpt lat="44.40974" lon="1.29579">
        <ele>254.7</ele>
        <time>2023-10-12T09:28:47Z</time>
      </trkpt>
      <trkpt lat="44.4097" lon="1.29557">
        <ele>254.8</ele>
        <time>2023-10-12T09:29:03Z</time>
      </trkpt>
      <trkpt lat="44.4097" lon="1.29556">
        <ele>254.3</ele>
        <time>2023-10-12T09:29:04Z</time>
      </trkpt>
      <trkpt lat="44.40967" lon="1.29543">
        <ele>253.6</ele>
        <time>2023-10-12T09:29:13Z</time>
      </trkpt>
      <trkpt lat="44.40964" lon="1.29535">
        <ele>254</ele>
        <time>2023-10-12T09:29:20Z</time>
      </trkpt>
      <trkpt lat="44.40963" lon="1.29533">
        <ele>254.1</ele>
        <time>2023-10-12T09:29:21Z</time>
      </trkpt>
      <trkpt lat="44.40957" lon="1.29524">
        <ele>251.1</ele>
        <time>2023-10-12T09:29:30Z</time>
      </trkpt>
      <trkpt lat="44.40952" lon="1.2952">
        <ele>252.8</ele>
        <time>2023-10-12T09:29:37Z</time>
      </trkpt>
      <trkpt lat="44.40951" lon="1.29519">
        <ele>252.8</ele>
        <time>2023-10-12T09:29:38Z</time>
      </trkpt>
      <trkpt lat="44.40935" lon="1.29506">
        <ele>252.7</ele>
        <time>2023-10-12T09:29:54Z</time>
      </trkpt>
      <trkpt lat="44.40934" lon="1.29506">
        <ele>253.2</ele>
        <time>2023-10-12T09:29:55Z</time>
      </trkpt>
      <trkpt lat="44.40924" lon="1.29496">
        <ele>254.5</ele>
        <time>2023-10-12T09:30:06Z</time>
      </trkpt>
      <trkpt lat="44.4092" lon="1.29492">
        <ele>253.6</ele>
        <time>2023-10-12T09:30:11Z</time>
      </trkpt>
      <trkpt lat="44.40919" lon="1.29491">
        <ele>253.9</ele>
        <time>2023-10-12T09:30:12Z</time>
      </trkpt>
      <trkpt lat="44.40906" lon="1.29476">
        <ele>254</ele>
        <time>2023-10-12T09:30:28Z</time>
      </trkpt>
      <trkpt lat="44.40906" lon="1.29475">
        <ele>253</ele>
        <time>2023-10-12T09:30:29Z</time>
      </trkpt>
      <trkpt lat="44.409" lon="1.2947">
        <ele>252.3</ele>
        <time>2023-10-12T09:30:37Z</time>
      </trkpt>
      <trkpt lat="44.409" lon="1.29466">
        <ele>252.2</ele>
        <time>2023-10-12T09:30:41Z</time>
      </trkpt>
      <trkpt lat="44.40905" lon="1.29459">
        <ele>250.2</ele>
        <time>2023-10-12T09:30:50Z</time>
      </trkpt>
      <trkpt lat="44.40906" lon="1.29458">
        <ele>250.6</ele>
        <time>2023-10-12T09:30:51Z</time>
      </trkpt>
      <trkpt lat="44.40916" lon="1.2944">
        <ele>250.8</ele>
        <time>2023-10-12T09:31:07Z</time>
      </trkpt>
      <trkpt lat="44.40917" lon="1.29439">
        <ele>251.1</ele>
        <time>2023-10-12T09:31:08Z</time>
      </trkpt>
      <trkpt lat="44.40923" lon="1.29427">
        <ele>252.1</ele>
        <time>2023-10-12T09:31:18Z</time>
      </trkpt>
      <trkpt lat="44.40928" lon="1.2942">
        <ele>252.7</ele>
        <time>2023-10-12T09:31:25Z</time>
      </trkpt>
      <trkpt lat="44.40929" lon="1.29419">
        <ele>253</ele>
        <time>2023-10-12T09:31:26Z</time>
      </trkpt>
      <trkpt lat="44.40929" lon="1.29418">
        <ele>253.3</ele>
        <time>2023-10-12T09:31:27Z</time>
      </trkpt>
      <trkpt lat="44.40931" lon="1.29418">
        <ele>250</ele>
        <time>2023-10-12T09:31:30Z</time>
      </trkpt>
      <trkpt lat="44.40933" lon="1.29416">
        <ele>249.4</ele>
        <time>2023-10-12T09:31:33Z</time>
      </trkpt>
      <trkpt lat="44.4094" lon="1.29401">
        <ele>251.4</ele>
        <time>2023-10-12T09:31:45Z</time>
      </trkpt>
      <trkpt lat="44.4094" lon="1.29399">
        <ele>251.4</ele>
        <time>2023-10-12T09:31:46Z</time>
      </trkpt>
      <trkpt lat="44.40949" lon="1.29375">
        <ele>255.7</ele>
        <time>2023-10-12T09:32:02Z</time>
      </trkpt>
      <trkpt lat="44.4095" lon="1.29373">
        <ele>256.4</ele>
        <time>2023-10-12T09:32:03Z</time>
      </trkpt>
      <trkpt lat="44.40953" lon="1.29366">
        <ele>260.2</ele>
        <time>2023-10-12T09:32:08Z</time>
      </trkpt>
      <trkpt lat="44.40961" lon="1.29352">
        <ele>259.2</ele>
        <time>2023-10-12T09:32:25Z</time>
      </trkpt>
      <trkpt lat="44.40961" lon="1.29351">
        <ele>259.5</ele>
        <time>2023-10-12T09:32:26Z</time>
      </trkpt>
      <trkpt lat="44.40963" lon="1.29349">
        <ele>258.8</ele>
        <time>2023-10-12T09:32:29Z</time>
      </trkpt>
      <trkpt lat="44.40964" lon="1.29353">
        <ele>255.2</ele>
        <time>2023-10-12T09:32:30Z</time>
      </trkpt>
      <trkpt lat="44.4097" lon="1.29338">
        <ele>256.8</ele>
        <time>2023-10-12T09:32:43Z</time>
      </trkpt>
      <trkpt lat="44.40971" lon="1.29337">
        <ele>257</ele>
        <time>2023-10-12T09:32:44Z</time>
      </trkpt>
      <trkpt lat="44.40979" lon="1.29311">
        <ele>263</ele>
        <time>2023-10-12T09:33:00Z</time>
      </trkpt>
      <trkpt lat="44.40979" lon="1.29309">
        <ele>263.7</ele>
        <time>2023-10-12T09:33:01Z</time>
      </trkpt>
      <trkpt lat="44.40989" lon="1.29286">
        <ele>259.9</ele>
        <time>2023-10-12T09:33:21Z</time>
      </trkpt>
      <trkpt lat="44.4099" lon="1.29285">
        <ele>260.6</ele>
        <time>2023-10-12T09:33:22Z</time>
      </trkpt>
      <trkpt lat="44.40992" lon="1.2928">
        <ele>259.6</ele>
        <time>2023-10-12T09:33:29Z</time>
      </trkpt>
      <trkpt lat="44.40991" lon="1.29287">
        <ele>256</ele>
        <time>2023-10-12T09:33:30Z</time>
      </trkpt>
      <trkpt lat="44.40993" lon="1.29285">
        <ele>255.4</ele>
        <time>2023-10-12T09:33:32Z</time>
      </trkpt>
      <trkpt lat="44.40995" lon="1.29277">
        <ele>256.2</ele>
        <time>2023-10-12T09:33:39Z</time>
      </trkpt>
      <trkpt lat="44.40995" lon="1.29275">
        <ele>256.4</ele>
        <time>2023-10-12T09:33:40Z</time>
      </trkpt>
      <trkpt lat="44.41" lon="1.29253">
        <ele>259.2</ele>
        <time>2023-10-12T09:33:57Z</time>
      </trkpt>
      <trkpt lat="44.41" lon="1.29252">
        <ele>259.5</ele>
        <time>2023-10-12T09:33:58Z</time>
      </trkpt>
      <trkpt lat="44.41006" lon="1.29227">
        <ele>263.2</ele>
        <time>2023-10-12T09:34:20Z</time>
      </trkpt>
      <trkpt lat="44.41006" lon="1.29225">
        <ele>263</ele>
        <time>2023-10-12T09:34:21Z</time>
      </trkpt>
      <trkpt lat="44.41012" lon="1.29203">
        <ele>261.4</ele>
        <time>2023-10-12T09:34:38Z</time>
      </trkpt>
      <trkpt lat="44.41013" lon="1.29202">
        <ele>261.4</ele>
        <time>2023-10-12T09:34:39Z</time>
      </trkpt>
      <trkpt lat="44.41015" lon="1.2919">
        <ele>260.8</ele>
        <time>2023-10-12T09:34:48Z</time>
      </trkpt>
      <trkpt lat="44.41016" lon="1.2918">
        <ele>262.6</ele>
        <time>2023-10-12T09:34:55Z</time>
      </trkpt>
      <trkpt lat="44.41016" lon="1.29178">
        <ele>262.5</ele>
        <time>2023-10-12T09:34:56Z</time>
      </trkpt>
      <trkpt lat="44.41021" lon="1.29154">
        <ele>264.9</ele>
        <time>2023-10-12T09:35:16Z</time>
      </trkpt>
      <trkpt lat="44.41021" lon="1.29153">
        <ele>264.9</ele>
        <time>2023-10-12T09:35:17Z</time>
      </trkpt>
      <trkpt lat="44.41025" lon="1.29144">
        <ele>264.7</ele>
        <time>2023-10-12T09:35:25Z</time>
      </trkpt>
      <trkpt lat="44.41033" lon="1.29135">
        <ele>262.1</ele>
        <time>2023-10-12T09:35:36Z</time>
      </trkpt>
      <trkpt lat="44.41033" lon="1.29134">
        <ele>261.7</ele>
        <time>2023-10-12T09:35:37Z</time>
      </trkpt>
      <trkpt lat="44.41043" lon="1.29117">
        <ele>263.4</ele>
        <time>2023-10-12T09:35:53Z</time>
      </trkpt>
      <trkpt lat="44.41044" lon="1.29115">
        <ele>263.7</ele>
        <time>2023-10-12T09:35:54Z</time>
      </trkpt>
      <trkpt lat="44.41049" lon="1.29106">
        <ele>263.8</ele>
        <time>2023-10-12T09:36:04Z</time>
      </trkpt>
      <trkpt lat="44.41056" lon="1.29097">
        <ele>263.3</ele>
        <time>2023-10-12T09:36:14Z</time>
      </trkpt>
      <trkpt lat="44.41056" lon="1.29096">
        <ele>263</ele>
        <time>2023-10-12T09:36:15Z</time>
      </trkpt>
      <trkpt lat="44.41067" lon="1.29075">
        <ele>264.2</ele>
        <time>2023-10-12T09:36:36Z</time>
      </trkpt>
      <trkpt lat="44.41067" lon="1.29074">
        <ele>264</ele>
        <time>2023-10-12T09:36:37Z</time>
      </trkpt>
      <trkpt lat="44.41079" lon="1.29057">
        <ele>265.2</ele>
        <time>2023-10-12T09:36:54Z</time>
      </trkpt>
      <trkpt lat="44.41079" lon="1.29056">
        <ele>265.6</ele>
        <time>2023-10-12T09:36:55Z</time>
      </trkpt>
      <trkpt lat="44.41083" lon="1.29047">
        <ele>268.8</ele>
        <time>2023-10-12T09:37:02Z</time>
      </trkpt>
      <trkpt lat="44.41087" lon="1.29041">
        <ele>268.3</ele>
        <time>2023-10-12T09:37:06Z</time>
      </trkpt>
      <trkpt lat="44.41087" lon="1.29035">
        <ele>272</ele>
        <time>2023-10-12T09:37:08Z</time>
      </trkpt>
      <trkpt lat="44.41087" lon="1.29034">
        <ele>271.1</ele>
        <time>2023-10-12T09:37:09Z</time>
      </trkpt>
      <trkpt lat="44.41097" lon="1.29023">
        <ele>270.5</ele>
        <time>2023-10-12T09:37:27Z</time>
      </trkpt>
      <trkpt lat="44.41099" lon="1.29024">
        <ele>268.9</ele>
        <time>2023-10-12T09:37:29Z</time>
      </trkpt>
      <trkpt lat="44.41102" lon="1.29023">
        <ele>268.3</ele>
        <time>2023-10-12T09:37:35Z</time>
      </trkpt>
      <trkpt lat="44.41102" lon="1.29023">
        <ele>267.9</ele>
        <time>2023-10-12T09:37:36Z</time>
      </trkpt>
      <trkpt lat="44.41114" lon="1.29007">
        <ele>270.3</ele>
        <time>2023-10-12T09:37:55Z</time>
      </trkpt>
      <trkpt lat="44.41115" lon="1.29007">
        <ele>270.2</ele>
        <time>2023-10-12T09:37:56Z</time>
      </trkpt>
      <trkpt lat="44.41129" lon="1.28992">
        <ele>273.5</ele>
        <time>2023-10-12T09:38:19Z</time>
      </trkpt>
      <trkpt lat="44.4113" lon="1.28991">
        <ele>273.5</ele>
        <time>2023-10-12T09:38:20Z</time>
      </trkpt>
      <trkpt lat="44.41135" lon="1.28986">
        <ele>274.8</ele>
        <time>2023-10-12T09:38:27Z</time>
      </trkpt>
      <trkpt lat="44.41137" lon="1.28986">
        <ele>273.7</ele>
        <time>2023-10-12T09:38:31Z</time>
      </trkpt>
      <trkpt lat="44.41145" lon="1.28977">
        <ele>272.2</ele>
        <time>2023-10-12T09:38:44Z</time>
      </trkpt>
      <trkpt lat="44.41146" lon="1.28977">
        <ele>271.6</ele>
        <time>2023-10-12T09:38:45Z</time>
      </trkpt>
      <trkpt lat="44.41154" lon="1.28966">
        <ele>273.8</ele>
        <time>2023-10-12T09:39:02Z</time>
      </trkpt>
      <trkpt lat="44.41155" lon="1.28959">
        <ele>275</ele>
        <time>2023-10-12T09:39:31Z</time>
      </trkpt>
      <trkpt lat="44.41155" lon="1.28959">
        <ele>275.3</ele>
        <time>2023-10-12T09:39:32Z</time>
      </trkpt>
      <trkpt lat="44.41154" lon="1.28953">
        <ele>277.2</ele>
        <time>2023-10-12T09:39:46Z</time>
      </trkpt>
      <trkpt lat="44.4115" lon="1.28949">
        <ele>277.7</ele>
        <time>2023-10-12T09:39:51Z</time>
      </trkpt>
      <trkpt lat="44.41147" lon="1.28939">
        <ele>277.5</ele>
        <time>2023-10-12T09:39:59Z</time>
      </trkpt>
      <trkpt lat="44.41146" lon="1.28938">
        <ele>277.6</ele>
        <time>2023-10-12T09:40:00Z</time>
      </trkpt>
      <trkpt lat="44.41136" lon="1.2892">
        <ele>280.2</ele>
        <time>2023-10-12T09:40:17Z</time>
      </trkpt>
      <trkpt lat="44.41136" lon="1.28919">
        <ele>280.1</ele>
        <time>2023-10-12T09:40:18Z</time>
      </trkpt>
      <trkpt lat="44.41126" lon="1.28903">
        <ele>283.1</ele>
        <time>2023-10-12T09:40:34Z</time>
      </trkpt>
      <trkpt lat="44.41125" lon="1.28902">
        <ele>284.2</ele>
        <time>2023-10-12T09:40:35Z</time>
      </trkpt>
      <trkpt lat="44.4112" lon="1.28894">
        <ele>284.2</ele>
        <time>2023-10-12T09:40:45Z</time>
      </trkpt>
      <trkpt lat="44.41118" lon="1.28886">
        <ele>284.7</ele>
        <time>2023-10-12T09:40:52Z</time>
      </trkpt>
      <trkpt lat="44.41118" lon="1.28882">
        <ele>284.9</ele>
        <time>2023-10-12T09:40:55Z</time>
      </trkpt>
      <trkpt lat="44.41119" lon="1.28881">
        <ele>284.4</ele>
        <time>2023-10-12T09:40:56Z</time>
      </trkpt>
      <trkpt lat="44.4112" lon="1.28877">
        <ele>284.9</ele>
        <time>2023-10-12T09:40:59Z</time>
      </trkpt>
      <trkpt lat="44.41131" lon="1.28865">
        <ele>284.8</ele>
        <time>2023-10-12T09:41:15Z</time>
      </trkpt>
      <trkpt lat="44.41132" lon="1.28864">
        <ele>284.9</ele>
        <time>2023-10-12T09:41:16Z</time>
      </trkpt>
      <trkpt lat="44.41144" lon="1.28848">
        <ele>286.2</ele>
        <time>2023-10-12T09:41:37Z</time>
      </trkpt>
      <trkpt lat="44.41145" lon="1.28847">
        <ele>286.1</ele>
        <time>2023-10-12T09:41:38Z</time>
      </trkpt>
      <trkpt lat="44.41152" lon="1.28836">
        <ele>287.3</ele>
        <time>2023-10-12T09:41:52Z</time>
      </trkpt>
      <trkpt lat="44.41151" lon="1.2883">
        <ele>286.3</ele>
        <time>2023-10-12T09:41:59Z</time>
      </trkpt>
      <trkpt lat="44.4115" lon="1.28825">
        <ele>286.7</ele>
        <time>2023-10-12T09:42:03Z</time>
      </trkpt>
      <trkpt lat="44.4115" lon="1.28824">
        <ele>286.7</ele>
        <time>2023-10-12T09:42:04Z</time>
      </trkpt>
      <trkpt lat="44.41145" lon="1.28816">
        <ele>287.5</ele>
        <time>2023-10-12T09:42:12Z</time>
      </trkpt>
      <trkpt lat="44.41143" lon="1.2881">
        <ele>287.1</ele>
        <time>2023-10-12T09:42:17Z</time>
      </trkpt>
      <trkpt lat="44.41141" lon="1.28809">
        <ele>287.7</ele>
        <time>2023-10-12T09:42:29Z</time>
      </trkpt>
      <trkpt lat="44.4114" lon="1.28805">
        <ele>289.5</ele>
        <time>2023-10-12T09:42:33Z</time>
      </trkpt>
      <trkpt lat="44.4114" lon="1.28804">
        <ele>289.5</ele>
        <time>2023-10-12T09:42:34Z</time>
      </trkpt>
      <trkpt lat="44.41133" lon="1.28782">
        <ele>288.9</ele>
        <time>2023-10-12T09:42:50Z</time>
      </trkpt>
      <trkpt lat="44.41133" lon="1.28781">
        <ele>288.8</ele>
        <time>2023-10-12T09:42:51Z</time>
      </trkpt>
      <trkpt lat="44.41127" lon="1.2876">
        <ele>289.1</ele>
        <time>2023-10-12T09:43:07Z</time>
      </trkpt>
      <trkpt lat="44.41127" lon="1.28759">
        <ele>289.1</ele>
        <time>2023-10-12T09:43:08Z</time>
      </trkpt>
      <trkpt lat="44.41119" lon="1.28741">
        <ele>288.2</ele>
        <time>2023-10-12T09:43:27Z</time>
      </trkpt>
      <trkpt lat="44.41117" lon="1.2874">
        <ele>288.5</ele>
        <time>2023-10-12T09:43:29Z</time>
      </trkpt>
      <trkpt lat="44.41116" lon="1.2874">
        <ele>289.2</ele>
        <time>2023-10-12T09:43:30Z</time>
      </trkpt>
      <trkpt lat="44.41116" lon="1.2874">
        <ele>289.4</ele>
        <time>2023-10-12T09:43:31Z</time>
      </trkpt>
      <trkpt lat="44.41106" lon="1.28722">
        <ele>289.5</ele>
        <time>2023-10-12T09:43:48Z</time>
      </trkpt>
      <trkpt lat="44.41105" lon="1.28721">
        <ele>289.8</ele>
        <time>2023-10-12T09:43:49Z</time>
      </trkpt>
      <trkpt lat="44.41095" lon="1.28704">
        <ele>289.5</ele>
        <time>2023-10-12T09:44:05Z</time>
      </trkpt>
      <trkpt lat="44.41094" lon="1.28703">
        <ele>289.6</ele>
        <time>2023-10-12T09:44:06Z</time>
      </trkpt>
      <trkpt lat="44.41084" lon="1.28685">
        <ele>288.7</ele>
        <time>2023-10-12T09:44:24Z</time>
      </trkpt>
      <trkpt lat="44.41083" lon="1.28684">
        <ele>288.1</ele>
        <time>2023-10-12T09:44:25Z</time>
      </trkpt>
      <trkpt lat="44.41072" lon="1.28666">
        <ele>288.1</ele>
        <time>2023-10-12T09:44:44Z</time>
      </trkpt>
      <trkpt lat="44.41072" lon="1.28665">
        <ele>286.3</ele>
        <time>2023-10-12T09:44:45Z</time>
      </trkpt>
      <trkpt lat="44.41071" lon="1.2866">
        <ele>285.2</ele>
        <time>2023-10-12T09:44:50Z</time>
      </trkpt>
      <trkpt lat="44.41063" lon="1.28646">
        <ele>282.8</ele>
        <time>2023-10-12T09:45:04Z</time>
      </trkpt>
      <trkpt lat="44.41063" lon="1.28645">
        <ele>282.5</ele>
        <time>2023-10-12T09:45:05Z</time>
      </trkpt>
      <trkpt lat="44.41058" lon="1.28637">
        <ele>281.5</ele>
        <time>2023-10-12T09:45:13Z</time>
      </trkpt>
      <trkpt lat="44.41056" lon="1.28623">
        <ele>280.4</ele>
        <time>2023-10-12T09:45:22Z</time>
      </trkpt>
      <trkpt lat="44.41056" lon="1.28622">
        <ele>280.8</ele>
        <time>2023-10-12T09:45:23Z</time>
      </trkpt>
      <trkpt lat="44.41056" lon="1.28614">
        <ele>278.9</ele>
        <time>2023-10-12T09:45:28Z</time>
      </trkpt>
      <trkpt lat="44.41057" lon="1.28612">
        <ele>276.9</ele>
        <time>2023-10-12T09:45:30Z</time>
      </trkpt>
      <trkpt lat="44.41056" lon="1.28599">
        <ele>280.5</ele>
        <time>2023-10-12T09:45:40Z</time>
      </trkpt>
      <trkpt lat="44.41055" lon="1.28597">
        <ele>279.8</ele>
        <time>2023-10-12T09:45:41Z</time>
      </trkpt>
      <trkpt lat="44.41054" lon="1.28593">
        <ele>281.3</ele>
        <time>2023-10-12T09:45:44Z</time>
      </trkpt>
      <trkpt lat="44.41046" lon="1.28578">
        <ele>282.3</ele>
        <time>2023-10-12T09:45:57Z</time>
      </trkpt>
      <trkpt lat="44.41046" lon="1.28576">
        <ele>281.6</ele>
        <time>2023-10-12T09:45:58Z</time>
      </trkpt>
      <trkpt lat="44.41043" lon="1.28567">
        <ele>282.6</ele>
        <time>2023-10-12T09:46:05Z</time>
      </trkpt>
      <trkpt lat="44.41042" lon="1.28554">
        <ele>281.5</ele>
        <time>2023-10-12T09:46:14Z</time>
      </trkpt>
      <trkpt lat="44.41042" lon="1.28553">
        <ele>282.1</ele>
        <time>2023-10-12T09:46:15Z</time>
      </trkpt>
      <trkpt lat="44.41039" lon="1.28543">
        <ele>279.3</ele>
        <time>2023-10-12T09:46:23Z</time>
      </trkpt>
      <trkpt lat="44.4103" lon="1.28536">
        <ele>275.8</ele>
        <time>2023-10-12T09:46:36Z</time>
      </trkpt>
      <trkpt lat="44.41029" lon="1.28535">
        <ele>276.1</ele>
        <time>2023-10-12T09:46:37Z</time>
      </trkpt>
      <trkpt lat="44.41024" lon="1.28533">
        <ele>276.9</ele>
        <time>2023-10-12T09:46:43Z</time>
      </trkpt>
      <trkpt lat="44.41018" lon="1.28523">
        <ele>276.1</ele>
        <time>2023-10-12T09:46:54Z</time>
      </trkpt>
      <trkpt lat="44.41017" lon="1.28519">
        <ele>274.8</ele>
        <time>2023-10-12T09:46:58Z</time>
      </trkpt>
      <trkpt lat="44.41016" lon="1.28518">
        <ele>274.5</ele>
        <time>2023-10-12T09:46:59Z</time>
      </trkpt>
      <trkpt lat="44.41015" lon="1.28513">
        <ele>272.8</ele>
        <time>2023-10-12T09:47:03Z</time>
      </trkpt>
      <trkpt lat="44.41016" lon="1.28507">
        <ele>271.4</ele>
        <time>2023-10-12T09:47:09Z</time>
      </trkpt>
      <trkpt lat="44.41021" lon="1.28496">
        <ele>268.1</ele>
        <time>2023-10-12T09:47:18Z</time>
      </trkpt>
      <trkpt lat="44.41022" lon="1.28495">
        <ele>267.1</ele>
        <time>2023-10-12T09:47:19Z</time>
      </trkpt>
      <trkpt lat="44.41024" lon="1.28488">
        <ele>266.6</ele>
        <time>2023-10-12T09:47:26Z</time>
      </trkpt>
      <trkpt lat="44.41025" lon="1.28479">
        <ele>264.8</ele>
        <time>2023-10-12T09:47:34Z</time>
      </trkpt>
      <trkpt lat="44.41027" lon="1.28472">
        <ele>264.6</ele>
        <time>2023-10-12T09:47:40Z</time>
      </trkpt>
      <trkpt lat="44.41027" lon="1.28471">
        <ele>264.4</ele>
        <time>2023-10-12T09:47:41Z</time>
      </trkpt>
      <trkpt lat="44.41033" lon="1.28449">
        <ele>262.9</ele>
        <time>2023-10-12T09:47:58Z</time>
      </trkpt>
      <trkpt lat="44.41033" lon="1.28448">
        <ele>262.5</ele>
        <time>2023-10-12T09:47:59Z</time>
      </trkpt>
      <trkpt lat="44.41036" lon="1.2844">
        <ele>261.8</ele>
        <time>2023-10-12T09:48:06Z</time>
      </trkpt>
      <trkpt lat="44.41043" lon="1.28429">
        <ele>259.3</ele>
        <time>2023-10-12T09:48:17Z</time>
      </trkpt>
      <trkpt lat="44.41043" lon="1.28428">
        <ele>258.8</ele>
        <time>2023-10-12T09:48:18Z</time>
      </trkpt>
      <trkpt lat="44.41052" lon="1.28416">
        <ele>258.8</ele>
        <time>2023-10-12T09:48:30Z</time>
      </trkpt>
      <trkpt lat="44.41053" lon="1.28412">
        <ele>258.5</ele>
        <time>2023-10-12T09:48:35Z</time>
      </trkpt>
      <trkpt lat="44.41054" lon="1.28411">
        <ele>258.6</ele>
        <time>2023-10-12T09:48:36Z</time>
      </trkpt>
      <trkpt lat="44.41059" lon="1.28401">
        <ele>257.3</ele>
        <time>2023-10-12T09:48:45Z</time>
      </trkpt>
      <trkpt lat="44.41063" lon="1.28391">
        <ele>256.5</ele>
        <time>2023-10-12T09:48:52Z</time>
      </trkpt>
      <trkpt lat="44.41063" lon="1.2839">
        <ele>255.8</ele>
        <time>2023-10-12T09:48:53Z</time>
      </trkpt>
      <trkpt lat="44.41068" lon="1.28383">
        <ele>256.6</ele>
        <time>2023-10-12T09:49:01Z</time>
      </trkpt>
      <trkpt lat="44.41076" lon="1.28374">
        <ele>255.3</ele>
        <time>2023-10-12T09:49:13Z</time>
      </trkpt>
      <trkpt lat="44.41077" lon="1.28373">
        <ele>255.4</ele>
        <time>2023-10-12T09:49:14Z</time>
      </trkpt>
      <trkpt lat="44.41083" lon="1.28369">
        <ele>255.6</ele>
        <time>2023-10-12T09:49:21Z</time>
      </trkpt>
      <trkpt lat="44.41089" lon="1.28361">
        <ele>254.7</ele>
        <time>2023-10-12T09:49:31Z</time>
      </trkpt>
      <trkpt lat="44.41092" lon="1.2836">
        <ele>253.9</ele>
        <time>2023-10-12T09:49:34Z</time>
      </trkpt>
      <trkpt lat="44.41092" lon="1.28359">
        <ele>253.9</ele>
        <time>2023-10-12T09:49:35Z</time>
      </trkpt>
      <trkpt lat="44.41097" lon="1.28353">
        <ele>251.4</ele>
        <time>2023-10-12T09:49:45Z</time>
      </trkpt>
      <trkpt lat="44.411" lon="1.28344">
        <ele>250.4</ele>
        <time>2023-10-12T09:49:54Z</time>
      </trkpt>
      <trkpt lat="44.41102" lon="1.28342">
        <ele>250.1</ele>
        <time>2023-10-12T09:49:57Z</time>
      </trkpt>
      <trkpt lat="44.41103" lon="1.28341">
        <ele>250.3</ele>
        <time>2023-10-12T09:49:58Z</time>
      </trkpt>
      <trkpt lat="44.41108" lon="1.28338">
        <ele>250.4</ele>
        <time>2023-10-12T09:50:05Z</time>
      </trkpt>
      <trkpt lat="44.41117" lon="1.28327">
        <ele>248.5</ele>
        <time>2023-10-12T09:50:19Z</time>
      </trkpt>
      <trkpt lat="44.41118" lon="1.28326">
        <ele>247.3</ele>
        <time>2023-10-12T09:50:20Z</time>
      </trkpt>
      <trkpt lat="44.41124" lon="1.28319">
        <ele>245.6</ele>
        <time>2023-10-12T09:50:29Z</time>
      </trkpt>
      <trkpt lat="44.41125" lon="1.28314">
        <ele>246.8</ele>
        <time>2023-10-12T09:50:30Z</time>
      </trkpt>
      <trkpt lat="44.4113" lon="1.28309">
        <ele>249.9</ele>
        <time>2023-10-12T09:50:36Z</time>
      </trkpt>
      <trkpt lat="44.41131" lon="1.28308">
        <ele>250.1</ele>
        <time>2023-10-12T09:50:37Z</time>
      </trkpt>
      <trkpt lat="44.41136" lon="1.28297">
        <ele>251.8</ele>
        <time>2023-10-12T09:50:45Z</time>
      </trkpt>
      <trkpt lat="44.41141" lon="1.28289">
        <ele>249.8</ele>
        <time>2023-10-12T09:50:54Z</time>
      </trkpt>
      <trkpt lat="44.41142" lon="1.28288">
        <ele>249.8</ele>
        <time>2023-10-12T09:50:55Z</time>
      </trkpt>
      <trkpt lat="44.41147" lon="1.28275">
        <ele>251.4</ele>
        <time>2023-10-12T09:51:06Z</time>
      </trkpt>
      <trkpt lat="44.41151" lon="1.2827">
        <ele>251</ele>
        <time>2023-10-12T09:51:11Z</time>
      </trkpt>
      <trkpt lat="44.41152" lon="1.28269">
        <ele>251.4</ele>
        <time>2023-10-12T09:51:12Z</time>
      </trkpt>
      <trkpt lat="44.41158" lon="1.28263">
        <ele>251.8</ele>
        <time>2023-10-12T09:51:19Z</time>
      </trkpt>
      <trkpt lat="44.41165" lon="1.28253">
        <ele>249.1</ele>
        <time>2023-10-12T09:51:28Z</time>
      </trkpt>
      <trkpt lat="44.41165" lon="1.28252">
        <ele>249.7</ele>
        <time>2023-10-12T09:51:29Z</time>
      </trkpt>
      <trkpt lat="44.41164" lon="1.28252">
        <ele>248.9</ele>
        <time>2023-10-12T09:51:30Z</time>
      </trkpt>
      <trkpt lat="44.41167" lon="1.28252">
        <ele>248.8</ele>
        <time>2023-10-12T09:51:33Z</time>
      </trkpt>
      <trkpt lat="44.41171" lon="1.28244">
        <ele>249.5</ele>
        <time>2023-10-12T09:51:39Z</time>
      </trkpt>
      <trkpt lat="44.41176" lon="1.28237">
        <ele>249.6</ele>
        <time>2023-10-12T09:51:46Z</time>
      </trkpt>
      <trkpt lat="44.41177" lon="1.28237">
        <ele>249.4</ele>
        <time>2023-10-12T09:51:47Z</time>
      </trkpt>
      <trkpt lat="44.41182" lon="1.28224">
        <ele>251.7</ele>
        <time>2023-10-12T09:51:55Z</time>
      </trkpt>
      <trkpt lat="44.41183" lon="1.28218">
        <ele>250.3</ele>
        <time>2023-10-12T09:51:58Z</time>
      </trkpt>
      <trkpt lat="44.41184" lon="1.28217">
        <ele>249.8</ele>
        <time>2023-10-12T09:51:59Z</time>
      </trkpt>
      <trkpt lat="44.41189" lon="1.28205">
        <ele>251.3</ele>
        <time>2023-10-12T09:52:09Z</time>
      </trkpt>
      <trkpt lat="44.41191" lon="1.28194">
        <ele>250.9</ele>
        <time>2023-10-12T09:52:18Z</time>
      </trkpt>
      <trkpt lat="44.41192" lon="1.28193">
        <ele>250.9</ele>
        <time>2023-10-12T09:52:19Z</time>
      </trkpt>
      <trkpt lat="44.41194" lon="1.28182">
        <ele>251.1</ele>
        <time>2023-10-12T09:52:28Z</time>
      </trkpt>
      <trkpt lat="44.41193" lon="1.2818">
        <ele>252.8</ele>
        <time>2023-10-12T09:52:29Z</time>
      </trkpt>
      <trkpt lat="44.41189" lon="1.28179">
        <ele>251.7</ele>
        <time>2023-10-12T09:52:30Z</time>
      </trkpt>
      <trkpt lat="44.41189" lon="1.28171">
        <ele>252</ele>
        <time>2023-10-12T09:52:36Z</time>
      </trkpt>
      <trkpt lat="44.41189" lon="1.28169">
        <ele>252.3</ele>
        <time>2023-10-12T09:52:37Z</time>
      </trkpt>
      <trkpt lat="44.41191" lon="1.28157">
        <ele>244.4</ele>
        <time>2023-10-12T09:52:49Z</time>
      </trkpt>
      <trkpt lat="44.4119" lon="1.28147">
        <ele>243.4</ele>
        <time>2023-10-12T09:52:57Z</time>
      </trkpt>
      <trkpt lat="44.41189" lon="1.28146">
        <ele>244.1</ele>
        <time>2023-10-12T09:52:58Z</time>
      </trkpt>
      <trkpt lat="44.41187" lon="1.28129">
        <ele>245.6</ele>
        <time>2023-10-12T09:53:09Z</time>
      </trkpt>
      <trkpt lat="44.41188" lon="1.28122">
        <ele>245.2</ele>
        <time>2023-10-12T09:53:14Z</time>
      </trkpt>
      <trkpt lat="44.41188" lon="1.28121">
        <ele>244.5</ele>
        <time>2023-10-12T09:53:15Z</time>
      </trkpt>
      <trkpt lat="44.41198" lon="1.28108">
        <ele>242</ele>
        <time>2023-10-12T09:53:29Z</time>
      </trkpt>
      <trkpt lat="44.412" lon="1.28104">
        <ele>241.7</ele>
        <time>2023-10-12T09:53:32Z</time>
      </trkpt>
      <trkpt lat="44.41201" lon="1.28103">
        <ele>242.1</ele>
        <time>2023-10-12T09:53:33Z</time>
      </trkpt>
      <trkpt lat="44.41213" lon="1.2809">
        <ele>241.5</ele>
        <time>2023-10-12T09:53:49Z</time>
      </trkpt>
      <trkpt lat="44.41214" lon="1.28089">
        <ele>241</ele>
        <time>2023-10-12T09:53:50Z</time>
      </trkpt>
      <trkpt lat="44.41224" lon="1.28076">
        <ele>240.5</ele>
        <time>2023-10-12T09:54:03Z</time>
      </trkpt>
      <trkpt lat="44.41228" lon="1.28074">
        <ele>239.5</ele>
        <time>2023-10-12T09:54:07Z</time>
      </trkpt>
      <trkpt lat="44.41228" lon="1.28073">
        <ele>239.9</ele>
        <time>2023-10-12T09:54:08Z</time>
      </trkpt>
      <trkpt lat="44.41233" lon="1.28069">
        <ele>240</ele>
        <time>2023-10-12T09:54:15Z</time>
      </trkpt>
      <trkpt lat="44.41245" lon="1.28064">
        <ele>238.5</ele>
        <time>2023-10-12T09:54:27Z</time>
      </trkpt>
      <trkpt lat="44.41246" lon="1.28063">
        <ele>239</ele>
        <time>2023-10-12T09:54:28Z</time>
      </trkpt>
      <trkpt lat="44.41255" lon="1.28055">
        <ele>243.3</ele>
        <time>2023-10-12T09:54:36Z</time>
      </trkpt>
      <trkpt lat="44.41259" lon="1.28053">
        <ele>243.3</ele>
        <time>2023-10-12T09:54:41Z</time>
      </trkpt>
      <trkpt lat="44.41261" lon="1.2805">
        <ele>243.4</ele>
        <time>2023-10-12T09:54:44Z</time>
      </trkpt>
      <trkpt lat="44.41262" lon="1.28049">
        <ele>242.2</ele>
        <time>2023-10-12T09:54:45Z</time>
      </trkpt>
      <trkpt lat="44.41264" lon="1.28047">
        <ele>241.1</ele>
        <time>2023-10-12T09:54:48Z</time>
      </trkpt>
      <trkpt lat="44.41269" lon="1.28038">
        <ele>241.1</ele>
        <time>2023-10-12T09:54:57Z</time>
      </trkpt>
      <trkpt lat="44.41274" lon="1.28033">
        <ele>241.3</ele>
        <time>2023-10-12T09:55:02Z</time>
      </trkpt>
      <trkpt lat="44.41274" lon="1.28033">
        <ele>241.2</ele>
        <time>2023-10-12T09:55:03Z</time>
      </trkpt>
      <trkpt lat="44.41279" lon="1.28029">
        <ele>240.6</ele>
        <time>2023-10-12T09:55:08Z</time>
      </trkpt>
      <trkpt lat="44.41288" lon="1.28019">
        <ele>242.8</ele>
        <time>2023-10-12T09:55:19Z</time>
      </trkpt>
      <trkpt lat="44.41289" lon="1.28018">
        <ele>243.2</ele>
        <time>2023-10-12T09:55:20Z</time>
      </trkpt>
      <trkpt lat="44.41294" lon="1.28011">
        <ele>244.4</ele>
        <time>2023-10-12T09:55:27Z</time>
      </trkpt>
      <trkpt lat="44.41294" lon="1.28008">
        <ele>243.3</ele>
        <time>2023-10-12T09:55:30Z</time>
      </trkpt>
      <trkpt lat="44.41296" lon="1.28005">
        <ele>243.6</ele>
        <time>2023-10-12T09:55:32Z</time>
      </trkpt>
      <trkpt lat="44.41301" lon="1.28001">
        <ele>242.6</ele>
        <time>2023-10-12T09:55:38Z</time>
      </trkpt>
      <trkpt lat="44.41301" lon="1.28">
        <ele>243.6</ele>
        <time>2023-10-12T09:55:39Z</time>
      </trkpt>
      <trkpt lat="44.41306" lon="1.27994">
        <ele>244.7</ele>
        <time>2023-10-12T09:55:46Z</time>
      </trkpt>
      <trkpt lat="44.41311" lon="1.27982">
        <ele>242.8</ele>
        <time>2023-10-12T09:55:56Z</time>
      </trkpt>
      <trkpt lat="44.41311" lon="1.27981">
        <ele>242.8</ele>
        <time>2023-10-12T09:55:57Z</time>
      </trkpt>
      <trkpt lat="44.41314" lon="1.27974">
        <ele>243.3</ele>
        <time>2023-10-12T09:56:02Z</time>
      </trkpt>
      <trkpt lat="44.41316" lon="1.27959">
        <ele>242</ele>
        <time>2023-10-12T09:56:13Z</time>
      </trkpt>
      <trkpt lat="44.41316" lon="1.27958">
        <ele>241.5</ele>
        <time>2023-10-12T09:56:14Z</time>
      </trkpt>
      <trkpt lat="44.41317" lon="1.27946">
        <ele>245.1</ele>
        <time>2023-10-12T09:56:21Z</time>
      </trkpt>
      <trkpt lat="44.4132" lon="1.27935">
        <ele>245.2</ele>
        <time>2023-10-12T09:56:28Z</time>
      </trkpt>
      <trkpt lat="44.41321" lon="1.27934">
        <ele>245.4</ele>
        <time>2023-10-12T09:56:29Z</time>
      </trkpt>
      <trkpt lat="44.41321" lon="1.27932">
        <ele>246.4</ele>
        <time>2023-10-12T09:56:30Z</time>
      </trkpt>
      <trkpt lat="44.41329" lon="1.27923">
        <ele>245.9</ele>
        <time>2023-10-12T09:56:40Z</time>
      </trkpt>
      <trkpt lat="44.41334" lon="1.27921">
        <ele>243.1</ele>
        <time>2023-10-12T09:56:46Z</time>
      </trkpt>
      <trkpt lat="44.41334" lon="1.2792">
        <ele>243.1</ele>
        <time>2023-10-12T09:56:47Z</time>
      </trkpt>
      <trkpt lat="44.41344" lon="1.27911">
        <ele>241.1</ele>
        <time>2023-10-12T09:56:58Z</time>
      </trkpt>
      <trkpt lat="44.41347" lon="1.27906">
        <ele>242</ele>
        <time>2023-10-12T09:57:05Z</time>
      </trkpt>
      <trkpt lat="44.41348" lon="1.27905">
        <ele>241.8</ele>
        <time>2023-10-12T09:57:06Z</time>
      </trkpt>
      <trkpt lat="44.41359" lon="1.27888">
        <ele>241.9</ele>
        <time>2023-10-12T09:57:23Z</time>
      </trkpt>
      <trkpt lat="44.41359" lon="1.27888">
        <ele>242.1</ele>
        <time>2023-10-12T09:57:24Z</time>
      </trkpt>
      <trkpt lat="44.41363" lon="1.27883">
        <ele>243.1</ele>
        <time>2023-10-12T09:57:29Z</time>
      </trkpt>
      <trkpt lat="44.4137" lon="1.2787">
        <ele>241.4</ele>
        <time>2023-10-12T09:57:42Z</time>
      </trkpt>
      <trkpt lat="44.41371" lon="1.27869">
        <ele>240.8</ele>
        <time>2023-10-12T09:57:43Z</time>
      </trkpt>
      <trkpt lat="44.41378" lon="1.27856">
        <ele>240.7</ele>
        <time>2023-10-12T09:57:54Z</time>
      </trkpt>
      <trkpt lat="44.41382" lon="1.27851">
        <ele>240.4</ele>
        <time>2023-10-12T09:58:00Z</time>
      </trkpt>
      <trkpt lat="44.41383" lon="1.2785">
        <ele>241.2</ele>
        <time>2023-10-12T09:58:01Z</time>
      </trkpt>
      <trkpt lat="44.41389" lon="1.2784">
        <ele>242.3</ele>
        <time>2023-10-12T09:58:11Z</time>
      </trkpt>
      <trkpt lat="44.41396" lon="1.27835">
        <ele>243</ele>
        <time>2023-10-12T09:58:21Z</time>
      </trkpt>
      <trkpt lat="44.41397" lon="1.27834">
        <ele>242.9</ele>
        <time>2023-10-12T09:58:22Z</time>
      </trkpt>
      <trkpt lat="44.41402" lon="1.2783">
        <ele>239.7</ele>
        <time>2023-10-12T09:58:32Z</time>
      </trkpt>
      <trkpt lat="44.4141" lon="1.27817">
        <ele>239.7</ele>
        <time>2023-10-12T09:58:41Z</time>
      </trkpt>
      <trkpt lat="44.41411" lon="1.27816">
        <ele>239.3</ele>
        <time>2023-10-12T09:58:42Z</time>
      </trkpt>
      <trkpt lat="44.41416" lon="1.278">
        <ele>242.7</ele>
        <time>2023-10-12T09:58:54Z</time>
      </trkpt>
      <trkpt lat="44.4142" lon="1.27795">
        <ele>242.9</ele>
        <time>2023-10-12T09:58:59Z</time>
      </trkpt>
      <trkpt lat="44.41421" lon="1.27794">
        <ele>242.6</ele>
        <time>2023-10-12T09:59:00Z</time>
      </trkpt>
      <trkpt lat="44.41429" lon="1.27795">
        <ele>244</ele>
        <time>2023-10-12T09:59:07Z</time>
      </trkpt>
      <trkpt lat="44.41432" lon="1.27798">
        <ele>243</ele>
        <time>2023-10-12T09:59:11Z</time>
      </trkpt>
      <trkpt lat="44.41437" lon="1.278">
        <ele>242.7</ele>
        <time>2023-10-12T09:59:18Z</time>
      </trkpt>
      <trkpt lat="44.41438" lon="1.278">
        <ele>242.5</ele>
        <time>2023-10-12T09:59:19Z</time>
      </trkpt>
      <trkpt lat="44.41446" lon="1.27806">
        <ele>241</ele>
        <time>2023-10-12T09:59:29Z</time>
      </trkpt>
      <trkpt lat="44.4145" lon="1.27807">
        <ele>240.2</ele>
        <time>2023-10-12T09:59:32Z</time>
      </trkpt>
      <trkpt lat="44.41453" lon="1.2781">
        <ele>239.7</ele>
        <time>2023-10-12T09:59:35Z</time>
      </trkpt>
      <trkpt lat="44.41453" lon="1.2781">
        <ele>239.4</ele>
        <time>2023-10-12T09:59:36Z</time>
      </trkpt>
      <trkpt lat="44.41461" lon="1.27812">
        <ele>240</ele>
        <time>2023-10-12T09:59:45Z</time>
      </trkpt>
      <trkpt lat="44.41471" lon="1.27808">
        <ele>239.8</ele>
        <time>2023-10-12T10:00:00Z</time>
      </trkpt>
      <trkpt lat="44.41472" lon="1.27807">
        <ele>239.7</ele>
        <time>2023-10-12T10:00:01Z</time>
      </trkpt>
      <trkpt lat="44.41478" lon="1.27801">
        <ele>244.8</ele>
        <time>2023-10-12T10:00:08Z</time>
      </trkpt>
      <trkpt lat="44.41486" lon="1.27795">
        <ele>243.5</ele>
        <time>2023-10-12T10:00:18Z</time>
      </trkpt>
      <trkpt lat="44.41487" lon="1.27795">
        <ele>242.7</ele>
        <time>2023-10-12T10:00:19Z</time>
      </trkpt>
      <trkpt lat="44.41496" lon="1.27789">
        <ele>245</ele>
        <time>2023-10-12T10:00:29Z</time>
      </trkpt>
      <trkpt lat="44.41497" lon="1.27786">
        <ele>242.9</ele>
        <time>2023-10-12T10:00:30Z</time>
      </trkpt>
      <trkpt lat="44.41501" lon="1.27785">
        <ele>243.1</ele>
        <time>2023-10-12T10:00:34Z</time>
      </trkpt>
      <trkpt lat="44.41502" lon="1.27784">
        <ele>241.2</ele>
        <time>2023-10-12T10:00:35Z</time>
      </trkpt>
      <trkpt lat="44.41514" lon="1.27785">
        <ele>242.8</ele>
        <time>2023-10-12T10:00:44Z</time>
      </trkpt>
      <trkpt lat="44.41521" lon="1.27786">
        <ele>241.8</ele>
        <time>2023-10-12T10:00:51Z</time>
      </trkpt>
      <trkpt lat="44.41522" lon="1.27787">
        <ele>241.5</ele>
        <time>2023-10-12T10:00:52Z</time>
      </trkpt>
      <trkpt lat="44.41527" lon="1.27788">
        <ele>240.6</ele>
        <time>2023-10-12T10:00:57Z</time>
      </trkpt>
      <trkpt lat="44.41536" lon="1.27793">
        <ele>241.1</ele>
        <time>2023-10-12T10:01:08Z</time>
      </trkpt>
      <trkpt lat="44.41539" lon="1.27792">
        <ele>240.1</ele>
        <time>2023-10-12T10:01:12Z</time>
      </trkpt>
      <trkpt lat="44.4154" lon="1.27791">
        <ele>240.4</ele>
        <time>2023-10-12T10:01:13Z</time>
      </trkpt>
      <trkpt lat="44.41545" lon="1.27791">
        <ele>239.8</ele>
        <time>2023-10-12T10:01:18Z</time>
      </trkpt>
      <trkpt lat="44.4155" lon="1.27786">
        <ele>239.6</ele>
        <time>2023-10-12T10:01:24Z</time>
      </trkpt>
      <trkpt lat="44.41555" lon="1.27786">
        <ele>238.7</ele>
        <time>2023-10-12T10:01:29Z</time>
      </trkpt>
      <trkpt lat="44.41555" lon="1.27788">
        <ele>238.3</ele>
        <time>2023-10-12T10:01:30Z</time>
      </trkpt>
      <trkpt lat="44.41561" lon="1.27794">
        <ele>235.3</ele>
        <time>2023-10-12T10:01:35Z</time>
      </trkpt>
      <trkpt lat="44.41565" lon="1.27797">
        <ele>235.9</ele>
        <time>2023-10-12T10:01:39Z</time>
      </trkpt>
      <trkpt lat="44.41566" lon="1.27799">
        <ele>235.4</ele>
        <time>2023-10-12T10:01:41Z</time>
      </trkpt>
      <trkpt lat="44.41569" lon="1.27799">
        <ele>236.4</ele>
        <time>2023-10-12T10:01:44Z</time>
      </trkpt>
      <trkpt lat="44.4157" lon="1.27799">
        <ele>235</ele>
        <time>2023-10-12T10:01:45Z</time>
      </trkpt>
      <trkpt lat="44.4158" lon="1.27798">
        <ele>235.3</ele>
        <time>2023-10-12T10:01:54Z</time>
      </trkpt>
      <trkpt lat="44.41582" lon="1.27799">
        <ele>236.6</ele>
        <time>2023-10-12T10:01:56Z</time>
      </trkpt>
      <trkpt lat="44.41583" lon="1.27801">
        <ele>237</ele>
        <time>2023-10-12T10:01:58Z</time>
      </trkpt>
      <trkpt lat="44.41586" lon="1.27801">
        <ele>237.2</ele>
        <time>2023-10-12T10:02:01Z</time>
      </trkpt>
      <trkpt lat="44.41587" lon="1.27802">
        <ele>233.7</ele>
        <time>2023-10-12T10:02:02Z</time>
      </trkpt>
      <trkpt lat="44.41592" lon="1.27808">
        <ele>234.4</ele>
        <time>2023-10-12T10:02:09Z</time>
      </trkpt>
      <trkpt lat="44.41598" lon="1.27819">
        <ele>232.8</ele>
        <time>2023-10-12T10:02:17Z</time>
      </trkpt>
      <trkpt lat="44.41598" lon="1.2782">
        <ele>233.3</ele>
        <time>2023-10-12T10:02:18Z</time>
      </trkpt>
      <trkpt lat="44.41606" lon="1.27834">
        <ele>234</ele>
        <time>2023-10-12T10:02:32Z</time>
      </trkpt>
      <trkpt lat="44.41608" lon="1.27838">
        <ele>235.3</ele>
        <time>2023-10-12T10:02:36Z</time>
      </trkpt>
      <trkpt lat="44.4161" lon="1.27839">
        <ele>234.7</ele>
        <time>2023-10-12T10:02:37Z</time>
      </trkpt>
      <trkpt lat="44.41625" lon="1.27849">
        <ele>235.3</ele>
        <time>2023-10-12T10:02:54Z</time>
      </trkpt>
      <trkpt lat="44.41625" lon="1.2785">
        <ele>235</ele>
        <time>2023-10-12T10:02:55Z</time>
      </trkpt>
      <trkpt lat="44.41632" lon="1.27854">
        <ele>232.2</ele>
        <time>2023-10-12T10:03:03Z</time>
      </trkpt>
      <trkpt lat="44.41634" lon="1.27856">
        <ele>234.9</ele>
        <time>2023-10-12T10:03:06Z</time>
      </trkpt>
      <trkpt lat="44.4164" lon="1.27858">
        <ele>235.9</ele>
        <time>2023-10-12T10:03:13Z</time>
      </trkpt>
      <trkpt lat="44.41641" lon="1.27858">
        <ele>236.7</ele>
        <time>2023-10-12T10:03:14Z</time>
      </trkpt>
      <trkpt lat="44.41649" lon="1.2786">
        <ele>233.5</ele>
        <time>2023-10-12T10:03:23Z</time>
      </trkpt>
      <trkpt lat="44.41656" lon="1.27866">
        <ele>234.1</ele>
        <time>2023-10-12T10:03:31Z</time>
      </trkpt>
      <trkpt lat="44.41657" lon="1.27867">
        <ele>233.3</ele>
        <time>2023-10-12T10:03:32Z</time>
      </trkpt>
      <trkpt lat="44.41659" lon="1.27866">
        <ele>232.4</ele>
        <time>2023-10-12T10:03:34Z</time>
      </trkpt>
      <trkpt lat="44.41666" lon="1.27866">
        <ele>234.2</ele>
        <time>2023-10-12T10:03:38Z</time>
      </trkpt>
      <trkpt lat="44.41673" lon="1.27872">
        <ele>234.4</ele>
        <time>2023-10-12T10:03:47Z</time>
      </trkpt>
      <trkpt lat="44.41674" lon="1.27873">
        <ele>233.6</ele>
        <time>2023-10-12T10:03:48Z</time>
      </trkpt>
      <trkpt lat="44.41679" lon="1.27877">
        <ele>231.3</ele>
        <time>2023-10-12T10:03:55Z</time>
      </trkpt>
      <trkpt lat="44.41688" lon="1.27881">
        <ele>232.8</ele>
        <time>2023-10-12T10:04:04Z</time>
      </trkpt>
      <trkpt lat="44.41689" lon="1.27881">
        <ele>232.9</ele>
        <time>2023-10-12T10:04:05Z</time>
      </trkpt>
      <trkpt lat="44.41695" lon="1.27883">
        <ele>231.5</ele>
        <time>2023-10-12T10:04:11Z</time>
      </trkpt>
      <trkpt lat="44.41706" lon="1.27883">
        <ele>228.9</ele>
        <time>2023-10-12T10:04:22Z</time>
      </trkpt>
      <trkpt lat="44.41706" lon="1.27883">
        <ele>229.7</ele>
        <time>2023-10-12T10:04:23Z</time>
      </trkpt>
      <trkpt lat="44.41714" lon="1.27882">
        <ele>231.6</ele>
        <time>2023-10-12T10:04:32Z</time>
      </trkpt>
      <trkpt lat="44.41718" lon="1.27885">
        <ele>232.3</ele>
        <time>2023-10-12T10:04:38Z</time>
      </trkpt>
      <trkpt lat="44.41724" lon="1.27887">
        <ele>232.5</ele>
        <time>2023-10-12T10:04:43Z</time>
      </trkpt>
      <trkpt lat="44.41725" lon="1.27887">
        <ele>233.4</ele>
        <time>2023-10-12T10:04:44Z</time>
      </trkpt>
      <trkpt lat="44.41731" lon="1.27884">
        <ele>233.8</ele>
        <time>2023-10-12T10:04:51Z</time>
      </trkpt>
      <trkpt lat="44.41742" lon="1.27884">
        <ele>232.1</ele>
        <time>2023-10-12T10:05:02Z</time>
      </trkpt>
      <trkpt lat="44.41743" lon="1.27884">
        <ele>231.6</ele>
        <time>2023-10-12T10:05:03Z</time>
      </trkpt>
      <trkpt lat="44.4175" lon="1.27888">
        <ele>232.2</ele>
        <time>2023-10-12T10:05:11Z</time>
      </trkpt>
      <trkpt lat="44.41759" lon="1.27888">
        <ele>231.9</ele>
        <time>2023-10-12T10:05:21Z</time>
      </trkpt>
      <trkpt lat="44.41761" lon="1.27887">
        <ele>232</ele>
        <time>2023-10-12T10:05:22Z</time>
      </trkpt>
      <trkpt lat="44.41769" lon="1.27881">
        <ele>233.1</ele>
        <time>2023-10-12T10:05:32Z</time>
      </trkpt>
      <trkpt lat="44.41771" lon="1.27881">
        <ele>233</ele>
        <time>2023-10-12T10:05:35Z</time>
      </trkpt>
      <trkpt lat="44.41776" lon="1.27878">
        <ele>231.7</ele>
        <time>2023-10-12T10:05:41Z</time>
      </trkpt>
      <trkpt lat="44.41777" lon="1.27877">
        <ele>232.2</ele>
        <time>2023-10-12T10:05:42Z</time>
      </trkpt>
      <trkpt lat="44.41781" lon="1.27877">
        <ele>231.4</ele>
        <time>2023-10-12T10:05:46Z</time>
      </trkpt>
      <trkpt lat="44.41786" lon="1.27873">
        <ele>229.2</ele>
        <time>2023-10-12T10:05:52Z</time>
      </trkpt>
      <trkpt lat="44.41787" lon="1.27863">
        <ele>228.7</ele>
        <time>2023-10-12T10:05:59Z</time>
      </trkpt>
      <trkpt lat="44.41787" lon="1.27862">
        <ele>229.1</ele>
        <time>2023-10-12T10:06:00Z</time>
      </trkpt>
      <trkpt lat="44.4179" lon="1.27858">
        <ele>228.8</ele>
        <time>2023-10-12T10:06:03Z</time>
      </trkpt>
      <trkpt lat="44.41794" lon="1.27854">
        <ele>228.7</ele>
        <time>2023-10-12T10:06:07Z</time>
      </trkpt>
      <trkpt lat="44.41802" lon="1.27844">
        <ele>230.4</ele>
        <time>2023-10-12T10:06:16Z</time>
      </trkpt>
      <trkpt lat="44.41803" lon="1.27843">
        <ele>229.8</ele>
        <time>2023-10-12T10:06:17Z</time>
      </trkpt>
      <trkpt lat="44.41804" lon="1.27843">
        <ele>230.4</ele>
        <time>2023-10-12T10:06:18Z</time>
      </trkpt>
      <trkpt lat="44.41805" lon="1.27844">
        <ele>227.9</ele>
        <time>2023-10-12T10:06:19Z</time>
      </trkpt>
      <trkpt lat="44.41806" lon="1.27848">
        <ele>227.4</ele>
        <time>2023-10-12T10:06:20Z</time>
      </trkpt>
      <trkpt lat="44.41804" lon="1.27854">
        <ele>229.1</ele>
        <time>2023-10-12T10:06:23Z</time>
      </trkpt>
      <trkpt lat="44.41801" lon="1.27857">
        <ele>228.8</ele>
        <time>2023-10-12T10:06:29Z</time>
      </trkpt>
      <trkpt lat="44.41808" lon="1.27848">
        <ele>226.9</ele>
        <time>2023-10-12T10:06:30Z</time>
      </trkpt>
      <trkpt lat="44.41807" lon="1.27847">
        <ele>227.9</ele>
        <time>2023-10-12T10:06:31Z</time>
      </trkpt>
      <trkpt lat="44.41808" lon="1.27848">
        <ele>226.6</ele>
        <time>2023-10-12T10:06:32Z</time>
      </trkpt>
      <trkpt lat="44.41809" lon="1.27846">
        <ele>226.5</ele>
        <time>2023-10-12T10:06:35Z</time>
      </trkpt>
      <trkpt lat="44.41811" lon="1.27844">
        <ele>226.3</ele>
        <time>2023-10-12T10:06:37Z</time>
      </trkpt>
      <trkpt lat="44.41823" lon="1.27841">
        <ele>230.1</ele>
        <time>2023-10-12T10:06:47Z</time>
      </trkpt>
      <trkpt lat="44.41825" lon="1.27841">
        <ele>231.3</ele>
        <time>2023-10-12T10:06:48Z</time>
      </trkpt>
      <trkpt lat="44.41835" lon="1.2784">
        <ele>230.2</ele>
        <time>2023-10-12T10:06:58Z</time>
      </trkpt>
      <trkpt lat="44.41836" lon="1.27836">
        <ele>227.3</ele>
        <time>2023-10-12T10:07:04Z</time>
      </trkpt>
      <trkpt lat="44.41837" lon="1.27835">
        <ele>224.9</ele>
        <time>2023-10-12T10:07:06Z</time>
      </trkpt>
      <trkpt lat="44.41841" lon="1.27834">
        <ele>224.3</ele>
        <time>2023-10-12T10:07:10Z</time>
      </trkpt>
      <trkpt lat="44.41842" lon="1.27833">
        <ele>224.6</ele>
        <time>2023-10-12T10:07:11Z</time>
      </trkpt>
      <trkpt lat="44.41844" lon="1.27832">
        <ele>222.6</ele>
        <time>2023-10-12T10:07:29Z</time>
      </trkpt>
      <trkpt lat="44.41849" lon="1.27831">
        <ele>225.4</ele>
        <time>2023-10-12T10:07:30Z</time>
      </trkpt>
      <trkpt lat="44.41851" lon="1.27833">
        <ele>223.2</ele>
        <time>2023-10-12T10:07:52Z</time>
      </trkpt>
      <trkpt lat="44.41853" lon="1.27832">
        <ele>223.9</ele>
        <time>2023-10-12T10:07:55Z</time>
      </trkpt>
      <trkpt lat="44.4186" lon="1.27825">
        <ele>223.4</ele>
        <time>2023-10-12T10:08:05Z</time>
      </trkpt>
      <trkpt lat="44.4186" lon="1.27824">
        <ele>223.5</ele>
        <time>2023-10-12T10:08:06Z</time>
      </trkpt>
      <trkpt lat="44.41873" lon="1.27816">
        <ele>221.3</ele>
        <time>2023-10-12T10:08:21Z</time>
      </trkpt>
      <trkpt lat="44.41875" lon="1.27813">
        <ele>222.4</ele>
        <time>2023-10-12T10:08:24Z</time>
      </trkpt>
      <trkpt lat="44.41876" lon="1.27812">
        <ele>222.7</ele>
        <time>2023-10-12T10:08:25Z</time>
      </trkpt>
      <trkpt lat="44.4188" lon="1.2781">
        <ele>224.3</ele>
        <time>2023-10-12T10:08:29Z</time>
      </trkpt>
      <trkpt lat="44.41884" lon="1.27805">
        <ele>229.2</ele>
        <time>2023-10-12T10:08:33Z</time>
      </trkpt>
      <trkpt lat="44.41887" lon="1.27803">
        <ele>228</ele>
        <time>2023-10-12T10:08:37Z</time>
      </trkpt>
      <trkpt lat="44.4189" lon="1.27802">
        <ele>224.1</ele>
        <time>2023-10-12T10:08:40Z</time>
      </trkpt>
      <trkpt lat="44.41891" lon="1.27802">
        <ele>225.5</ele>
        <time>2023-10-12T10:08:41Z</time>
      </trkpt>
      <trkpt lat="44.41892" lon="1.27801">
        <ele>225.6</ele>
        <time>2023-10-12T10:08:42Z</time>
      </trkpt>
      <trkpt lat="44.41894" lon="1.27802">
        <ele>227.6</ele>
        <time>2023-10-12T10:08:45Z</time>
      </trkpt>
      <trkpt lat="44.41895" lon="1.27807">
        <ele>228.5</ele>
        <time>2023-10-12T10:08:48Z</time>
      </trkpt>
      <trkpt lat="44.41894" lon="1.27815">
        <ele>227.9</ele>
        <time>2023-10-12T10:08:51Z</time>
      </trkpt>
      <trkpt lat="44.41892" lon="1.27819">
        <ele>228.3</ele>
        <time>2023-10-12T10:08:53Z</time>
      </trkpt>
      <trkpt lat="44.41891" lon="1.27821">
        <ele>228.8</ele>
        <time>2023-10-12T10:08:54Z</time>
      </trkpt>
      <trkpt lat="44.4189" lon="1.27825">
        <ele>230.4</ele>
        <time>2023-10-12T10:08:57Z</time>
      </trkpt>
      <trkpt lat="44.41892" lon="1.27828">
        <ele>225.3</ele>
        <time>2023-10-12T10:09:01Z</time>
      </trkpt>
      <trkpt lat="44.41897" lon="1.27832">
        <ele>223.2</ele>
        <time>2023-10-12T10:09:07Z</time>
      </trkpt>
      <trkpt lat="44.41901" lon="1.27837">
        <ele>225.5</ele>
        <time>2023-10-12T10:09:13Z</time>
      </trkpt>
      <trkpt lat="44.41901" lon="1.27838">
        <ele>226.9</ele>
        <time>2023-10-12T10:09:14Z</time>
      </trkpt>
      <trkpt lat="44.41909" lon="1.27845">
        <ele>232.3</ele>
        <time>2023-10-12T10:09:24Z</time>
      </trkpt>
      <trkpt lat="44.41909" lon="1.27848">
        <ele>232.3</ele>
        <time>2023-10-12T10:09:27Z</time>
      </trkpt>
      <trkpt lat="44.41905" lon="1.2785">
        <ele>229.6</ele>
        <time>2023-10-12T10:09:29Z</time>
      </trkpt>
      <trkpt lat="44.41902" lon="1.27848">
        <ele>228.5</ele>
        <time>2023-10-12T10:09:30Z</time>
      </trkpt>
      <trkpt lat="44.41903" lon="1.27849">
        <ele>228.3</ele>
        <time>2023-10-12T10:09:31Z</time>
      </trkpt>
      <trkpt lat="44.41903" lon="1.2785">
        <ele>229.4</ele>
        <time>2023-10-12T10:09:32Z</time>
      </trkpt>
      <trkpt lat="44.41901" lon="1.27855">
        <ele>231.9</ele>
        <time>2023-10-12T10:09:35Z</time>
      </trkpt>
      <trkpt lat="44.41899" lon="1.27864">
        <ele>230.8</ele>
        <time>2023-10-12T10:09:43Z</time>
      </trkpt>
      <trkpt lat="44.41896" lon="1.2787">
        <ele>230.2</ele>
        <time>2023-10-12T10:09:49Z</time>
      </trkpt>
      <trkpt lat="44.41896" lon="1.2787">
        <ele>230.3</ele>
        <time>2023-10-12T10:09:50Z</time>
      </trkpt>
      <trkpt lat="44.41896" lon="1.27874">
        <ele>232.1</ele>
        <time>2023-10-12T10:09:56Z</time>
      </trkpt>
      <trkpt lat="44.41893" lon="1.27884">
        <ele>233.6</ele>
        <time>2023-10-12T10:10:08Z</time>
      </trkpt>
      <trkpt lat="44.41891" lon="1.27891">
        <ele>233.3</ele>
        <time>2023-10-12T10:10:18Z</time>
      </trkpt>
      <trkpt lat="44.41889" lon="1.27889">
        <ele>238.6</ele>
        <time>2023-10-12T10:10:24Z</time>
      </trkpt>
      <trkpt lat="44.41888" lon="1.2789">
        <ele>239.5</ele>
        <time>2023-10-12T10:10:25Z</time>
      </trkpt>
      <trkpt lat="44.41888" lon="1.27891">
        <ele>238.7</ele>
        <time>2023-10-12T10:10:26Z</time>
      </trkpt>
      <trkpt lat="44.41887" lon="1.27892">
        <ele>240.4</ele>
        <time>2023-10-12T10:10:29Z</time>
      </trkpt>
      <trkpt lat="44.41892" lon="1.27891">
        <ele>242.3</ele>
        <time>2023-10-12T10:10:30Z</time>
      </trkpt>
      <trkpt lat="44.41889" lon="1.27901">
        <ele>238</ele>
        <time>2023-10-12T10:10:37Z</time>
      </trkpt>
      <trkpt lat="44.41887" lon="1.27905">
        <ele>236.6</ele>
        <time>2023-10-12T10:10:41Z</time>
      </trkpt>
      <trkpt lat="44.41886" lon="1.27907">
        <ele>237.3</ele>
        <time>2023-10-12T10:10:42Z</time>
      </trkpt>
      <trkpt lat="44.41884" lon="1.27915">
        <ele>241.8</ele>
        <time>2023-10-12T10:10:50Z</time>
      </trkpt>
      <trkpt lat="44.41876" lon="1.27928">
        <ele>241.8</ele>
        <time>2023-10-12T10:11:01Z</time>
      </trkpt>
      <trkpt lat="44.41875" lon="1.27929">
        <ele>241.7</ele>
        <time>2023-10-12T10:11:02Z</time>
      </trkpt>
      <trkpt lat="44.41873" lon="1.27932">
        <ele>239.1</ele>
        <time>2023-10-12T10:11:07Z</time>
      </trkpt>
      <trkpt lat="44.41872" lon="1.27939">
        <ele>234.5</ele>
        <time>2023-10-12T10:11:13Z</time>
      </trkpt>
      <trkpt lat="44.41877" lon="1.27946">
        <ele>235</ele>
        <time>2023-10-12T10:11:22Z</time>
      </trkpt>
      <trkpt lat="44.41877" lon="1.2795">
        <ele>234.7</ele>
        <time>2023-10-12T10:11:27Z</time>
      </trkpt>
      <trkpt lat="44.41877" lon="1.27951">
        <ele>234.8</ele>
        <time>2023-10-12T10:11:28Z</time>
      </trkpt>
      <trkpt lat="44.41876" lon="1.27952">
        <ele>235</ele>
        <time>2023-10-12T10:11:29Z</time>
      </trkpt>
      <trkpt lat="44.41881" lon="1.27953">
        <ele>237.1</ele>
        <time>2023-10-12T10:11:30Z</time>
      </trkpt>
      <trkpt lat="44.41881" lon="1.27957">
        <ele>237.8</ele>
        <time>2023-10-12T10:11:34Z</time>
      </trkpt>
      <trkpt lat="44.41879" lon="1.27963">
        <ele>237.6</ele>
        <time>2023-10-12T10:11:36Z</time>
      </trkpt>
      <trkpt lat="44.41877" lon="1.27965">
        <ele>239.2</ele>
        <time>2023-10-12T10:11:38Z</time>
      </trkpt>
      <trkpt lat="44.41876" lon="1.27969">
        <ele>240.7</ele>
        <time>2023-10-12T10:11:43Z</time>
      </trkpt>
      <trkpt lat="44.41876" lon="1.2797">
        <ele>241.9</ele>
        <time>2023-10-12T10:11:44Z</time>
      </trkpt>
      <trkpt lat="44.41875" lon="1.27976">
        <ele>240.8</ele>
        <time>2023-10-12T10:11:49Z</time>
      </trkpt>
      <trkpt lat="44.41868" lon="1.27983">
        <ele>242.3</ele>
        <time>2023-10-12T10:11:58Z</time>
      </trkpt>
      <trkpt lat="44.41865" lon="1.27984">
        <ele>243.9</ele>
        <time>2023-10-12T10:12:02Z</time>
      </trkpt>
      <trkpt lat="44.41865" lon="1.27985">
        <ele>244.7</ele>
        <time>2023-10-12T10:12:03Z</time>
      </trkpt>
      <trkpt lat="44.41865" lon="1.27989">
        <ele>242.2</ele>
        <time>2023-10-12T10:12:07Z</time>
      </trkpt>
      <trkpt lat="44.41868" lon="1.27994">
        <ele>242.4</ele>
        <time>2023-10-12T10:12:12Z</time>
      </trkpt>
      <trkpt lat="44.41869" lon="1.28">
        <ele>247.4</ele>
        <time>2023-10-12T10:12:20Z</time>
      </trkpt>
      <trkpt lat="44.41868" lon="1.28003">
        <ele>243.8</ele>
        <time>2023-10-12T10:12:28Z</time>
      </trkpt>
      <trkpt lat="44.41861" lon="1.28004">
        <ele>241.7</ele>
        <time>2023-10-12T10:12:30Z</time>
      </trkpt>
      <trkpt lat="44.41861" lon="1.28005">
        <ele>241.9</ele>
        <time>2023-10-12T10:12:31Z</time>
      </trkpt>
      <trkpt lat="44.41853" lon="1.2802">
        <ele>245.3</ele>
        <time>2023-10-12T10:12:42Z</time>
      </trkpt>
      <trkpt lat="44.41851" lon="1.28027">
        <ele>245.9</ele>
        <time>2023-10-12T10:12:47Z</time>
      </trkpt>
      <trkpt lat="44.4185" lon="1.28029">
        <ele>246.2</ele>
        <time>2023-10-12T10:12:48Z</time>
      </trkpt>
      <trkpt lat="44.41848" lon="1.28033">
        <ele>246.4</ele>
        <time>2023-10-12T10:12:51Z</time>
      </trkpt>
      <trkpt lat="44.41848" lon="1.28044">
        <ele>247.9</ele>
        <time>2023-10-12T10:13:01Z</time>
      </trkpt>
      <trkpt lat="44.41851" lon="1.28051">
        <ele>248.4</ele>
        <time>2023-10-12T10:13:07Z</time>
      </trkpt>
      <trkpt lat="44.41851" lon="1.28052">
        <ele>248</ele>
        <time>2023-10-12T10:13:08Z</time>
      </trkpt>
      <trkpt lat="44.41854" lon="1.28067">
        <ele>251.9</ele>
        <time>2023-10-12T10:13:29Z</time>
      </trkpt>
      <trkpt lat="44.41859" lon="1.28069">
        <ele>253.5</ele>
        <time>2023-10-12T10:13:30Z</time>
      </trkpt>
      <trkpt lat="44.41858" lon="1.28073">
        <ele>252.5</ele>
        <time>2023-10-12T10:13:36Z</time>
      </trkpt>
      <trkpt lat="44.41858" lon="1.28074">
        <ele>252.6</ele>
        <time>2023-10-12T10:13:37Z</time>
      </trkpt>
      <trkpt lat="44.41855" lon="1.28082">
        <ele>251.8</ele>
        <time>2023-10-12T10:13:44Z</time>
      </trkpt>
      <trkpt lat="44.41851" lon="1.28085">
        <ele>250.2</ele>
        <time>2023-10-12T10:13:48Z</time>
      </trkpt>
      <trkpt lat="44.41847" lon="1.28091">
        <ele>253.5</ele>
        <time>2023-10-12T10:13:54Z</time>
      </trkpt>
      <trkpt lat="44.41847" lon="1.28092">
        <ele>254.4</ele>
        <time>2023-10-12T10:13:55Z</time>
      </trkpt>
      <trkpt lat="44.41845" lon="1.28102">
        <ele>255.8</ele>
        <time>2023-10-12T10:14:03Z</time>
      </trkpt>
      <trkpt lat="44.41842" lon="1.28107">
        <ele>254.7</ele>
        <time>2023-10-12T10:14:07Z</time>
      </trkpt>
      <trkpt lat="44.41843" lon="1.2811">
        <ele>255.9</ele>
        <time>2023-10-12T10:14:12Z</time>
      </trkpt>
      <trkpt lat="44.41842" lon="1.28114">
        <ele>257.1</ele>
        <time>2023-10-12T10:14:16Z</time>
      </trkpt>
      <trkpt lat="44.41841" lon="1.28115">
        <ele>257.2</ele>
        <time>2023-10-12T10:14:17Z</time>
      </trkpt>
      <trkpt lat="44.41834" lon="1.28135">
        <ele>259.4</ele>
        <time>2023-10-12T10:14:35Z</time>
      </trkpt>
      <trkpt lat="44.41834" lon="1.28136">
        <ele>259.3</ele>
        <time>2023-10-12T10:14:36Z</time>
      </trkpt>
      <trkpt lat="44.41834" lon="1.28143">
        <ele>259.9</ele>
        <time>2023-10-12T10:14:43Z</time>
      </trkpt>
      <trkpt lat="44.41835" lon="1.28146">
        <ele>259.2</ele>
        <time>2023-10-12T10:14:46Z</time>
      </trkpt>
      <trkpt lat="44.41841" lon="1.28149">
        <ele>260</ele>
        <time>2023-10-12T10:14:52Z</time>
      </trkpt>
      <trkpt lat="44.41843" lon="1.28151">
        <ele>260.6</ele>
        <time>2023-10-12T10:14:55Z</time>
      </trkpt>
      <trkpt lat="44.41844" lon="1.28152">
        <ele>260.8</ele>
        <time>2023-10-12T10:14:56Z</time>
      </trkpt>
      <trkpt lat="44.41848" lon="1.28156">
        <ele>262.3</ele>
        <time>2023-10-12T10:15:01Z</time>
      </trkpt>
      <trkpt lat="44.41851" lon="1.28163">
        <ele>263.9</ele>
        <time>2023-10-12T10:15:08Z</time>
      </trkpt>
      <trkpt lat="44.41853" lon="1.2817">
        <ele>263.9</ele>
        <time>2023-10-12T10:15:13Z</time>
      </trkpt>
      <trkpt lat="44.41853" lon="1.28171">
        <ele>264</ele>
        <time>2023-10-12T10:15:14Z</time>
      </trkpt>
      <trkpt lat="44.41857" lon="1.28184">
        <ele>267.1</ele>
        <time>2023-10-12T10:15:23Z</time>
      </trkpt>
      <trkpt lat="44.41858" lon="1.28194">
        <ele>270.4</ele>
        <time>2023-10-12T10:15:29Z</time>
      </trkpt>
      <trkpt lat="44.41852" lon="1.28191">
        <ele>263.6</ele>
        <time>2023-10-12T10:15:30Z</time>
      </trkpt>
      <trkpt lat="44.41851" lon="1.28191">
        <ele>263</ele>
        <time>2023-10-12T10:15:31Z</time>
      </trkpt>
      <trkpt lat="44.41854" lon="1.28195">
        <ele>266.3</ele>
        <time>2023-10-12T10:15:33Z</time>
      </trkpt>
      <trkpt lat="44.41854" lon="1.28198">
        <ele>267.5</ele>
        <time>2023-10-12T10:15:35Z</time>
      </trkpt>
      <trkpt lat="44.41853" lon="1.28206">
        <ele>268.2</ele>
        <time>2023-10-12T10:15:39Z</time>
      </trkpt>
      <trkpt lat="44.41853" lon="1.28209">
        <ele>269.8</ele>
        <time>2023-10-12T10:15:42Z</time>
      </trkpt>
      <trkpt lat="44.41855" lon="1.28213">
        <ele>270.1</ele>
        <time>2023-10-12T10:15:45Z</time>
      </trkpt>
      <trkpt lat="44.41856" lon="1.28214">
        <ele>270.1</ele>
        <time>2023-10-12T10:15:46Z</time>
      </trkpt>
      <trkpt lat="44.41859" lon="1.2822">
        <ele>272.2</ele>
        <time>2023-10-12T10:15:52Z</time>
      </trkpt>
      <trkpt lat="44.41857" lon="1.28221">
        <ele>267.4</ele>
        <time>2023-10-12T10:16:10Z</time>
      </trkpt>
      <trkpt lat="44.41853" lon="1.2822">
        <ele>270.7</ele>
        <time>2023-10-12T10:17:13Z</time>
      </trkpt>
      <trkpt lat="44.41853" lon="1.28228">
        <ele>271.1</ele>
        <time>2023-10-12T10:21:12Z</time>
      </trkpt>
      <trkpt lat="44.41854" lon="1.2823">
        <ele>271.8</ele>
        <time>2023-10-12T10:21:13Z</time>
      </trkpt>
      <trkpt lat="44.4186" lon="1.28255">
        <ele>273.9</ele>
        <time>2023-10-12T10:21:31Z</time>
      </trkpt>
      <trkpt lat="44.4186" lon="1.28256">
        <ele>273.6</ele>
        <time>2023-10-12T10:21:32Z</time>
      </trkpt>
      <trkpt lat="44.41863" lon="1.28271">
        <ele>273.4</ele>
        <time>2023-10-12T10:21:43Z</time>
      </trkpt>
      <trkpt lat="44.41867" lon="1.28276">
        <ele>274.2</ele>
        <time>2023-10-12T10:21:48Z</time>
      </trkpt>
      <trkpt lat="44.41868" lon="1.28277">
        <ele>273.5</ele>
        <time>2023-10-12T10:21:49Z</time>
      </trkpt>
      <trkpt lat="44.41872" lon="1.28282">
        <ele>273.7</ele>
        <time>2023-10-12T10:21:56Z</time>
      </trkpt>
      <trkpt lat="44.41883" lon="1.28287">
        <ele>272.4</ele>
        <time>2023-10-12T10:22:08Z</time>
      </trkpt>
      <trkpt lat="44.41884" lon="1.28287">
        <ele>272.4</ele>
        <time>2023-10-12T10:22:09Z</time>
      </trkpt>
      <trkpt lat="44.41887" lon="1.28289">
        <ele>272.5</ele>
        <time>2023-10-12T10:22:12Z</time>
      </trkpt>
      <trkpt lat="44.41898" lon="1.28301">
        <ele>273</ele>
        <time>2023-10-12T10:22:29Z</time>
      </trkpt>
      <trkpt lat="44.41899" lon="1.28301">
        <ele>273.4</ele>
        <time>2023-10-12T10:22:30Z</time>
      </trkpt>
      <trkpt lat="44.41902" lon="1.28306">
        <ele>270.4</ele>
        <time>2023-10-12T10:22:35Z</time>
      </trkpt>
      <trkpt lat="44.4191" lon="1.28312">
        <ele>270.8</ele>
        <time>2023-10-12T10:22:44Z</time>
      </trkpt>
      <trkpt lat="44.41913" lon="1.28312">
        <ele>271.1</ele>
        <time>2023-10-12T10:22:47Z</time>
      </trkpt>
      <trkpt lat="44.41914" lon="1.28313">
        <ele>271.2</ele>
        <time>2023-10-12T10:22:48Z</time>
      </trkpt>
      <trkpt lat="44.41923" lon="1.28316">
        <ele>270.4</ele>
        <time>2023-10-12T10:22:57Z</time>
      </trkpt>
      <trkpt lat="44.41925" lon="1.28316">
        <ele>270.8</ele>
        <time>2023-10-12T10:22:59Z</time>
      </trkpt>
      <trkpt lat="44.41929" lon="1.28321">
        <ele>271.5</ele>
        <time>2023-10-12T10:23:04Z</time>
      </trkpt>
      <trkpt lat="44.41931" lon="1.28321">
        <ele>271.3</ele>
        <time>2023-10-12T10:23:05Z</time>
      </trkpt>
      <trkpt lat="44.41947" lon="1.28327">
        <ele>271.5</ele>
        <time>2023-10-12T10:23:23Z</time>
      </trkpt>
      <trkpt lat="44.41948" lon="1.28327">
        <ele>271</ele>
        <time>2023-10-12T10:23:24Z</time>
      </trkpt>
      <trkpt lat="44.41961" lon="1.28333">
        <ele>269.8</ele>
        <time>2023-10-12T10:23:37Z</time>
      </trkpt>
      <trkpt lat="44.41963" lon="1.28336">
        <ele>268.5</ele>
        <time>2023-10-12T10:23:40Z</time>
      </trkpt>
      <trkpt lat="44.41964" lon="1.28337">
        <ele>268.1</ele>
        <time>2023-10-12T10:23:41Z</time>
      </trkpt>
      <trkpt lat="44.41978" lon="1.2835">
        <ele>271.1</ele>
        <time>2023-10-12T10:23:57Z</time>
      </trkpt>
      <trkpt lat="44.41979" lon="1.28351">
        <ele>271.1</ele>
        <time>2023-10-12T10:23:58Z</time>
      </trkpt>
      <trkpt lat="44.41983" lon="1.28355">
        <ele>271.2</ele>
        <time>2023-10-12T10:24:04Z</time>
      </trkpt>
      <trkpt lat="44.41991" lon="1.28368">
        <ele>270.2</ele>
        <time>2023-10-12T10:24:15Z</time>
      </trkpt>
      <trkpt lat="44.41992" lon="1.28369">
        <ele>269.4</ele>
        <time>2023-10-12T10:24:16Z</time>
      </trkpt>
      <trkpt lat="44.41995" lon="1.28372">
        <ele>269.3</ele>
        <time>2023-10-12T10:24:20Z</time>
      </trkpt>
      <trkpt lat="44.42001" lon="1.28374">
        <ele>267.4</ele>
        <time>2023-10-12T10:24:26Z</time>
      </trkpt>
      <trkpt lat="44.42006" lon="1.28374">
        <ele>267.3</ele>
        <time>2023-10-12T10:24:32Z</time>
      </trkpt>
      <trkpt lat="44.42009" lon="1.28377">
        <ele>266.7</ele>
        <time>2023-10-12T10:24:35Z</time>
      </trkpt>
      <trkpt lat="44.42011" lon="1.28377">
        <ele>266.6</ele>
        <time>2023-10-12T10:24:36Z</time>
      </trkpt>
      <trkpt lat="44.42018" lon="1.28379">
        <ele>267.5</ele>
        <time>2023-10-12T10:24:43Z</time>
      </trkpt>
      <trkpt lat="44.42028" lon="1.28379">
        <ele>267.9</ele>
        <time>2023-10-12T10:24:52Z</time>
      </trkpt>
      <trkpt lat="44.42029" lon="1.28379">
        <ele>267.8</ele>
        <time>2023-10-12T10:24:53Z</time>
      </trkpt>
      <trkpt lat="44.42047" lon="1.2838">
        <ele>268.8</ele>
        <time>2023-10-12T10:25:09Z</time>
      </trkpt>
      <trkpt lat="44.42048" lon="1.2838">
        <ele>268.9</ele>
        <time>2023-10-12T10:25:10Z</time>
      </trkpt>
      <trkpt lat="44.42066" lon="1.28381">
        <ele>269.7</ele>
        <time>2023-10-12T10:25:26Z</time>
      </trkpt>
      <trkpt lat="44.42067" lon="1.28381">
        <ele>270.1</ele>
        <time>2023-10-12T10:25:27Z</time>
      </trkpt>
      <trkpt lat="44.42079" lon="1.28381">
        <ele>268.7</ele>
        <time>2023-10-12T10:25:38Z</time>
      </trkpt>
      <trkpt lat="44.42085" lon="1.2838">
        <ele>269</ele>
        <time>2023-10-12T10:25:43Z</time>
      </trkpt>
      <trkpt lat="44.42086" lon="1.2838">
        <ele>269.2</ele>
        <time>2023-10-12T10:25:44Z</time>
      </trkpt>
      <trkpt lat="44.42094" lon="1.28378">
        <ele>268.8</ele>
        <time>2023-10-12T10:25:51Z</time>
      </trkpt>
      <trkpt lat="44.42103" lon="1.28378">
        <ele>269</ele>
        <time>2023-10-12T10:25:58Z</time>
      </trkpt>
      <trkpt lat="44.42104" lon="1.28378">
        <ele>269.1</ele>
        <time>2023-10-12T10:25:59Z</time>
      </trkpt>
      <trkpt lat="44.42118" lon="1.28379">
        <ele>269</ele>
        <time>2023-10-12T10:26:12Z</time>
      </trkpt>
      <trkpt lat="44.4212" lon="1.28379">
        <ele>269.3</ele>
        <time>2023-10-12T10:26:14Z</time>
      </trkpt>
      <trkpt lat="44.4212" lon="1.28381">
        <ele>269.8</ele>
        <time>2023-10-12T10:26:15Z</time>
      </trkpt>
      <trkpt lat="44.4212" lon="1.28382">
        <ele>269.7</ele>
        <time>2023-10-12T10:26:16Z</time>
      </trkpt>
      <trkpt lat="44.4212" lon="1.28382">
        <ele>269.7</ele>
        <time>2023-10-12T10:26:17Z</time>
      </trkpt>
      <trkpt lat="44.42121" lon="1.28383">
        <ele>269.8</ele>
        <time>2023-10-12T10:26:18Z</time>
      </trkpt>
      <trkpt lat="44.42123" lon="1.28383">
        <ele>269.2</ele>
        <time>2023-10-12T10:26:20Z</time>
      </trkpt>
      <trkpt lat="44.42131" lon="1.28382">
        <ele>268.7</ele>
        <time>2023-10-12T10:26:29Z</time>
      </trkpt>
      <trkpt lat="44.42132" lon="1.28379">
        <ele>267.3</ele>
        <time>2023-10-12T10:26:32Z</time>
      </trkpt>
      <trkpt lat="44.42136" lon="1.2838">
        <ele>267</ele>
        <time>2023-10-12T10:26:35Z</time>
      </trkpt>
      <trkpt lat="44.42137" lon="1.2838">
        <ele>267</ele>
        <time>2023-10-12T10:26:36Z</time>
      </trkpt>
      <trkpt lat="44.42155" lon="1.28382">
        <ele>268.3</ele>
        <time>2023-10-12T10:26:52Z</time>
      </trkpt>
      <trkpt lat="44.42156" lon="1.28382">
        <ele>268.2</ele>
        <time>2023-10-12T10:26:53Z</time>
      </trkpt>
      <trkpt lat="44.42173" lon="1.28381">
        <ele>268.3</ele>
        <time>2023-10-12T10:27:09Z</time>
      </trkpt>
      <trkpt lat="44.42174" lon="1.28381">
        <ele>268.3</ele>
        <time>2023-10-12T10:27:10Z</time>
      </trkpt>
      <trkpt lat="44.42193" lon="1.28378">
        <ele>269.6</ele>
        <time>2023-10-12T10:27:26Z</time>
      </trkpt>
      <trkpt lat="44.42194" lon="1.28378">
        <ele>269.6</ele>
        <time>2023-10-12T10:27:27Z</time>
      </trkpt>
      <trkpt lat="44.42202" lon="1.28377">
        <ele>267.7</ele>
        <time>2023-10-12T10:27:34Z</time>
      </trkpt>
      <trkpt lat="44.42211" lon="1.28374">
        <ele>268.6</ele>
        <time>2023-10-12T10:27:43Z</time>
      </trkpt>
      <trkpt lat="44.42213" lon="1.28374">
        <ele>268.5</ele>
        <time>2023-10-12T10:27:44Z</time>
      </trkpt>
      <trkpt lat="44.42231" lon="1.28371">
        <ele>269.9</ele>
        <time>2023-10-12T10:28:00Z</time>
      </trkpt>
      <trkpt lat="44.42232" lon="1.28371">
        <ele>270.1</ele>
        <time>2023-10-12T10:28:01Z</time>
      </trkpt>
      <trkpt lat="44.42251" lon="1.2837">
        <ele>271</ele>
        <time>2023-10-12T10:28:17Z</time>
      </trkpt>
      <trkpt lat="44.42252" lon="1.2837">
        <ele>270.5</ele>
        <time>2023-10-12T10:28:18Z</time>
      </trkpt>
      <trkpt lat="44.42266" lon="1.2837">
        <ele>271.3</ele>
        <time>2023-10-12T10:28:29Z</time>
      </trkpt>
      <trkpt lat="44.42271" lon="1.28372">
        <ele>269.9</ele>
        <time>2023-10-12T10:28:35Z</time>
      </trkpt>
      <trkpt lat="44.42272" lon="1.28373">
        <ele>269.9</ele>
        <time>2023-10-12T10:28:36Z</time>
      </trkpt>
      <trkpt lat="44.4229" lon="1.28377">
        <ele>268.3</ele>
        <time>2023-10-12T10:28:52Z</time>
      </trkpt>
      <trkpt lat="44.42291" lon="1.28378">
        <ele>267.9</ele>
        <time>2023-10-12T10:28:53Z</time>
      </trkpt>
      <trkpt lat="44.423" lon="1.28381">
        <ele>267.3</ele>
        <time>2023-10-12T10:29:00Z</time>
      </trkpt>
      <trkpt lat="44.42309" lon="1.28386">
        <ele>265.7</ele>
        <time>2023-10-12T10:29:09Z</time>
      </trkpt>
      <trkpt lat="44.4231" lon="1.28387">
        <ele>265.5</ele>
        <time>2023-10-12T10:29:10Z</time>
      </trkpt>
      <trkpt lat="44.42327" lon="1.28397">
        <ele>265.1</ele>
        <time>2023-10-12T10:29:26Z</time>
      </trkpt>
      <trkpt lat="44.42328" lon="1.28398">
        <ele>264.7</ele>
        <time>2023-10-12T10:29:27Z</time>
      </trkpt>
      <trkpt lat="44.42333" lon="1.28402">
        <ele>262.9</ele>
        <time>2023-10-12T10:29:33Z</time>
      </trkpt>
      <trkpt lat="44.42336" lon="1.28402">
        <ele>262.2</ele>
        <time>2023-10-12T10:29:36Z</time>
      </trkpt>
      <trkpt lat="44.42345" lon="1.28407">
        <ele>262.5</ele>
        <time>2023-10-12T10:29:44Z</time>
      </trkpt>
      <trkpt lat="44.42346" lon="1.28408">
        <ele>262.8</ele>
        <time>2023-10-12T10:29:45Z</time>
      </trkpt>
      <trkpt lat="44.42365" lon="1.28417">
        <ele>263.5</ele>
        <time>2023-10-12T10:30:01Z</time>
      </trkpt>
      <trkpt lat="44.42366" lon="1.28418">
        <ele>263.1</ele>
        <time>2023-10-12T10:30:02Z</time>
      </trkpt>
      <trkpt lat="44.42382" lon="1.28428">
        <ele>264.6</ele>
        <time>2023-10-12T10:30:18Z</time>
      </trkpt>
      <trkpt lat="44.42383" lon="1.28429">
        <ele>264.8</ele>
        <time>2023-10-12T10:30:19Z</time>
      </trkpt>
      <trkpt lat="44.42401" lon="1.28438">
        <ele>266.3</ele>
        <time>2023-10-12T10:30:37Z</time>
      </trkpt>
      <trkpt lat="44.42402" lon="1.28439">
        <ele>266.1</ele>
        <time>2023-10-12T10:30:38Z</time>
      </trkpt>
      <trkpt lat="44.42419" lon="1.28448">
        <ele>266.4</ele>
        <time>2023-10-12T10:30:54Z</time>
      </trkpt>
      <trkpt lat="44.4242" lon="1.28449">
        <ele>266.3</ele>
        <time>2023-10-12T10:30:55Z</time>
      </trkpt>
      <trkpt lat="44.42432" lon="1.28457">
        <ele>266.2</ele>
        <time>2023-10-12T10:31:07Z</time>
      </trkpt>
      <trkpt lat="44.42435" lon="1.28459">
        <ele>266.1</ele>
        <time>2023-10-12T10:31:10Z</time>
      </trkpt>
      <trkpt lat="44.42435" lon="1.28461">
        <ele>267.5</ele>
        <time>2023-10-12T10:31:11Z</time>
      </trkpt>
      <trkpt lat="44.42434" lon="1.28463">
        <ele>266.1</ele>
        <time>2023-10-12T10:31:12Z</time>
      </trkpt>
      <trkpt lat="44.42435" lon="1.28465">
        <ele>265.6</ele>
        <time>2023-10-12T10:31:13Z</time>
      </trkpt>
      <trkpt lat="44.4244" lon="1.28466">
        <ele>266.6</ele>
        <time>2023-10-12T10:31:17Z</time>
      </trkpt>
      <trkpt lat="44.42449" lon="1.2847">
        <ele>265.8</ele>
        <time>2023-10-12T10:31:26Z</time>
      </trkpt>
      <trkpt lat="44.4245" lon="1.28471">
        <ele>265.6</ele>
        <time>2023-10-12T10:31:27Z</time>
      </trkpt>
      <trkpt lat="44.42452" lon="1.28472">
        <ele>265.7</ele>
        <time>2023-10-12T10:31:29Z</time>
      </trkpt>
      <trkpt lat="44.42457" lon="1.28471">
        <ele>267.2</ele>
        <time>2023-10-12T10:31:33Z</time>
      </trkpt>
      <trkpt lat="44.42466" lon="1.28476">
        <ele>268.5</ele>
        <time>2023-10-12T10:31:42Z</time>
      </trkpt>
      <trkpt lat="44.42467" lon="1.28477">
        <ele>268.8</ele>
        <time>2023-10-12T10:31:43Z</time>
      </trkpt>
      <trkpt lat="44.42484" lon="1.28478">
        <ele>269.4</ele>
        <time>2023-10-12T10:31:59Z</time>
      </trkpt>
      <trkpt lat="44.42485" lon="1.28478">
        <ele>269.6</ele>
        <time>2023-10-12T10:32:00Z</time>
      </trkpt>
      <trkpt lat="44.42492" lon="1.28475">
        <ele>270.7</ele>
        <time>2023-10-12T10:32:07Z</time>
      </trkpt>
      <trkpt lat="44.42502" lon="1.2847">
        <ele>271.6</ele>
        <time>2023-10-12T10:32:16Z</time>
      </trkpt>
      <trkpt lat="44.42503" lon="1.28469">
        <ele>272</ele>
        <time>2023-10-12T10:32:17Z</time>
      </trkpt>
      <trkpt lat="44.42512" lon="1.28464">
        <ele>271.9</ele>
        <time>2023-10-12T10:32:26Z</time>
      </trkpt>
      <trkpt lat="44.42512" lon="1.2846">
        <ele>271.1</ele>
        <time>2023-10-12T10:32:27Z</time>
      </trkpt>
      <trkpt lat="44.42513" lon="1.28464">
        <ele>272.2</ele>
        <time>2023-10-12T10:32:28Z</time>
      </trkpt>
      <trkpt lat="44.42516" lon="1.28461">
        <ele>271.4</ele>
        <time>2023-10-12T10:32:31Z</time>
      </trkpt>
      <trkpt lat="44.42516" lon="1.28462">
        <ele>271.1</ele>
        <time>2023-10-12T10:32:32Z</time>
      </trkpt>
      <trkpt lat="44.42517" lon="1.28462">
        <ele>271</ele>
        <time>2023-10-12T10:32:33Z</time>
      </trkpt>
      <trkpt lat="44.42533" lon="1.28455">
        <ele>273.6</ele>
        <time>2023-10-12T10:32:48Z</time>
      </trkpt>
      <trkpt lat="44.42534" lon="1.28455">
        <ele>273.6</ele>
        <time>2023-10-12T10:32:49Z</time>
      </trkpt>
      <trkpt lat="44.42551" lon="1.28451">
        <ele>273.7</ele>
        <time>2023-10-12T10:33:05Z</time>
      </trkpt>
      <trkpt lat="44.42552" lon="1.28451">
        <ele>273.6</ele>
        <time>2023-10-12T10:33:06Z</time>
      </trkpt>
      <trkpt lat="44.42553" lon="1.28451">
        <ele>273.8</ele>
        <time>2023-10-12T10:33:07Z</time>
      </trkpt>
      <trkpt lat="44.42557" lon="1.28454">
        <ele>271.7</ele>
        <time>2023-10-12T10:33:12Z</time>
      </trkpt>
      <trkpt lat="44.4256" lon="1.28455">
        <ele>270.7</ele>
        <time>2023-10-12T10:33:23Z</time>
      </trkpt>
      <trkpt lat="44.42566" lon="1.28453">
        <ele>270.6</ele>
        <time>2023-10-12T10:33:31Z</time>
      </trkpt>
      <trkpt lat="44.42569" lon="1.28453">
        <ele>270.9</ele>
        <time>2023-10-12T10:33:34Z</time>
      </trkpt>
      <trkpt lat="44.4257" lon="1.28452">
        <ele>271.2</ele>
        <time>2023-10-12T10:33:35Z</time>
      </trkpt>
      <trkpt lat="44.42581" lon="1.28452">
        <ele>271.5</ele>
        <time>2023-10-12T10:33:44Z</time>
      </trkpt>
      <trkpt lat="44.42588" lon="1.28455">
        <ele>271.1</ele>
        <time>2023-10-12T10:33:51Z</time>
      </trkpt>
      <trkpt lat="44.42589" lon="1.28455">
        <ele>270.9</ele>
        <time>2023-10-12T10:33:52Z</time>
      </trkpt>
      <trkpt lat="44.42599" lon="1.28457">
        <ele>271.1</ele>
        <time>2023-10-12T10:34:01Z</time>
      </trkpt>
      <trkpt lat="44.42607" lon="1.28462">
        <ele>269.6</ele>
        <time>2023-10-12T10:34:08Z</time>
      </trkpt>
      <trkpt lat="44.42608" lon="1.28462">
        <ele>269.5</ele>
        <time>2023-10-12T10:34:09Z</time>
      </trkpt>
      <trkpt lat="44.42625" lon="1.28469">
        <ele>267.7</ele>
        <time>2023-10-12T10:34:25Z</time>
      </trkpt>
      <trkpt lat="44.42626" lon="1.2847">
        <ele>268</ele>
        <time>2023-10-12T10:34:26Z</time>
      </trkpt>
      <trkpt lat="44.42629" lon="1.28473">
        <ele>269.2</ele>
        <time>2023-10-12T10:34:30Z</time>
      </trkpt>
      <trkpt lat="44.42629" lon="1.28476">
        <ele>268.6</ele>
        <time>2023-10-12T10:34:36Z</time>
      </trkpt>
      <trkpt lat="44.4263" lon="1.28482">
        <ele>268.9</ele>
        <time>2023-10-12T10:34:40Z</time>
      </trkpt>
      <trkpt lat="44.42629" lon="1.28486">
        <ele>268.8</ele>
        <time>2023-10-12T10:34:43Z</time>
      </trkpt>
      <trkpt lat="44.4263" lon="1.28487">
        <ele>267.7</ele>
        <time>2023-10-12T10:34:52Z</time>
      </trkpt>
    </trkseg>
  </trk>
</gpx>